[[{"header":{"parameterUnit":"m.s-1","parameterCategory":1,"la1":31.0,"la2":29.5877,"lo1":-88.7671,"lo2":-86.6584,"dy":0.0162,"dx":0.0185,"nx":115,"ny":88,"refTime":"2024-02-27T06:00:00:Z","depth":0,"parameterNumber":2,"parameterNumberName":"U-component_of_WINDS"},"data":[0.0,0.0,0.0,0.0,0.0,0.0,0.0,0.0,0.0,0.0,0.0,0.0,0.0,0.0,0.0,0.0,0.0,0.0,0.0,0.0,0.0,0.0,0.0,0.0,0.0,0.0,0.0,0.0,0.0,0.0,0.0,0.0,0.0,0.0,0.0,0.0,0.0,0.0,0.0,0.0,0.0,0.0,0.0,0.0,0.0,0.0,0.0,0.0,0.0,0.0,0.0,0.0,0.0,0.0,0.0,0.0,0.0,0.0,0.0,0.0,0.0,0.0,0.0,0.0,0.0,0.0,0.0,0.0,0.0,0.0,0.0,0.0,0.0,0.0,0.0,0.0,0.0,0.0,0.0,0.0,0.0,0.0,0.0,0.0,0.0,0.0,0.0,0.0,0.0,0.0,0.0,0.0,0.0,0.0,0.0,0.0,0.0,0.0,0.0,0.0,0.0,0.0,0.0,0.0,0.0,0.0,0.0,0.0,0.0,0.0,0.0,0.0,0.0,0.0,0.0,0.0,0.0,0.0,0.0,0.0,0.0,0.0,0.0,0.0,0.0,0.0,0.0,0.0,0.0,0.0,0.0,0.0,0.0,0.0,0.0,0.0,0.0,0.0,0.0,0.0,0.0,0.0,0.0,0.0,0.0,0.0,0.0,0.0,0.0,0.0,0.0,0.0,0.0,0.0,0.0,0.0,0.0,0.0,0.0,0.0,0.0,0.0,0.0,0.0,0.0,0.0,0.0,0.0,0.0,0.0,0.0,0.0,0.0,0.0,0.0,0.0,0.0,0.0,0.0,0.0,0.0,0.0,0.0,0.0,0.0,0.0,0.0,0.0,0.0,0.0,0.0,0.0,0.0,0.0,0.0,0.0,0.0,0.0,0.0,0.0,0.0,0.0,0.0,0.0,0.0,0.0,0.0,0.0,0.0,0.0,0.0,0.0,0.0,0.0,0.0,0.0,0.0,0.0,0.0,0.0,0.0,0.0,0.0,0.0,0.0,0.0,0.0,0.0,0.0,0.0,0.0,0.0,0.0,0.0,0.0,0.0,0.0,0.0,0.0,0.0,0.0,0.0,0.0,0.0,0.0,0.0,0.0,0.0,0.0,0.0,0.0,0.0,0.0,0.0,0.0,0.0,0.0,0.0,0.0,0.0,0.0,0.0,0.0,0.0,0.0,0.0,0.0,0.0,0.0,0.0,0.0,0.0,0.0,0.0,0.0,0.0,0.0,0.0,0.0,0.0,0.0,0.0,0.0,0.0,0.0,0.0,0.0,0.0,0.0,0.0,0.0,0.0,0.0,0.0,0.0,0.0,0.0,0.0,0.0,0.0,0.0,0.0,0.0,0.0,0.0,0.0,0.0,0.0,0.0,0.0,0.0,0.0,0.0,0.0,0.0,0.0,0.0,0.0,0.0,0.0,0.0,0.0,0.0,0.0,0.0,0.0,0.0,0.0,0.0,0.0,0.0,0.0,0.0,0.0,0.0,0.0,0.0,0.0,0.0,0.0,0.0,0.0,0.0,0.0,0.0,0.0,0.0,0.0,0.0,0.0,0.0,0.0,0.0,0.0,0.0,0.0,0.0,0.0,0.0,0.0,0.0,0.0,0.0,0.0,0.0,0.0,0.0,0.0,0.0,0.0,0.0,0.0,0.0,0.0,0.0,0.0,0.0,0.0,0.0,0.0,0.0,0.0,0.0,0.0,0.0,0.0,0.0,0.0,0.0,0.0,0.0,0.0,0.0,0.0,0.0,0.0,0.0,0.0,0.0,0.0,0.0,0.0,0.0,0.0,0.0,0.0,0.0,0.0,0.0,0.0,0.0,0.0,0.0,0.0,0.0,0.0,0.0,0.0,0.0,0.0,0.0,0.0,0.0,0.0,0.0,0.0,0.0,0.0,0.0,0.0,0.0,0.0,0.0,0.0,0.0,0.0,0.0,0.0,0.0,0.0,0.0,0.0,0.0,0.0,0.0,0.0,0.0,0.0,0.0,0.0,0.0,0.0,0.0,0.0,0.0,0.0,0.0,0.0,0.0,0.0,0.0,0.0,0.0,0.0,0.0,0.0,0.0,0.0,0.0,0.0,0.0,0.0,0.0,0.0,0.0,0.0,0.0,0.0,0.0,0.0,0.0,0.0,0.0,0.0,0.0,0.0,0.0,0.0,0.0,0.0,0.0,0.0,0.0,0.0,0.0,0.0,0.0,0.0,0.0,0.0,0.0,0.0,0.0,0.0,0.0,0.0,0.0,0.0,0.0,0.0,0.0,0.0,0.0,0.0,0.0,0.0,0.0,0.0,0.0,0.0,0.0,0.0,0.0,0.0,0.0,0.0,0.0,0.0,0.0,0.0,0.0,0.0,0.0,0.0,0.0,0.0,0.0,0.0,0.0,0.0,0.0,0.0,0.0,0.0,0.0,0.0,0.0,0.0,0.0,0.0,0.0,0.0,0.0,0.0,0.0,0.0,0.0,0.0,0.0,0.0,0.0,0.0,0.0,0.0,0.0,0.0,0.0,0.0,0.0,0.0,0.0,0.0,0.0,0.0,0.0,0.0,0.0,0.0,0.0,0.0,0.0,0.0,0.0,0.0,0.0,0.0,0.0,0.0,0.0,0.0,0.0,0.0,0.0,0.0,0.0,0.0,0.0,0.0,0.0,0.0,0.0,0.0,0.0,0.0,0.0,0.0,0.0,0.0,0.0,0.0,0.0,0.0,0.0,0.0,0.0,0.0,0.0,0.0,0.0,0.0,0.0,0.0,0.0,0.0,0.0,0.0,0.0,0.0,0.0,0.0,0.0,0.0,0.0,0.0,0.0,0.0,0.0,0.0,0.0,0.0,0.0,0.0,0.0,0.0,0.0,0.0,0.0,0.0,0.0,0.0,0.0,0.0,0.0,0.0,0.0,0.0,0.0,0.0,0.0,0.0,0.0,0.0,0.0,0.0,0.0,0.0,0.0,0.0,0.0,0.0,0.0,0.0,0.0,0.0,0.0,0.0,0.0,0.0,0.0,0.0,0.0,0.0,0.0,0.0,0.0,0.0,0.0,0.0,0.0,0.0,0.0,0.0,0.0,0.0,0.0,0.0,0.0,0.0,0.0,0.0,0.0,0.0,0.0,0.0,0.0,0.0,0.0,0.0,0.0,0.0,0.0,0.0,0.0,0.0,0.0,0.0,0.0,0.0,0.0,0.0,0.0,0.0,0.0,0.0,0.0,0.0,0.0,0.0,0.0,0.0,0.0,0.0,0.0,0.0,0.0,0.0,0.0,0.0,0.0,0.0,0.0,0.0,0.0,0.0,0.0,0.0,0.0,0.0,0.0,0.0,0.0,0.0,0.0,0.0,0.0,0.0,0.0,0.0,0.0,0.0,0.0,0.0,0.0,0.0,0.0,0.0,0.0,0.0,0.0,0.0,0.0,0.0,0.0,0.0,0.0,0.0,0.0,0.0,0.0,0.0,0.0,0.0,0.0,0.0,0.0,0.0,0.0,0.0,0.0,0.0,0.0,0.0,0.0,0.0,0.0,0.0,0.0,0.0,0.0,0.0,0.0,0.0,0.0,0.0,0.0,0.0,0.0,0.0,0.0,0.0,0.0,0.0,0.0,0.0,0.0,0.0,0.0,0.0,0.0,0.0,0.0,0.0,0.0,0.0,0.0,0.0,0.0,0.0,0.0,0.0,0.0,0.0,0.0,0.0,0.0,0.0,0.0,0.0,0.0,0.0,0.0,0.0,0.0,0.0,0.0,0.0,0.0,0.0,0.0,0.0,0.0,0.0,0.0,0.0,0.0,0.0,0.0,0.0,0.0,0.0,0.0,0.0,0.0,0.0,0.0,0.0,0.0,0.0,0.0,0.0,0.0,0.0,0.0,0.0,0.0,0.0,0.0,0.0,0.0,0.0,0.0,0.0,0.0,0.0,0.0,0.0,0.0,0.0,0.0,0.0,0.0,0.0,0.0,0.0,0.0,0.0,0.0,0.0,0.0,0.0,0.0,0.0,0.0,0.0,0.0,0.0,0.0,0.0,0.0,0.0,0.0,0.0,0.0,0.0,0.0,0.0,0.0,0.0,0.0,0.0,0.0,0.0,0.0,0.0,0.0,0.0,0.0,0.0,0.0,0.0,0.0,0.0,0.0,0.0,0.0,0.0,0.0,0.0,0.0,0.0,0.0,0.0,0.0,0.0,0.0,0.0,0.0,0.0,0.0,0.0,0.0,0.0,0.0,0.0,0.0,0.0,0.0,0.0,0.0,0.0,0.0,0.0,0.0,0.0,0.0,0.0,5.6799,0.0,0.0,0.0,0.0,0.0,0.0,0.0,0.0,0.0,0.0,0.0,0.0,0.0,0.0,0.0,0.0,0.0,0.0,0.0,0.0,0.0,0.0,0.0,0.0,0.0,0.0,0.0,0.0,0.0,0.0,0.0,0.0,0.0,0.0,0.0,0.0,0.0,0.0,0.0,0.0,0.0,0.0,0.0,0.0,0.0,0.0,0.0,0.0,0.0,0.0,0.0,0.0,0.0,0.0,0.0,0.0,0.0,0.0,0.0,0.0,0.0,0.0,0.0,0.0,0.0,0.0,0.0,0.0,0.0,0.0,0.0,0.0,0.0,0.0,0.0,0.0,0.0,0.0,0.0,0.0,0.0,0.0,0.0,0.0,0.0,0.0,0.0,0.0,0.0,0.0,0.0,0.0,0.0,0.0,0.0,0.0,0.0,0.0,0.0,0.0,0.0,0.0,0.0,0.0,0.0,0.0,0.0,0.0,0.0,0.0,5.8572,5.8492,5.7709,5.726,5.7174,0.0,0.0,0.0,0.0,0.0,0.0,0.0,0.0,0.0,0.0,0.0,0.0,0.0,0.0,0.0,0.0,0.0,0.0,0.0,0.0,0.0,0.0,0.0,0.0,0.0,0.0,0.0,0.0,0.0,0.0,0.0,0.0,0.0,0.0,0.0,0.0,0.0,0.0,0.0,0.0,0.0,0.0,0.0,0.0,0.0,0.0,0.0,0.0,0.0,0.0,0.0,0.0,0.0,0.0,0.0,0.0,0.0,0.0,0.0,0.0,0.0,0.0,0.0,0.0,0.0,0.0,0.0,0.0,0.0,0.0,0.0,0.0,0.0,0.0,0.0,0.0,0.0,0.0,0.0,0.0,0.0,0.0,0.0,0.0,0.0,0.0,0.0,0.0,0.0,0.0,0.0,0.0,0.0,0.0,0.0,0.0,0.0,0.0,0.0,0.0,0.0,0.0,0.0,0.0,0.0,0.0,0.0,0.0,0.0,0.0,0.0,0.0,5.8498,5.8048,5.7814,0.0,0.0,0.0,0.0,0.0,0.0,0.0,0.0,0.0,0.0,0.0,0.0,0.0,0.0,0.0,0.0,0.0,0.0,0.0,0.0,0.0,0.0,0.0,0.0,0.0,0.0,0.0,0.0,0.0,0.0,0.0,0.0,0.0,0.0,0.0,0.0,0.0,0.0,0.0,0.0,0.0,0.0,0.0,0.0,0.0,0.0,0.0,0.0,0.0,0.0,0.0,0.0,0.0,0.0,0.0,0.0,0.0,0.0,0.0,0.0,0.0,0.0,0.0,0.0,0.0,0.0,0.0,0.0,0.0,0.0,0.0,0.0,0.0,0.0,0.0,0.0,0.0,0.0,0.0,0.0,0.0,0.0,0.0,0.0,0.0,0.0,0.0,0.0,0.0,0.0,0.0,0.0,0.0,0.0,0.0,0.0,0.0,0.0,0.0,0.0,0.0,0.0,0.0,0.0,0.0,0.0,0.0,0.0,0.0,0.0,6.0184,6.0964,6.089,0.0,5.9621,0.0,0.0,0.0,0.0,0.0,0.0,0.0,0.0,0.0,0.0,0.0,0.0,0.0,0.0,0.0,0.0,0.0,0.0,0.0,0.0,0.0,0.0,0.0,0.0,0.0,0.0,0.0,0.0,0.0,0.0,0.0,0.0,0.0,0.0,0.0,0.0,0.0,0.0,0.0,0.0,0.0,0.0,0.0,0.0,0.0,0.0,0.0,0.0,0.0,0.0,0.0,0.0,0.0,0.0,0.0,0.0,0.0,0.0,0.0,0.0,0.0,0.0,0.0,0.0,0.0,0.0,0.0,0.0,0.0,0.0,0.0,0.0,0.0,0.0,0.0,0.0,0.0,0.0,0.0,0.0,0.0,0.0,0.0,0.0,0.0,0.0,0.0,0.0,0.0,0.0,0.0,0.0,0.0,0.0,0.0,0.0,0.0,0.0,0.0,0.0,0.0,0.0,0.0,0.0,0.0,0.0,0.0,0.0,0.0,0.0,6.0333,6.1187,6.0704,6.0035,0.0,0.0,0.0,0.0,0.0,0.0,0.0,0.0,0.0,0.0,0.0,0.0,0.0,0.0,0.0,0.0,0.0,0.0,0.0,0.0,0.0,0.0,0.0,0.0,0.0,0.0,0.0,0.0,0.0,0.0,0.0,0.0,0.0,0.0,0.0,0.0,0.0,0.0,0.0,0.0,0.0,0.0,0.0,0.0,0.0,0.0,0.0,0.0,0.0,0.0,0.0,0.0,0.0,0.0,0.0,0.0,0.0,0.0,0.0,0.0,0.0,0.0,0.0,0.0,0.0,0.0,0.0,0.0,0.0,0.0,0.0,0.0,0.0,0.0,0.0,0.0,0.0,0.0,0.0,0.0,0.0,0.0,0.0,0.0,0.0,0.0,0.0,0.0,0.0,0.0,0.0,0.0,0.0,0.0,0.0,0.0,0.0,0.0,0.0,0.0,0.0,0.0,0.0,0.0,0.0,0.0,0.0,0.0,0.0,0.0,6.0147,6.0778,6.1744,6.0815,5.9887,5.9069,0.0,0.0,0.0,0.0,0.0,0.0,0.0,0.0,0.0,0.0,0.0,0.0,0.0,0.0,0.0,0.0,0.0,0.0,0.0,0.0,0.0,0.0,0.0,0.0,0.0,0.0,0.0,0.0,0.0,0.0,0.0,0.0,0.0,0.0,0.0,0.0,0.0,0.0,0.0,0.0,0.0,0.0,0.0,0.0,0.0,0.0,0.0,0.0,0.0,0.0,0.0,0.0,0.0,0.0,0.0,0.0,0.0,0.0,0.0,0.0,0.0,0.0,0.0,0.0,0.0,0.0,0.0,0.0,0.0,0.0,0.0,0.0,0.0,0.0,0.0,0.0,0.0,0.0,0.0,0.0,0.0,0.0,0.0,0.0,0.0,0.0,0.0,0.0,0.0,0.0,0.0,0.0,0.0,0.0,0.0,0.0,0.0,0.0,0.0,0.0,0.0,0.0,0.0,0.0,0.0,0.0,0.0,0.0,5.985,6.0741,6.1893,6.3342,6.1967,6.0741,0.0,0.0,0.0,0.0,0.0,0.0,0.0,0.0,0.0,0.0,0.0,0.0,0.0,0.0,0.0,0.0,0.0,0.0,0.0,0.0,0.0,0.0,0.0,0.0,0.0,0.0,0.0,0.0,0.0,0.0,0.0,0.0,0.0,0.0,0.0,0.0,0.0,0.0,0.0,0.0,0.0,0.0,0.0,0.0,0.0,0.0,0.0,0.0,0.0,0.0,0.0,0.0,0.0,0.0,0.0,0.0,0.0,0.0,0.0,0.0,0.0,0.0,0.0,0.0,0.0,0.0,0.0,0.0,0.0,0.0,0.0,0.0,0.0,0.0,0.0,0.0,0.0,0.0,0.0,0.0,0.0,0.0,0.0,0.0,0.0,0.0,0.0,0.0,0.0,0.0,0.0,0.0,0.0,0.0,0.0,0.0,0.0,0.0,0.0,0.0,0.0,0.0,0.0,0.0,0.0,0.0,0.0,0.0,0.0,5.9887,6.1781,6.2784,6.2822,6.1781,6.0295,0.0,0.0,0.0,0.0,0.0,0.0,0.0,0.0,0.0,0.0,0.0,0.0,0.0,0.0,0.0,0.0,0.0,0.0,0.0,0.0,0.0,0.0,0.0,0.0,0.0,0.0,0.0,0.0,0.0,0.0,0.0,0.0,0.0,0.0,0.0,0.0,0.0,0.0,0.0,0.0,0.0,0.0,0.0,0.0,0.0,0.0,0.0,0.0,0.0,0.0,0.0,0.0,0.0,0.0,0.0,0.0,0.0,0.0,0.0,0.0,0.0,0.0,0.0,0.0,0.0,0.0,0.0,0.0,0.0,0.0,0.0,0.0,0.0,0.0,0.0,0.0,0.0,0.0,0.0,0.0,0.0,0.0,0.0,0.0,0.0,0.0,0.0,0.0,0.0,0.0,0.0,0.0,0.0,0.0,0.0,0.0,0.0,0.0,0.0,0.0,0.0,0.0,0.0,0.0,0.0,0.0,0.0,0.0,0.0,6.063,0.0,6.3713,6.3193,6.2153,6.0444,0.0,0.0,0.0,0.0,0.0,0.0,0.0,0.0,0.0,0.0,0.0,0.0,0.0,0.0,0.0,0.0,0.0,0.0,0.0,0.0,0.0,0.0,0.0,0.0,0.0,0.0,0.0,0.0,0.0,0.0,0.0,0.0,0.0,0.0,0.0,0.0,0.0,0.0,0.0,0.0,0.0,0.0,0.0,0.0,0.0,0.0,0.0,0.0,0.0,0.0,0.0,0.0,0.0,0.0,0.0,0.0,0.0,0.0,0.0,0.0,0.0,0.0,0.0,0.0,0.0,0.0,0.0,0.0,0.0,0.0,0.0,0.0,0.0,0.0,0.0,0.0,0.0,0.0,0.0,0.0,0.0,0.0,0.0,0.0,0.0,0.0,0.0,0.0,0.0,0.0,0.0,0.0,0.0,0.0,0.0,0.0,0.0,0.0,0.0,0.0,0.0,0.0,0.0,0.0,0.0,0.0,0.0,0.0,5.828,6.2301,6.4048,6.4939,6.4791,6.3305,6.1261,0.0,0.0,0.0,0.0,0.0,0.0,0.0,0.0,0.0,0.0,0.0,0.0,0.0,0.0,0.0,0.0,0.0,0.0,0.0,0.0,0.0,0.0,0.0,0.0,0.0,0.0,0.0,0.0,0.0,0.0,0.0,0.0,0.0,0.0,0.0,0.0,0.0,0.0,0.0,0.0,0.0,0.0,0.0,0.0,0.0,0.0,0.0,0.0,0.0,0.0,0.0,0.0,0.0,0.0,0.0,0.0,0.0,0.0,0.0,0.0,0.0,0.0,0.0,0.0,0.0,0.0,0.0,0.0,0.0,0.0,0.0,0.0,0.0,0.0,0.0,0.0,0.0,0.0,0.0,0.0,0.0,0.0,0.0,0.0,0.0,0.0,0.0,0.0,0.0,0.0,0.0,0.0,0.0,0.0,0.0,0.0,0.0,0.0,0.0,0.0,0.0,0.0,0.0,0.0,0.0,0.0,0.0,0.0,0.0,6.4865,6.7057,6.7651,6.6537,6.4939,6.2376,0.0,0.0,0.0,0.0,0.0,0.0,0.0,0.0,0.0,0.0,0.0,0.0,0.0,0.0,0.0,0.0,0.0,0.0,0.0,0.0,0.0,0.0,0.0,0.0,0.0,0.0,0.0,0.0,0.0,0.0,0.0,0.0,0.0,0.0,0.0,0.0,0.0,0.0,0.0,0.0,0.0,0.0,0.0,0.0,0.0,0.0,0.0,0.0,0.0,0.0,0.0,0.0,0.0,0.0,0.0,0.0,0.0,0.0,0.0,0.0,0.0,0.0,0.0,0.0,0.0,0.0,0.0,0.0,0.0,0.0,0.0,0.0,0.0,0.0,0.0,0.0,0.0,0.0,0.0,0.0,0.0,0.0,0.0,0.0,0.0,0.0,0.0,0.0,0.0,0.0,0.0,0.0,0.0,0.0,0.0,0.0,0.0,0.0,0.0,0.0,0.0,0.0,0.0,0.0,0.0,0.0,0.0,0.0,0.0,7.1812,7.2295,7.1998,7.0995,6.8766,6.5496,6.115,0.0,0.0,0.0,0.0,0.0,0.0,0.0,0.0,0.0,0.0,0.0,0.0,0.0,0.0,0.0,0.0,0.0,0.0,0.0,0.0,0.0,0.0,0.0,0.0,0.0,0.0,0.0,0.0,0.0,0.0,0.0,0.0,0.0,0.0,0.0,0.0,0.0,0.0,0.0,0.0,0.0,0.0,0.0,0.0,0.0,0.0,0.0,0.0,0.0,0.0,0.0,0.0,0.0,0.0,0.0,0.0,0.0,0.0,0.0,0.0,0.0,0.0,0.0,0.0,0.0,0.0,0.0,0.0,0.0,0.0,0.0,0.0,0.0,0.0,0.0,0.0,0.0,0.0,0.0,0.0,0.0,0.0,0.0,0.0,0.0,0.0,0.0,0.0,0.0,0.0,0.0,0.0,0.0,0.0,0.0,0.0,0.0,0.0,0.0,0.0,0.0,0.0,0.0,0.0,0.0,0.0,0.0,0.0,8.2326,7.9688,7.8128,7.757,7.4413,7.0289,0.0,0.0,0.0,0.0,0.0,0.0,0.0,0.0,0.0,0.0,0.0,0.0,0.0,0.0,0.0,0.0,0.0,0.0,0.0,0.0,0.0,0.0,0.0,0.0,0.0,0.0,0.0,0.0,0.0,0.0,0.0,0.0,0.0,0.0,0.0,0.0,0.0,0.0,0.0,0.0,0.0,0.0,0.0,0.0,0.0,0.0,0.0,0.0,0.0,0.0,0.0,0.0,0.0,0.0,0.0,0.0,0.0,0.0,0.0,0.0,0.0,0.0,0.0,0.0,0.0,0.0,0.0,0.0,0.0,0.0,0.0,0.0,0.0,0.0,0.0,0.0,0.0,0.0,0.0,0.0,0.0,0.0,0.0,0.0,0.0,0.0,0.0,0.0,0.0,0.0,0.0,0.0,0.0,0.0,0.0,0.0,0.0,0.0,0.0,0.0,0.0,0.0,0.0,0.0,0.0,0.0,0.0,0.0,0.0,8.7898,9.0982,8.9766,8.4299,8.0369,7.5142,0.0,0.0,0.0,0.0,0.0,0.0,0.0,0.0,0.0,0.0,0.0,0.0,0.0,0.0,0.0,0.0,0.0,0.0,0.0,0.0,0.0,0.0,0.0,0.0,0.0,0.0,0.0,0.0,0.0,0.0,0.0,0.0,0.0,0.0,0.0,0.0,0.0,0.0,0.0,0.0,0.0,0.0,0.0,0.0,0.0,0.0,0.0,0.0,0.0,0.0,0.0,0.0,0.0,0.0,0.0,0.0,0.0,0.0,0.0,0.0,0.0,0.0,0.0,0.0,0.0,0.0,0.0,0.0,0.0,0.0,0.0,0.0,0.0,0.0,0.0,0.0,0.0,0.0,0.0,0.0,0.0,0.0,0.0,0.0,0.0,0.0,0.0,0.0,0.0,0.0,0.0,0.0,0.0,0.0,0.0,0.0,0.0,0.0,0.0,0.0,0.0,0.0,0.0,0.0,0.0,0.0,0.0,0.0,8.4369,9.3917,9.8932,9.9273,9.4767,8.7794,8.0548,0.0,0.0,0.0,0.0,0.0,0.0,0.0,0.0,0.0,0.0,0.0,0.0,0.0,0.0,0.0,0.0,0.0,0.0,0.0,0.0,0.0,0.0,0.0,0.0,0.0,0.0,0.0,0.0,0.0,0.0,0.0,0.0,0.0,0.0,0.0,0.0,0.0,0.0,0.0,0.0,0.0,0.0,0.0,0.0,0.0,0.0,0.0,0.0,0.0,0.0,0.0,0.0,0.0,0.0,0.0,0.0,0.0,0.0,0.0,0.0,0.0,0.0,0.0,0.0,0.0,0.0,0.0,0.0,0.0,0.0,0.0,0.0,0.0,0.0,0.0,0.0,0.0,0.0,0.0,0.0,0.0,0.0,0.0,0.0,0.0,0.0,0.0,0.0,0.0,0.0,0.0,0.0,0.0,0.0,0.0,0.0,0.0,0.0,0.0,0.0,0.0,0.0,0.0,0.0,0.0,0.0,0.0,0.0,8.8938,9.9378,10.4393,10.673,10.6044,9.5651,8.6286,0.0,0.0,0.0,0.0,0.0,0.0,0.0,0.0,0.0,0.0,0.0,0.0,0.0,0.0,0.0,0.0,0.0,0.0,0.0,0.0,0.0,0.0,0.0,0.0,0.0,0.0,0.0,0.0,0.0,0.0,0.0,0.0,0.0,0.0,0.0,0.0,0.0,0.0,0.0,0.0,0.0,0.0,0.0,0.0,0.0,0.0,0.0,0.0,0.0,0.0,0.0,0.0,0.0,0.0,0.0,0.0,0.0,0.0,0.0,0.0,0.0,0.0,0.0,0.0,0.0,0.0,0.0,0.0,0.0,0.0,0.0,0.0,0.0,0.0,0.0,0.0,0.0,0.0,0.0,0.0,0.0,0.0,0.0,0.0,0.0,0.0,0.0,0.0,0.0,0.0,0.0,0.0,0.0,0.0,0.0,0.0,0.0,0.0,0.0,0.0,0.0,0.0,0.0,0.0,0.0,0.0,0.0,0.0,9.2839,10.2684,10.7737,11.0026,10.9666,10.0499,9.1412,0.0,0.0,0.0,0.0,0.0,0.0,0.0,0.0,0.0,0.0,0.0,0.0,0.0,0.0,0.0,0.0,0.0,0.0,0.0,0.0,0.0,0.0,0.0,0.0,0.0,0.0,0.0,0.0,0.0,0.0,0.0,0.0,0.0,0.0,0.0,0.0,0.0,0.0,0.0,0.0,0.0,0.0,0.0,0.0,0.0,0.0,0.0,0.0,5.45,0.0,0.0,0.0,0.0,0.0,0.0,0.0,0.0,0.0,0.0,0.0,0.0,0.0,0.0,0.0,0.0,0.0,0.0,0.0,0.0,0.0,0.0,0.0,0.0,0.0,0.0,0.0,0.0,0.0,0.0,0.0,0.0,0.0,0.0,0.0,0.0,0.0,0.0,0.0,0.0,0.0,0.0,0.0,0.0,0.0,0.0,0.0,0.0,0.0,0.0,0.0,0.0,0.0,0.0,0.0,0.0,0.0,0.0,0.0,9.6554,10.5433,11.0523,11.2517,11.1107,10.4085,9.5514,0.0,0.0,0.0,0.0,0.0,0.0,0.0,0.0,0.0,0.0,0.0,0.0,0.0,0.0,0.0,0.0,0.0,0.0,0.0,0.0,0.0,0.0,0.0,0.0,0.0,0.0,0.0,0.0,0.0,0.0,0.0,0.0,0.0,0.0,0.0,0.0,0.0,0.0,0.0,0.0,0.0,0.0,0.0,0.0,0.0,0.0,0.0,0.0,0.0,0.0,0.0,0.0,0.0,0.0,0.0,0.0,0.0,0.0,0.0,0.0,0.0,0.0,0.0,0.0,0.0,0.0,0.0,0.0,0.0,0.0,0.0,0.0,0.0,0.0,0.0,0.0,0.0,0.0,0.0,0.0,0.0,0.0,0.0,0.0,0.0,0.0,0.0,0.0,0.0,0.0,0.0,0.0,0.0,0.0,0.0,0.0,0.0,0.0,0.0,0.0,0.0,0.0,0.0,0.0,0.0,0.0,0.0,9.0416,9.979,10.766,11.2486,11.3836,11.1652,10.6149,9.8097,8.7325,0.0,0.0,0.0,0.0,0.0,0.0,0.0,0.0,0.0,0.0,0.0,0.0,0.0,0.0,0.0,0.0,0.0,0.0,0.0,0.0,0.0,0.0,0.0,0.0,0.0,0.0,0.0,0.0,0.0,0.0,0.0,0.0,0.0,0.0,0.0,0.0,0.0,0.0,5.6357,6.1336,0.0,0.0,0.0,0.0,0.0,0.0,0.0,0.0,6.2041,0.0,0.0,0.0,0.0,0.0,0.0,0.0,0.0,0.0,0.0,0.0,0.0,0.0,0.0,0.0,0.0,0.0,0.0,0.0,0.0,0.0,0.0,0.0,0.0,0.0,0.0,0.0,0.0,0.0,0.0,0.0,0.0,0.0,0.0,0.0,0.0,0.0,0.0,0.0,0.0,0.0,0.0,0.0,0.0,0.0,0.0,0.0,0.0,0.0,0.0,0.0,0.0,0.0,0.0,0.0,0.0,8.2839,9.289,10.1571,10.889,11.2586,11.3203,11.0551,10.506,9.7394,8.7325,0.0,0.0,0.0,0.0,0.0,0.0,0.0,0.0,0.0,0.0,0.0,0.0,0.0,0.0,0.0,0.0,0.0,0.0,0.0,0.0,0.0,0.0,0.0,0.0,0.0,0.0,0.0,0.0,0.0,0.0,0.0,0.0,0.0,0.0,0.0,0.0,0.0,0.0,0.0,6.7391,6.9732,0.0,0.0,0.0,0.0,0.0,0.0,0.0,0.0,6.5199,0.0,0.0,0.0,0.0,0.0,0.0,0.0,0.0,0.0,0.0,0.0,0.0,0.0,0.0,0.0,0.0,0.0,0.0,0.0,0.0,0.0,0.0,0.0,0.0,0.0,0.0,0.0,0.0,0.0,0.0,0.0,0.0,0.0,0.0,0.0,0.0,0.0,0.0,0.0,0.0,0.0,0.0,0.0,0.0,0.0,0.0,0.0,0.0,0.0,0.0,0.0,0.0,0.0,0.0,0.0,8.424,9.4517,10.2899,10.9215,11.2612,11.2823,10.9655,10.4169,9.6546,0.0,0.0,0.0,0.0,0.0,0.0,0.0,0.0,0.0,0.0,0.0,0.0,0.0,0.0,0.0,0.0,0.0,0.0,0.0,0.0,0.0,0.0,0.0,0.0,0.0,0.0,0.0,0.0,0.0,0.0,0.0,0.0,0.0,0.0,0.0,0.0,0.0,0.0,0.0,0.0,7.1106,7.3744,7.4635,0.0,0.0,0.0,0.0,0.0,0.0,7.0809,6.9992,0.0,0.0,0.0,0.0,0.0,0.0,0.0,0.0,0.0,0.0,0.0,0.0,0.0,0.0,0.0,0.0,0.0,0.0,0.0,0.0,0.0,0.0,0.0,0.0,0.0,0.0,0.0,0.0,0.0,0.0,0.0,0.0,0.0,0.0,0.0,0.0,0.0,0.0,0.0,0.0,0.0,0.0,0.0,0.0,0.0,0.0,0.0,0.0,0.0,0.0,0.0,0.0,0.0,0.0,0.0,8.55,9.5737,10.3776,10.9308,11.2184,11.2073,10.854,10.2954,9.5258,0.0,0.0,0.0,0.0,0.0,0.0,0.0,0.0,0.0,0.0,0.0,0.0,0.0,0.0,0.0,0.0,0.0,0.0,0.0,0.0,0.0,0.0,0.0,0.0,0.0,0.0,0.0,0.0,0.0,0.0,0.0,0.0,0.0,0.0,0.0,0.0,0.0,0.0,0.0,0.0,0.0,7.7273,7.9242,7.8388,0.0,0.0,0.0,0.0,7.6196,7.6047,0.0,0.0,0.0,0.0,0.0,0.0,0.0,0.0,0.0,0.0,0.0,0.0,0.0,0.0,0.0,0.0,0.0,0.0,0.0,0.0,0.0,0.0,0.0,0.0,0.0,0.0,0.0,0.0,0.0,0.0,0.0,0.0,0.0,0.0,0.0,0.0,0.0,0.0,0.0,0.0,0.0,0.0,0.0,0.0,0.0,0.0,0.0,0.0,0.0,0.0,0.0,0.0,0.0,0.0,0.0,0.0,8.7619,9.6835,10.4182,10.9656,11.0979,11.0023,10.6791,10.0546,9.2537,0.0,0.0,0.0,0.0,0.0,0.0,0.0,0.0,0.0,0.0,0.0,0.0,0.0,0.0,0.0,0.0,0.0,0.0,0.0,0.0,0.0,0.0,0.0,0.0,0.0,0.0,0.0,0.0,0.0,0.0,0.0,0.0,0.0,0.0,0.0,0.0,0.0,0.0,0.0,0.0,0.0,8.0171,8.3254,8.3514,8.2809,0.0,0.0,8.1285,8.2066,8.0951,0.0,0.0,0.0,0.0,0.0,0.0,0.0,0.0,0.0,0.0,0.0,0.0,0.0,0.0,0.0,0.0,0.0,0.0,0.0,0.0,0.0,0.0,0.0,0.0,0.0,0.0,0.0,0.0,0.0,0.0,0.0,0.0,0.0,0.0,0.0,0.0,0.0,0.0,0.0,0.0,0.0,0.0,0.0,0.0,0.0,0.0,0.0,0.0,0.0,0.0,0.0,0.0,0.0,0.0,0.0,7.7341,8.8023,9.6539,10.3366,10.8431,10.9423,10.8285,10.5018,9.9145,9.1436,0.0,0.0,0.0,0.0,0.0,0.0,0.0,0.0,0.0,0.0,0.0,0.0,0.0,0.0,0.0,0.0,0.0,0.0,0.0,0.0,0.0,0.0,0.0,0.0,0.0,0.0,0.0,0.0,0.0,0.0,0.0,0.0,0.0,0.0,0.0,0.0,0.0,0.0,0.0,0.0,0.0,0.0,8.6524,8.7973,0.0,0.0,0.0,8.7638,8.7935,0.0,0.0,0.0,0.0,0.0,0.0,0.0,0.0,0.0,0.0,0.0,0.0,0.0,0.0,0.0,0.0,0.0,0.0,0.0,0.0,0.0,0.0,0.0,0.0,0.0,0.0,0.0,0.0,0.0,0.0,0.0,0.0,0.0,0.0,0.0,0.0,0.0,0.0,0.0,0.0,0.0,0.0,0.0,0.0,0.0,0.0,0.0,0.0,0.0,0.0,0.0,0.0,0.0,0.0,0.0,0.0,0.0,8.839,9.6282,10.2669,10.7404,10.7991,10.6706,10.3623,9.7933,0.0,0.0,0.0,0.0,0.0,0.0,0.0,0.0,0.0,0.0,0.0,0.0,0.0,0.0,0.0,0.0,0.0,0.0,0.0,0.0,0.0,0.0,0.0,0.0,0.0,0.0,0.0,4.3503,0.0,0.0,0.0,0.0,0.0,0.0,0.0,0.0,0.0,0.0,0.0,0.0,0.0,0.0,8.3775,8.9681,9.2096,9.3322,0.0,0.0,9.2914,9.2951,9.1205,8.8233,0.0,0.0,0.0,0.0,0.0,0.0,0.0,0.0,0.0,0.0,0.0,0.0,0.0,0.0,0.0,0.0,0.0,0.0,0.0,0.0,0.0,0.0,0.0,0.0,0.0,0.0,0.0,0.0,0.0,0.0,0.0,0.0,0.0,0.0,0.0,0.0,0.0,0.0,0.0,0.0,0.0,0.0,0.0,0.0,0.0,0.0,0.0,0.0,0.0,0.0,0.0,0.0,0.0,0.0,0.0,8.9124,9.6539,10.2632,10.7367,10.689,10.5348,10.2779,9.6612,8.9417,0.0,0.0,0.0,0.0,0.0,0.0,0.0,0.0,0.0,0.0,0.0,0.0,0.0,0.0,0.0,0.0,0.0,0.0,0.0,0.0,0.0,0.0,0.0,0.0,0.0,0.0,0.0,0.0,0.0,0.0,0.0,0.0,0.0,0.0,0.0,0.0,0.0,0.0,0.0,0.0,0.0,8.6486,9.2988,9.596,9.7743,0.0,0.0,9.6294,9.6257,9.3619,8.9867,8.5038,0.0,0.0,0.0,0.0,0.0,0.0,0.0,0.0,0.0,0.0,0.0,0.0,0.0,0.0,0.0,0.0,0.0,0.0,0.0,0.0,0.0,0.0,0.0,0.0,0.0,0.0,0.0,0.0,0.0,0.0,0.0,0.0,0.0,0.0,0.0,0.0,0.0,0.0,0.0,0.0,0.0,0.0,0.0,0.0,0.0,0.0,0.0,0.0,0.0,0.0,0.0,0.0,0.0,7.7756,8.8536,9.5878,10.1677,10.5825,10.5752,10.443,10.2008,9.6685,9.0041,0.0,0.0,0.0,0.0,0.0,0.0,0.0,0.0,0.0,0.0,0.0,0.0,0.0,0.0,0.0,0.0,0.0,0.0,0.0,0.0,0.0,0.0,0.0,0.0,0.0,0.0,0.0,0.0,5.3385,5.4463,5.346,0.0,0.0,0.0,0.0,0.0,0.0,0.0,0.0,0.0,0.0,8.7527,9.4028,9.7483,0.0,0.0,9.9601,9.8709,9.8226,9.5365,9.1576,8.6672,8.0171,0.0,0.0,0.0,0.0,0.0,0.0,0.0,0.0,0.0,0.0,0.0,0.0,0.0,0.0,0.0,0.0,0.0,0.0,0.0,0.0,0.0,0.0,0.0,0.0,0.0,0.0,0.0,0.0,0.0,0.0,0.0,0.0,0.0,0.0,0.0,0.0,0.0,0.0,0.0,0.0,0.0,0.0,0.0,0.0,0.0,0.0,0.0,0.0,0.0,0.0,0.0,0.0,7.7422,8.7955,9.5248,10.0973,10.4934,10.4871,10.3806,10.1824,9.6942,9.0922,0.0,0.0,0.0,0.0,0.0,0.0,0.0,0.0,0.0,0.0,0.0,0.0,0.0,0.0,0.0,0.0,0.0,0.0,0.0,0.0,0.0,0.0,0.0,0.0,0.0,0.0,0.0,0.0,5.502,5.5354,5.3943,0.0,0.0,0.0,0.0,0.0,0.0,0.0,0.0,0.0,0.0,8.9533,9.5328,9.8746,10.0864,10.1421,10.0827,9.9935,9.8895,9.6183,9.2616,8.7935,0.0,0.0,0.0,0.0,0.0,0.0,0.0,0.0,0.0,0.0,0.0,0.0,0.0,0.0,0.0,0.0,0.0,0.0,0.0,0.0,0.0,0.0,0.0,0.0,0.0,0.0,0.0,0.0,0.0,0.0,4.4642,0.0,0.0,0.0,0.0,0.0,0.0,0.0,0.0,0.0,0.0,0.0,0.0,0.0,0.0,0.0,0.0,0.0,0.0,0.0,0.0,0.0,0.0,7.7,8.7486,9.5016,10.0729,10.4607,10.4274,10.3549,10.2558,9.7236,9.195,8.6811,0.0,0.0,0.0,0.0,0.0,0.0,0.0,0.0,0.0,0.0,0.0,0.0,0.0,0.0,0.0,0.0,0.0,0.0,0.0,0.0,0.0,0.0,0.0,0.0,0.0,0.0,5.5912,5.5503,5.4723,0.0,0.0,0.0,0.0,0.0,0.0,0.0,0.0,0.0,0.0,8.6895,9.3062,9.7223,9.9898,10.1421,10.1495,10.0789,9.9712,9.8152,9.5811,9.2802,0.0,0.0,0.0,0.0,0.0,0.0,0.0,0.0,0.0,0.0,0.0,0.0,0.0,0.0,0.0,0.0,0.0,0.0,0.0,0.0,0.0,0.0,0.0,0.0,0.0,0.0,0.0,5.4253,5.3602,0.0,0.0,0.0,0.0,0.0,0.0,0.0,0.0,0.0,0.0,0.0,6.903,6.8957,0.0,0.0,0.0,0.0,0.0,0.0,0.0,0.0,0.0,0.0,0.0,0.0,7.728,8.7303,9.4584,10.0396,10.4349,10.3778,10.318,10.2458,9.8028,9.1657,8.3287,0.0,0.0,0.0,0.0,0.0,0.0,0.0,0.0,0.0,0.0,0.0,0.0,0.0,0.0,0.0,0.0,0.0,0.0,0.0,0.0,0.0,0.0,0.0,0.0,0.0,5.5614,0.0,0.0,0.0,0.0,0.0,0.0,0.0,0.0,0.0,0.0,0.0,7.5973,8.3032,8.8938,9.3842,9.7409,9.9489,10.0715,0.0,0.0,0.0,0.0,0.0,0.0,0.0,0.0,0.0,0.0,0.0,0.0,0.0,0.0,7.6938,7.1494,7.0255,7.0029,7.0067,0.0,0.0,0.0,0.0,0.0,0.0,0.0,0.0,0.0,0.0,0.0,0.0,0.0,0.0,0.0,0.0,5.7811,0.0,0.0,0.0,0.0,0.0,0.0,0.0,0.0,7.0993,7.3926,7.637,7.665,7.6266,0.0,7.3112,6.8912,0.0,0.0,0.0,0.0,0.0,0.0,0.0,0.0,7.8099,8.7606,9.4638,10.0013,10.3799,10.3343,10.2862,10.2487,9.8233,9.1986,8.3765,7.761,7.1692,0.0,0.0,0.0,0.0,0.0,0.0,0.0,0.0,0.0,0.0,0.0,0.0,0.0,0.0,0.0,0.0,0.0,0.0,0.0,0.0,0.0,0.0,0.0,5.7992,0.0,0.0,0.0,0.0,0.0,0.0,0.0,0.0,0.0,6.8914,7.445,8.0691,8.6895,9.1502,9.5143,9.7557,0.0,0.0,0.0,0.0,0.0,0.0,0.0,9.4585,9.1836,9.0849,9.0031,8.8928,8.916,8.9367,8.8841,0.0,0.0,7.9905,7.8478,7.859,7.8853,7.9567,7.9942,7.9454,8.1069,8.2383,0.0,0.0,0.0,0.0,0.0,0.0,0.0,0.0,6.9421,6.9421,0.0,6.5654,0.0,0.0,0.0,0.0,0.0,6.3412,0.0,0.0,7.7459,8.0831,8.3612,8.4447,8.4064,8.2604,8.1075,7.9181,7.6496,6.6144,0.0,0.0,0.0,0.0,0.0,0.0,7.9501,8.8374,9.4946,9.9837,10.3178,10.2713,10.2515,10.2527,9.7852,9.3047,8.8426,8.2986,7.7989,7.3296,6.631,0.0,0.0,0.0,0.0,0.0,0.0,0.0,0.0,0.0,0.0,0.0,0.0,0.0,0.0,0.0,0.0,0.0,0.0,0.0,0.0,5.9441,0.0,0.0,0.0,0.0,0.0,0.0,0.0,0.0,0.0,0.0,7.5193,7.9985,8.5483,9.1056,0.0,0.0,0.0,0.0,9.9155,9.9229,9.9192,9.8932,9.8152,9.7966,9.7409,9.5811,0.0,0.0,9.4159,9.4805,9.545,9.5488,9.5967,9.4421,8.826,8.6872,8.6947,8.7828,8.8579,8.9217,8.9292,9.0193,9.1245,8.3604,0.0,0.0,0.0,0.0,7.2981,7.4947,7.7051,7.7278,7.7056,7.6139,7.2588,0.0,0.0,0.0,0.0,0.0,0.0,7.4774,7.9441,8.2725,8.556,8.7945,8.8706,8.8568,8.76,8.6632,8.507,8.2835,7.7615,7.1499,6.4882,0.0,0.0,0.0,0.0,8.2382,9.0036,9.5485,9.9908,10.3214,10.2251,10.0865,9.9252,9.7367,9.4737,9.1285,8.7557,8.3441,7.8885,7.3019,0.0,0.0,0.0,0.0,0.0,0.0,0.0,0.0,0.0,0.0,0.0,0.0,0.0,0.0,0.0,0.0,0.0,0.0,0.0,6.1967,6.3788,6.3788,0.0,0.0,0.0,0.0,0.0,0.0,0.0,0.0,0.0,8.4629,8.6969,8.9867,0.0,0.0,9.7817,9.8635,9.9452,10.0158,10.0752,0.0,0.0,0.0,9.9972,9.9452,9.8969,9.9469,10.0142,10.0805,10.1094,10.1345,10.1308,10.1405,10.0788,9.9092,9.5632,9.37,9.4459,9.5306,9.5705,9.5413,9.6501,9.7177,9.3778,8.6087,8.1224,7.9465,7.9982,8.119,8.2845,8.4639,8.4338,8.3925,8.3328,7.9496,7.6527,7.4119,7.1843,0.0,0.0,0.0,8.1155,8.5052,8.8053,9.0502,9.2364,9.3192,9.3123,9.2364,9.1364,9.0089,8.8464,8.5422,8.1124,7.5651,0.0,0.0,7.3856,7.9126,8.5139,9.1643,9.5964,9.9415,10.213,10.0792,9.9229,9.7388,9.6992,9.5549,9.2837,9.0554,8.7406,8.3226,7.838,7.2593,0.0,0.0,0.0,0.0,0.0,0.0,0.0,0.0,0.0,0.0,0.0,4.8296,5.019,0.0,0.0,0.0,5.9181,6.2859,6.6425,6.7503,0.0,0.0,0.0,0.0,0.0,0.0,0.0,7.7459,8.2326,8.6969,9.1167,9.3285,9.4883,9.622,9.7817,9.9155,9.9935,0.0,10.1198,10.2313,10.2498,10.2498,10.2498,10.235,10.2238,10.2311,10.3005,10.3731,10.4451,10.4696,10.48,10.48,10.4668,10.4571,10.4503,10.1794,9.9785,10.0171,10.0648,10.0901,10.058,10.1357,10.1683,10.1884,9.8711,9.164,8.8467,8.8191,8.8984,9.0123,9.1364,9.0601,9.0328,8.9985,8.6366,8.3851,8.2224,8.0155,0.0,8.1466,8.4466,8.7363,9.026,9.3123,9.5227,9.6607,9.7296,9.7296,9.6538,9.5193,9.4158,9.3227,9.0433,8.8639,8.7674,8.042,7.7685,7.9734,8.3369,8.798,9.3342,9.638,9.8654,10.0307,9.892,9.7526,9.6486,9.6291,9.5253,9.3216,9.1899,8.9642,8.6139,8.2323,7.7176,7.0424,0.0,0.0,0.0,0.0,0.0,0.0,0.0,0.0,0.0,0.0,0.0,0.0,0.0,0.0,0.0,6.4568,0.0,7.0066,7.0995,0.0,0.0,0.0,7.092,7.1812,7.5453,7.9428,8.3477,0.0,0.0,9.5291,0.0,9.9935,9.8449,9.9638,10.0864,10.1607,10.1793,10.2387,10.3947,10.4207,10.4207,10.4356,10.4839,10.5248,10.532,10.5798,10.6011,10.6182,10.6355,10.6423,10.649,10.6355,10.6113,10.6048,10.5683,10.5502,10.4712,10.4665,10.4728,10.4578,10.4638,10.4368,10.516,10.3746,10.0745,9.7503,9.4434,9.5193,9.6055,9.6814,9.6124,9.5503,9.471,9.2123,8.9502,8.6949,8.6432,8.6674,8.7674,9.0088,9.2226,9.4054,9.5365,9.6469,9.74,9.7607,9.7572,9.7365,9.7055,9.6469,9.5641,9.3847,9.2502,9.1606,8.8673,8.6532,8.5496,8.832,9.1507,9.5152,9.728,9.8611,9.9249,9.8023,9.6493,9.4953,9.3904,9.2728,9.1439,8.9654,8.7986,8.6281,8.2847,7.8588,7.3495,6.7963,0.0,0.0,0.0,0.0,0.0,0.0,0.0,0.0,0.0,5.3274,5.6952,0.0,6.2153,0.0,6.988,7.3261,7.4264,7.5676,0.0,0.0,7.6753,7.8685,8.0134,8.2771,8.6078,9.0202,9.2765,9.5254,9.7892,10.0492,10.2015,10.1644,10.2461,10.3204,10.339,10.3947,10.469,10.5582,10.5805,10.6065,10.6548,10.6882,10.6846,10.6511,10.6956,10.7549,10.7834,10.7974,10.8043,10.8149,10.8043,10.7904,10.7797,10.7549,10.7329,10.7068,10.6208,10.5422,10.5525,10.5108,10.4397,10.7643,10.6574,10.5712,10.347,10.0539,9.9952,9.9918,10.0228,9.9504,9.8952,9.84,9.6124,9.3813,9.1675,9.1606,9.2019,9.2847,9.4744,9.6262,9.7434,9.8538,9.9262,9.9676,9.9331,9.9193,9.9159,9.8504,9.7952,9.7469,9.6365,9.54,9.4606,9.3744,9.2537,9.1054,9.1677,9.3407,9.6035,9.7467,9.7965,9.7454,9.5996,9.4483,9.2841,9.1445,9.0019,8.8478,8.7376,8.6199,8.4753,8.2751,7.9719,7.555,7.0739,6.5541,0.0,0.0,0.0,0.0,0.0,0.0,0.0,0.0,0.0,0.0,0.0,6.7168,7.0772,7.4858,7.7496,7.7942,8.0134,8.1063,7.9948,8.2288,8.448,8.5781,8.8418,9.1242,9.4251,9.6369,9.8375,10.0455,10.2498,10.3984,10.4282,10.5062,10.547,10.5173,10.547,10.6028,10.6808,10.6956,10.7068,10.7551,10.7625,10.7439,10.7219,10.7517,10.7963,10.8325,10.8396,10.8574,10.8712,10.8712,10.8574,10.8466,10.8291,10.7962,10.7293,10.6288,10.5506,10.5649,10.5048,10.4259,10.9368,10.8057,10.7954,10.7126,10.5747,10.3539,10.2573,10.2435,10.1677,10.1297,10.109,9.9021,9.7365,9.6124,9.6124,9.6469,9.7158,9.8573,9.9573,10.0228,10.1573,10.2194,10.216,10.1401,10.109,10.1021,9.9607,9.8917,9.8883,9.8193,9.7434,9.6676,9.6572,9.6124,9.5365,9.4054,9.4399,9.6469,9.7158,9.696,9.5729,9.3763,9.2091,9.0717,8.8967,8.7055,8.5082,8.4729,8.3877,8.2354,8.1818,8.0121,7.6781,7.3038,6.8624,0.0,6.1152,0.0,0.0,0.0,0.0,0.0,0.0,0.0,0.0,6.936,7.2666,7.6716,7.9651,8.1397,8.162,8.4406,8.5669,8.4406,8.6969,8.9236,9.0202,9.2876,9.5328,9.7037,9.9155,10.105,10.261,10.4282,10.5508,10.6176,10.6882,10.7142,10.6696,10.6548,10.6808,10.7551,10.7625,10.7551,10.7625,10.7625,10.7588,10.7588,10.774,10.7963,10.8182,10.8325,10.8504,10.8749,10.8818,10.8712,10.8574,10.825,10.7736,10.6956,10.5805,10.5099,10.5134,10.4645,10.397,10.9644,10.8782,10.8161,10.7747,10.7333,10.5678,10.4608,10.3988,10.3194,10.2539,10.1884,10.0883,10.0263,10.0021,9.9987,10.009,10.0263,10.1159,10.1608,10.178,10.2056,10.2194,10.2125,10.1435,10.109,10.1021,10.0125,9.9676,9.9676,9.8917,9.8193,9.7434,9.6814,9.6124,9.5434,0.0,0.0,0.0,9.6641,9.6296,9.5475,9.348,9.1576,8.9588,8.6487,0.0,8.294,8.0901,7.9732,7.9717,7.8952,0.0,0.0,0.0,0.0,0.0,0.0,0.0,0.0,0.0,0.0,0.0,7.5473,7.4635,7.1478,7.5081,7.9354,8.3292,8.4295,8.5223,8.6598,8.8418,8.9459,8.9273,9.1465,9.3619,9.5068,9.6406,9.804,10.0307,10.1012,10.1904,10.3539,10.4616,10.5508,10.6362,10.7105,10.7514,10.7402,10.7328,10.7439,10.7588,10.7625,10.7625,10.7625,10.7625,10.7625,10.7625,10.7588,10.7815,10.8147,10.8219,10.8433,10.8712,10.878,10.878,10.8712,10.7909,10.721,10.6952,10.5469,10.4244,10.4281,10.3612,10.298,11.0644,0.0,10.9196,10.8609,0.0,10.7092,10.6091,10.4988,10.4194,10.3436,10.2711,10.2332,10.1953,10.1608,10.1642,10.1642,10.1642,10.2401,10.2746,10.2746,10.3125,10.3332,10.3298,10.216,10.1642,10.1573,10.0435,9.9883,9.9883,9.9504,9.878,9.7676,9.7296,9.6503,9.5434,9.54,9.5572,9.5951,9.5951,9.54,9.4227,9.2126,9.0088,8.7835,0.0,0.0,0.0,0.0,0.0,0.0,0.0,0.0,0.0,0.0,0.0,7.386,7.3439,7.346,7.4015,7.5384,7.7385,8.02,8.2431,8.2177,7.8462,8.162,8.4592,8.6635,8.827,8.9421,8.9867,9.1725,9.2914,9.3025,9.4771,9.6517,9.7706,9.8932,10.0121,10.131,10.2238,10.3241,10.443,10.5285,10.6102,10.6882,10.7328,10.7625,10.7625,10.7625,10.7625,10.7625,10.7625,10.7625,10.7625,10.7625,10.7625,10.7625,10.7625,10.7777,10.8147,10.8182,10.8362,10.8712,10.878,10.878,10.8568,10.776,10.6874,10.6246,10.506,10.3836,10.3464,10.3019,10.2721,11.161,11.0403,11.0265,10.9471,10.8299,10.8023,10.7023,10.5574,0.0,0.0,0.0,10.3505,10.316,10.2608,10.2573,10.2608,10.2642,10.3229,10.3505,10.3539,10.416,10.447,10.4401,10.2918,10.2194,10.2125,10.0608,9.9883,9.9883,9.9883,9.9124,9.7814,9.7676,9.6917,9.5503,9.54,9.54,9.54,9.54,9.4641,9.3123,9.1157,8.9019,8.6843,8.4223,8.2022,8.0177,7.9035,7.8248,7.7921,7.7937,7.8239,7.8853,7.8384,7.8078,7.7907,7.819,7.8867,8.0051,8.1157,8.3004,8.562,8.8058,8.8381,8.6078,8.7638,8.8938,8.931,9.1725,9.2988,9.2616,9.4511,9.5923,9.6034,9.7409,9.8635,9.9489,10.0641,10.1532,10.2015,10.3167,10.4393,10.5285,10.5953,10.6696,10.7402,10.7588,10.7625,10.7625,10.7625,10.7625,10.7625,10.7625,10.7625,10.7625,10.7625,10.7625,10.7625,10.7625,10.774,10.8036,10.8182,10.8325,10.8574,10.8712,10.8643,10.8429,10.7469,10.6541,10.5689,10.4577,10.3576,10.2907,10.2721,10.2684,11.192,11.1092,11.0472,11.0092,10.9782,10.8471,10.7057,10.5574,10.4815,10.4401,10.4298,10.4298,10.4263,10.4125,10.416,10.4125,10.416,10.4263,10.4298,0.0,10.4436,10.447,10.4367,10.2884,10.2194,10.2056,10.0642,9.9883,9.9883,9.9883,9.9124,9.7848,9.7676,9.6917,9.5503,9.54,9.54,9.54,9.54,9.4641,9.3123,9.2157,9.0676,8.8565,8.5846,8.4112,8.3285,8.1083,7.9752,7.9693,7.9462,7.9429,7.9849,8.0541,8.0802,8.062,8.178,8.3083,8.4308,8.5943,8.8492,9.2135,9.3634,9.3657,9.1948,9.1428,9.2096,9.4065,9.4214,9.4585,9.5774,9.6889,9.7817,9.8486,9.9378,10.0269,10.1012,10.1347,10.209,10.339,10.3836,10.4616,10.5916,10.6325,10.6771,10.7402,10.7625,10.7625,10.7625,10.7625,10.7625,10.7625,10.7625,10.7625,10.7625,10.7625,10.7625,10.7625,10.7625,10.7701,10.7889,10.8036,10.8219,10.8291,10.8396,10.8396,10.8179,10.6877,10.5875,10.5356,10.4131,10.2944,10.2721,10.2684,10.2684,11.2989,11.1851,11.1127,11.0541,11.0023,10.854,10.7264,10.6195,10.5436,10.485,10.4505,10.447,10.447,10.447,10.447,10.447,10.447,10.447,10.447,10.447,10.447,10.447,10.4367,10.3332,10.2573,10.2125,10.109,10.0332,9.9918,9.9883,9.9331,9.8297,9.7469,9.6676,9.602,9.5606,9.54,9.54,9.4986,9.4434,9.3744,9.2157,9.064,8.9397,8.672,8.5028,8.4484,8.2769,8.1661,8.1203,8.1021,8.132,8.2281,8.2763,8.351,8.4629,8.5789,8.6996,8.8174,9.0154,9.2389,9.4844,9.5981,9.6713,9.6825,9.5298,9.5031,9.6591,9.6777,9.7334,9.8486,9.8969,9.9526,10.0344,10.0752,10.1272,10.1978,10.2164,10.2647,10.3799,10.4393,10.5099,10.6251,10.6771,10.7142,10.7588,10.7625,10.7625,10.7625,10.7625,10.7625,10.7625,10.7625,10.7625,10.7625,10.7625,10.7625,10.7625,10.7625,10.7664,10.7815,10.7963,10.8036,10.8182,10.8254,10.8067,10.7514,10.6397,10.5467,10.4614,10.3686,10.2796,10.2684,10.2684,10.2684,11.3921,11.2645,11.1886,11.1024,11.0023,10.8713,10.7712,10.6919,10.6022,10.5298,10.4746,10.4539,10.447,10.447,10.447,10.447,10.447,10.447,10.447,10.447,10.447,10.447,10.4401,10.3677,10.2987,10.2366,10.1677,10.0918,10.0228,10.0159,9.9676,9.8745,9.7434,9.6676,9.6503,9.5917,9.5572,9.5365,9.4848,9.4468,9.4227,9.233,9.0985,9.0088,8.8108,8.6664,8.6038,8.4901,8.3981,8.3419,8.3033,8.3367,8.45,8.4713,8.5727,8.7608,8.848,8.959,9.1088,9.329,9.5107,9.629,9.7322,9.8503,9.9575,9.8349,9.7636,9.8375,9.8932,9.9638,10.0344,10.0529,10.0901,10.1644,10.1755,10.2015,10.261,10.287,10.3316,10.417,10.4987,10.5805,10.6548,10.7217,10.7588,10.7588,10.7625,10.7625,10.7625,10.7625,10.7625,10.7625,10.7625,10.7625,10.7625,10.7625,10.7625,10.7625,10.7625,10.7664,10.7815,10.7815,10.7889,10.8036,10.7923,10.7551,10.6771,10.5767,10.4912,10.4207,10.3316,10.2721,10.2684,10.2684,10.2684,11.4231,11.3403,11.261,11.1472,11.0127,10.9265,10.8471,10.7643,10.6298,10.5609,10.5436,10.4781,10.4505,10.447,10.447,10.447,10.447,10.447,10.447,10.447,10.447,10.447,10.4401,10.3677,10.3263,10.3091,10.2435,10.1677,10.0918,10.0883,10.0194,9.8849,9.7952,9.7227,9.6607,9.6434,9.6055,9.54,9.5331,9.4951,9.4296,9.3365,9.2537,9.1813,9.064,9.004,8.9692,8.833,8.7386,8.7211,8.5912,8.53,8.5745,8.6434,8.6983,8.7515,8.826,8.9521,9.1721,9.4286,9.6289,9.7295,9.8378,9.9274,9.9721,9.9575,9.9612,10.0015,10.0232,10.0567,10.131,10.1421,10.1793,10.2498,10.2647,10.2647,10.287,10.3427,10.4207,10.4987,10.5768,10.6585,10.7254,10.7551,10.7625,10.7625,10.7625,10.7625,10.7625,10.7625,10.7625,10.7625,10.7625,10.7625,10.7625,10.7625,10.7625,10.7625,10.7625,10.7625,10.7701,10.774,10.7889,10.7702,10.7219,10.6772,10.6251,10.5248,10.4244,10.3836,10.3241,10.2684,10.2684,10.2684,10.2684,11.4679,11.3541,11.2748,11.1541,11.0196,10.9816,10.9023,10.785,10.7264,10.6471,10.5643,10.5298,10.4919,10.447,10.447,10.447,10.447,10.447,10.447,10.447,10.447,10.447,10.4436,10.416,10.3746,10.3298,10.2987,10.2229,10.1159,10.0608,10.0056,9.9435,9.8711,9.8159,9.7779,9.6952,9.6331,9.6055,9.5606,9.5227,9.4917,9.4192,9.3434,9.2571,9.1577,9.0707,9.0423,8.9563,8.8846,8.8545,8.7492,8.7198,8.7931,8.7826,8.8234,8.9427,9.0758,9.2169,9.3693,9.5518,9.7015,9.8033,9.8984,9.9895,10.0929,10.1439,10.1895,10.2308,10.15,10.1202,10.2054,10.2684,10.313,10.3464,10.3873,10.417,10.4207,10.4467,10.5025,10.5805,10.6213,10.6734,10.7402,10.7625,10.7625,10.7625,10.7625,10.7625,10.7625,10.7625,10.7625,10.7625,10.7625,10.7625,10.7625,10.7625,10.7625,10.7625,10.7625,10.7625,10.7625,10.7701,10.7664,10.7625,10.692,10.6251,10.573,10.4876,10.391,10.3501,10.313,10.2684,10.2684,10.2684,10.2684,11.4955,11.361,11.2955,11.1955,11.0748,11.0575,10.9747,10.854,10.8126,10.7264,10.6264,10.5815,10.5333,10.4815,10.4574,10.447,10.447,10.447,10.447,10.447,10.447,10.447,10.447,10.447,10.4194,10.3677,10.3608,10.2849,10.1401,10.0332,9.9883,9.978,9.9331,9.8986,9.8711,9.7607,9.6917,9.6469,9.5951,9.5606,9.5331,9.4882,9.4227,9.3399,9.2442,9.1576,9.1154,9.0723,9.015,8.9669,8.8931,8.885,8.953,8.9072,8.9447,9.0975,9.2684,9.3971,9.4728,9.6158,9.7422,9.8506,9.9294,10.0369,10.1706,10.2463,10.3054,10.3631,10.2665,10.2311,10.3094,10.3799,10.4133,10.4022,10.4467,10.4876,10.4839,10.5025,10.547,10.6251,10.6622,10.6919,10.7439,10.7625,10.7625,10.7625,10.7625,10.7625,10.7625,10.7625,10.7625,10.7625,10.7625,10.7625,10.7625,10.7625,10.7625,10.7625,10.7625,10.7625,10.7625,10.7625,10.7625,10.7514,10.6734,10.5991,10.5359,10.4542,10.3576,10.2981,10.2684,10.2684,10.2684,10.2684,10.2684,11.4955,11.3679,11.3541,11.2989,11.2231,11.1506,11.0782,10.9851,10.8575,10.785,10.7506,10.6333,10.5609,10.5471,10.485,10.4505,10.447,10.447,10.447,10.447,10.447,10.447,10.447,10.447,10.4436,10.4332,10.4298,10.3539,10.2056,10.0608,9.9883,9.9883,9.9814,9.9469,9.8917,9.8676,9.7952,9.6779,9.6469,9.6124,9.5503,9.5365,9.4951,9.4227,9.3615,9.3103,9.2685,9.2123,9.1655,9.1213,9.0511,9.0125,9.016,9.016,9.0511,9.1416,9.3052,9.3996,9.4376,9.61,9.7587,9.8491,9.9551,10.0622,10.1787,10.2079,10.2551,10.3081,10.3303,10.3577,10.4297,10.4606,10.4538,10.3945,10.3984,10.4319,10.4244,10.5099,10.5582,10.6362,10.7068,10.7439,10.7588,10.7625,10.7625,10.7625,10.7625,10.7625,10.7625,10.7625,10.7625,10.7625,10.7625,10.7625,10.7625,10.7625,10.7625,10.7625,10.7625,10.7625,10.7625,10.7625,10.7625,10.7291,10.6251,10.547,10.4987,10.4207,10.3241,10.2684,10.2684,10.2684,10.2684,10.2684,10.2684,11.4955,11.361,11.3576,11.3127,11.2369,11.161,11.0886,11.0127,10.9092,10.8333,10.7885,10.7299,10.654,10.5609,10.5333,10.4919,10.4505,10.447,10.447,10.447,10.447,10.447,10.447,10.447,10.447,10.447,10.447,10.3677,10.216,10.0642,9.9883,9.9883,9.9883,9.9745,9.9469,9.9021,9.8469,9.7917,9.7055,9.6365,9.6055,9.5641,9.5262,9.4986,9.437,9.3933,9.3625,9.338,9.3062,9.2828,9.2056,9.167,9.1705,9.2126,9.2477,9.2863,9.4333,9.5176,9.5453,9.7058,9.8248,9.8632,9.974,10.0784,10.1721,10.2191,10.2752,10.3524,10.3982,10.4434,10.5022,10.5392,10.5383,10.5353,10.5726,10.6025,10.6249,10.6585,10.6882,10.7142,10.7477,10.7588,10.7625,10.7625,10.7625,10.7625,10.7625,10.7625,10.7625,10.7625,10.7625,10.7625,10.7625,10.7625,10.7625,10.7625,10.7625,10.7625,10.7625,10.7625,10.7625,10.7625,10.7625,10.7402,10.6251,10.5136,10.4727,10.3836,10.287,10.2684,10.2684,10.2684,10.2684,10.2684,10.2684,11.4748,11.3679,11.3576,11.3127,11.2369,11.1644,11.0886,11.0161,10.9368,10.8747,10.8299,10.8023,10.7195,10.6057,10.5747,10.5195,10.4539,10.447,10.447,10.447,10.447,10.447,10.447,10.447,10.447,10.4436,10.4194,10.3401,10.2194,10.0883,10.0159,9.9918,9.9883,9.9883,9.978,9.9366,9.9055,9.8607,9.7538,9.6779,9.6469,9.5779,9.54,9.5331,9.4917,9.4587,9.4391,9.4356,9.4181,9.3957,9.3495,9.325,9.3285,9.3706,9.3987,9.4127,9.5181,9.6058,9.6409,9.774,9.8793,9.9321,10.0126,10.0933,10.1744,10.2223,10.2809,10.3697,10.4096,10.4572,10.5234,10.5534,10.5716,10.6007,10.6497,10.6986,10.714,10.7179,10.7291,10.7514,10.7588,10.7625,10.7625,10.7625,10.7625,10.7625,10.7625,10.7625,10.7625,10.7625,10.7625,10.7625,10.7625,10.7625,10.7625,10.7625,10.7625,10.7625,10.7625,10.7625,10.7625,10.7625,10.7551,10.7291,10.6511,10.5322,10.4282,10.339,10.2981,10.2758,10.2684,10.2684,10.2684,10.2684,10.2684,11.43,11.3645,11.3576,11.3162,11.2369,11.161,11.0886,11.0127,10.9368,10.8954,10.8816,10.8264,10.7506,10.6678,10.5988,10.5264,10.4574,10.447,10.447,10.447,10.447,10.447,10.447,10.447,10.447,10.4436,10.3712,10.2953,10.2263,10.1401,10.0642,10.0056,9.9918,9.9883,9.9883,9.978,9.9504,9.8849,9.8021,9.7262,9.6538,9.5813,9.54,9.54,9.5331,9.5205,9.505,9.5122,9.4949,9.4799,9.4759,9.4794,9.4619,9.4724,9.4794,9.497,9.5602,9.6339,9.7112,9.7989,9.9288,10.0167,10.0552,10.1082,10.1823,10.207,10.2455,10.3143,10.3544,10.3999,10.4702,10.4999,10.5422,10.5804,10.6118,10.639,10.6433,10.6511,10.6734,10.7363,10.7549,10.7588,10.7588,10.7625,10.7625,10.7625,10.7625,10.7625,10.7625,10.7625,10.7625,10.7625,10.7625,10.7625,10.7625,10.7625,10.7625,10.7625,10.7625,10.7625,10.7625,10.7625,10.7625,10.7365,10.6251,10.5062,10.3687,10.287,10.287,10.2684,10.2684,10.2684,10.2684,10.2684,10.2684,11.4748,11.3645,11.3576,11.3127,11.2369,11.161,11.0886,11.0092,10.9333,10.9023,10.8989,10.8782,10.7954,10.6919,10.6436,10.5678,10.4539,10.447,10.447,10.447,10.447,10.447,10.447,10.447,10.447,10.4332,10.3677,10.3194,10.2746,10.1711,10.0918,10.0676,10.0159,9.9918,9.9883,9.9883,9.9745,9.9435,9.8331,9.7538,9.7193,9.6055,9.54,9.54,9.54,9.5482,9.56,9.5746,9.5681,9.5295,9.5465,9.5321,9.5005,9.5286,9.5813,9.6374,9.7112,9.7884,9.8656,9.9394,10.0026,10.0623,10.1044,10.1395,10.1749,10.1819,10.2033,10.2457,10.2594,10.3006,10.3804,10.4096,10.4706,10.6019,10.6185,10.6394,10.6677,10.6793,10.6941,10.7126,10.7316,10.7394,10.7434,10.7472,10.7549,10.7549,10.7625,10.7625,10.7625,10.7625,10.7625,10.7625,10.7625,10.7625,10.7625,10.7625,10.7625,10.7625,10.7625,10.7625,10.7625,10.7625,10.7625,10.7031,10.5916,10.4727,10.3353,10.2684,10.2684,10.2684,10.2684,10.2684,10.2684,10.2684,10.2684,11.4955,11.3645,11.3576,11.2955,11.2024,11.1506,11.0679,10.9747,10.923,10.9023,10.9023,10.9023,10.8333,10.7368,10.7161,10.6298,10.4988,10.4919,10.4746,10.4505,10.447,10.447,10.447,10.447,10.447,10.4401,10.3953,10.3574,10.3229,10.2366,10.1642,10.1056,10.0573,10.0159,9.9918,9.9883,9.9883,9.9676,9.8435,9.7676,9.7365,9.6193,9.54,9.54,9.54,9.5475,9.5695,9.6021,9.6098,9.603,9.6237,9.6129,9.5742,9.6129,9.6725,9.7463,9.8024,9.8692,9.971,10.0236,10.0763,10.1044,10.1465,10.1676,10.1746,10.1886,10.2241,10.2456,10.2845,10.3164,10.3743,10.3838,10.4384,10.5181,10.5714,10.6218,10.6636,10.6718,10.68,10.68,10.6962,10.7042,10.7237,10.7316,10.7357,10.7394,10.7472,10.7472,10.7511,10.7549,10.7549,10.7625,10.7625,10.7625,10.7625,10.7625,10.7625,10.7625,10.7625,10.7625,10.7625,10.7588,10.7551,10.6548,10.547,10.4542,10.3241,10.2833,10.2684,10.2684,10.2684,10.2684,10.2684,10.2684,10.2684,11.4955,11.3714,11.361,11.2783,11.1541,11.1368,11.0541,10.9299,10.9023,10.9023,10.9023,10.9023,10.8575,10.8023,10.7781,10.6988,10.5884,10.554,10.5195,10.4712,10.4539,10.447,10.447,10.447,10.447,10.447,10.4401,10.4057,10.3505,10.316,10.2608,10.147,10.1125,10.0711,10.0159,9.9952,9.9883,9.9676,9.8435,9.7676,9.7572,9.6158,9.54,9.54,9.54,9.54,9.551,9.5878,9.6307,9.666,9.6903,9.6971,9.7041,9.7112,9.7393,9.82,9.834,9.9253,10.0271,10.0763,10.1009,10.1535,10.1641,10.1676,10.1746,10.2308,10.2838,10.309,10.3724,10.4224,10.4011,10.3902,10.3993,10.385,10.4722,10.5575,10.601,10.6096,10.6133,10.635,10.6517,10.6636,10.68,10.6881,10.6962,10.7042,10.7121,10.72,10.7279,10.7357,10.7511,10.7549,10.7549,10.7549,10.7549,10.7625,10.7625,10.7625,10.7625,10.7625,10.7625,10.7588,10.7105,10.6102,10.5285,10.4319,10.3464,10.2944,10.2684,10.2684,10.2684,10.2684,10.2684,10.2684,10.2684,11.5266,11.4369,11.3852,11.3024,11.2093,11.1575,11.0748,10.9816,10.923,10.9058,10.9023,10.9023,10.8609,10.7954,10.7919,10.7333,10.654,10.5919,10.5574,10.5264,10.4677,10.4505,10.447,10.447,10.447,10.447,10.447,10.4367,10.4125,10.3608,10.3091,10.2711,10.1573,10.1021,10.0745,10.0159,9.9918,9.9676,9.8435,9.7676,9.7434,9.6227,9.54,9.54,9.54,9.54,9.551,9.5912,9.6414,9.6904,9.7008,9.7112,9.7112,9.7147,9.7673,9.8797,9.9148,9.978,10.1009,10.1395,10.15,10.1641,10.1676,10.1676,10.1746,10.2448,10.2834,10.3119,10.3647,10.3932,10.3587,10.3482,10.341,10.3285,10.3866,10.4499,10.4722,10.4815,10.5035,10.5126,10.5575,10.5838,10.601,10.6218,10.6507,10.659,10.6792,10.6947,10.7176,10.7269,10.7422,10.7353,10.7394,10.7472,10.7549,10.7625,10.7625,10.7625,10.7625,10.7625,10.7625,10.7625,10.6734,10.5693,10.5396,10.4616,10.3539,10.2721,10.2684,10.2684,10.2684,10.2684,10.2684,10.2684,10.2684,11.5369,11.4645,11.3921,11.3127,11.2403,11.1955,11.1161,11.023,10.9713,10.9299,10.9092,10.9023,10.8782,10.8402,10.8368,10.7954,10.723,10.6781,10.6402,10.5953,10.5333,10.4815,10.4574,10.447,10.447,10.447,10.447,10.447,10.4401,10.3988,10.3643,10.3091,10.2125,10.1401,10.0987,10.0297,9.9883,9.9676,9.8711,9.8021,9.7607,9.6503,9.5744,9.5503,9.54,9.551,9.5695,9.6093,9.6448,9.7008,9.7112,9.7112,9.7112,9.7112,9.7849,9.9253,9.9394,10.0061,10.1325,10.1676,10.1676,10.1676,10.1676,10.1676,10.1851,10.2448,10.2905,10.2975,10.3572,10.3647,10.3228,10.2806,10.2598,10.2492,10.2766,10.3273,10.3671,10.3902,10.3999,10.4192,10.4478,10.4815,10.4943,10.5307,10.5757,10.6152,10.651,10.6902,10.7294,10.7336,10.7324,10.7368,10.7311,10.7279,10.7434,10.7511,10.7625,10.7625,10.7625,10.7625,10.7625,10.7551,10.6696,10.5842,10.547,10.4839,10.365,10.2796,10.2684,10.2684,10.2684,10.2684,10.2684,10.2684,10.2684,11.5404,11.4748,11.3955,11.3196,11.261,11.2438,11.1679,11.061,11.0196,10.9747,10.9265,10.9058,10.8989,10.9023,10.8885,10.8609,10.8023,10.7747,10.7264,10.6678,10.6022,10.5471,10.4988,10.4574,10.4505,10.447,10.447,10.447,10.4436,10.4401,10.4091,10.347,10.2711,10.1918,10.1332,10.0504,10.0021,9.978,9.909,9.8435,9.7883,9.709,9.6434,9.602,9.5917,9.6076,9.6264,9.6375,9.6588,9.7112,9.7112,9.7112,9.7112,9.7112,9.7884,9.9043,9.9464,10.0061,10.136,10.1676,10.1676,10.1676,10.1676,10.1676,10.1851,10.2518,10.315,10.315,10.3782,10.3923,10.315,10.2308,10.1924,10.1891,10.1784,10.2211,10.2904,10.3208,10.3309,10.3509,10.3608,10.3706,10.3974,10.4336,10.4816,10.5916,10.6305,10.6671,10.698,10.7044,10.7208,10.7473,10.7316,10.7121,10.7279,10.7434,10.7511,10.7625,10.7625,10.7625,10.7625,10.7402,10.6734,10.6102,10.5582,10.4727,10.3539,10.2981,10.2758,10.2684,10.2684,10.2684,10.2684,10.2684,10.2684,11.5714,11.5473,11.4162,11.3507,11.3265,11.2679,11.2231,11.1817,11.0703,11.022,10.9816,10.9299,10.9058,10.9023,10.9023,10.8885,10.8644,10.8195,10.7506,10.6781,10.6609,10.6436,10.5953,10.516,10.4539,10.4539,10.4505,10.447,10.447,10.447,10.4401,10.4125,10.3332,10.2677,10.1918,10.1125,10.047,9.9883,9.9193,9.878,9.8435,9.7814,9.7296,9.7055,9.7055,9.7114,9.7136,9.714,9.7183,9.7079,9.7182,9.7287,9.7217,9.7217,9.7989,9.9078,9.9499,10.0131,10.1325,10.1676,10.1676,10.1676,10.1676,10.1676,10.1816,10.294,10.3607,10.3993,10.4941,10.4871,10.3712,10.2448,10.1886,10.1746,10.1676,10.1819,10.2033,10.2316,10.2421,10.2561,10.2872,10.3321,10.3962,10.4338,10.4896,10.5705,10.6119,10.6485,10.6654,10.6777,10.6943,10.7205,10.6938,10.6718,10.7042,10.72,10.7472,10.7549,10.7549,10.7625,10.7625,10.7514,10.6956,10.6325,10.5656,10.4653,10.3613,10.2981,10.2721,10.2684,10.2721,10.2684,10.2684,10.2684,10.2684,11.5783,11.5645,11.4231,11.3576,11.3507,11.3162,11.2748,11.2334,11.161,11.0817,11.0196,10.9713,10.9368,10.9023,10.9023,10.9023,10.8954,10.8644,10.8023,10.7437,10.7264,10.7092,10.6678,10.5953,10.5402,10.5057,10.4608,10.4505,10.447,10.447,10.447,10.4401,10.3677,10.3125,10.2539,10.1677,10.0918,10.0435,9.9711,9.9159,9.8745,9.8435,9.7952,9.7858,9.7754,9.7848,9.7976,9.805,9.8163,9.8201,9.8165,9.7989,9.7814,9.7989,9.8797,9.9675,9.9991,10.0482,10.1395,10.1676,10.1676,10.1711,10.1676,10.1957,10.2202,10.3115,10.3572,10.4028,10.4555,10.4695,10.3607,10.294,10.2238,10.1746,10.1711,10.1851,10.2097,10.203,10.2067,10.2421,10.2811,10.3305,10.3801,10.4401,10.4862,10.5641,10.6199,10.644,10.663,10.6701,10.6553,10.6544,10.6349,10.6302,10.6718,10.7042,10.7279,10.7472,10.7549,10.7549,10.7625,10.7514,10.7328,10.6622,10.5879,10.495,10.3984,10.3353,10.2796,10.2721,10.2721,10.2721,10.2684,10.2684,10.2684,11.5749,11.5542,11.4162,11.3576,11.3576,11.3576,11.3231,11.2679,11.2479,11.1618,11.0679,11.024,10.9782,10.9299,10.9058,10.9023,10.9023,10.8989,10.8506,10.8126,10.8057,10.7816,10.7333,10.6954,10.6574,10.5884,10.5126,10.4781,10.4712,10.4539,10.447,10.4367,10.3884,10.3436,10.2987,10.216,10.1435,10.1194,10.047,9.9883,9.9331,9.909,9.8676,9.8445,9.8567,9.8618,9.8776,9.889,9.9144,9.9429,9.9534,9.9218,9.8972,9.9043,9.9745,10.0482,10.0482,10.0903,10.1465,10.1711,10.1746,10.1816,10.1886,10.2308,10.2905,10.3396,10.3817,10.4063,10.4449,10.4274,10.3361,10.315,10.2799,10.2343,10.2097,10.2378,10.2729,10.2448,10.2589,10.287,10.319,10.3615,10.4073,10.4678,10.5027,10.556,10.6066,10.6423,10.6488,10.6471,10.611,10.5931,10.5598,10.5874,10.6266,10.6718,10.7042,10.72,10.7394,10.7472,10.7549,10.7551,10.7365,10.6845,10.6065,10.5248,10.4542,10.3873,10.339,10.3019,10.2758,10.2721,10.2684,10.2684,10.2684,11.5473,11.4817,11.3955,11.3576,11.3576,11.3576,11.3507,11.33,11.2748,11.2334,11.1886,11.0782,11.0196,10.9816,10.923,10.9058,10.9058,10.8989,10.892,10.8747,10.8747,10.854,10.8368,10.7919,10.7609,10.7195,10.6229,10.554,10.5264,10.485,10.4643,10.4505,10.4298,10.3953,10.3436,10.2953,10.2435,10.1953,10.1263,10.0745,10.0435,9.9987,9.9676,9.9469,9.9848,9.9798,9.9646,9.9802,9.9739,9.9569,10.0061,10.0271,10.0096,9.9745,9.9991,10.0482,10.0728,10.1079,10.1676,10.1781,10.2097,10.2483,10.2694,10.3045,10.3747,10.4344,10.466,10.4871,10.4976,10.4906,10.4836,10.4169,10.3817,10.3572,10.3466,10.3537,10.3677,10.3677,10.3607,10.3958,10.3993,10.4098,10.4625,10.5158,10.5439,10.5867,10.6119,10.6135,10.5891,10.5745,10.5445,10.5194,10.5019,10.5399,10.5801,10.635,10.6681,10.6881,10.7121,10.7316,10.7394,10.7549,10.7365,10.7031,10.6622,10.6065,10.5285,10.4505,10.4096,10.3799,10.3316,10.2758,10.2833,10.2944,10.2721,11.5024,11.461,11.3886,11.3576,11.3576,11.3576,11.3576,11.3541,11.3196,11.2783,11.23,11.1644,11.0851,11.023,10.9816,10.9437,10.9092,10.9023,10.9023,10.9023,10.9023,10.9023,10.9023,10.8609,10.854,10.8195,10.7333,10.654,10.616,10.5436,10.5091,10.4953,10.4712,10.4263,10.385,10.347,10.316,10.2642,10.2056,10.147,10.1125,10.0642,10.0539,10.0689,10.1278,10.1482,10.1039,10.1309,10.1287,10.0868,10.0974,10.1149,10.1044,10.0868,10.0728,10.1044,10.1149,10.15,10.2132,10.2343,10.2694,10.3326,10.3466,10.3853,10.4449,10.4976,10.5362,10.5678,10.5748,10.5608,10.5187,10.4836,10.4449,10.4063,10.4063,10.4274,10.4485,10.459,10.4765,10.4906,10.4836,10.5011,10.5538,10.5854,10.5959,10.6135,10.631,10.5867,10.5461,10.5146,10.4965,10.4308,10.4189,10.4658,10.509,10.5626,10.6096,10.635,10.68,10.6962,10.72,10.7394,10.7549,10.7439,10.7068,10.6585,10.6028,10.5248,10.4913,10.4542,10.3947,10.3427,10.3279,10.313,10.287,11.461,11.4438,11.3852,11.3576,11.3576,11.3576,11.3576,11.3576,11.3576,11.3231,11.2679,11.2403,11.161,11.0575,10.9989,10.9575,10.9023,10.9023,10.9023,10.9023,10.9023,10.9023,10.9023,10.9023,10.8954,10.8782,10.8402,10.7712,10.6954,10.6195,10.5815,10.5471,10.4919,10.4574,10.4332,10.3884,10.3574,10.3298,10.278,10.2056,10.147,10.1297,10.1297,10.1415,10.2434,10.2744,10.2187,10.2679,10.2514,10.2097,10.1886,10.1851,10.1711,10.1676,10.1676,10.1676,10.1676,10.2132,10.2624,10.287,10.3186,10.4133,10.4239,10.466,10.5152,10.5538,10.5713,10.6205,10.6275,10.6064,10.5643,10.5433,10.5152,10.4801,10.4625,10.4695,10.5187,10.5468,10.5608,10.5678,10.5608,10.5713,10.6064,10.6135,10.617,10.617,10.631,10.558,10.5137,10.4858,10.4473,10.365,10.338,10.3876,10.4347,10.4851,10.5271,10.5626,10.6181,10.6517,10.6881,10.72,10.7357,10.7511,10.7328,10.6845,10.6399,10.6065,10.5693,10.521,10.4542,10.4022,10.3687,10.3204,10.2796,11.4335,11.3714,11.3645,11.3576,11.3576,11.3576,11.3576,11.3576,11.3576,11.3576,11.33,11.2714,11.2024,11.1092,10.9816,10.9265,10.9127,10.9127,10.9161,10.9196,10.9058,10.9023,10.9023,10.9023,10.8989,10.892,10.8816,10.8471,10.7747,10.6988,10.6298,10.585,10.554,10.5195,10.4643,10.4298,10.4367,10.416,10.3505,10.278,10.2194,10.2056,10.2056,10.2326,10.2815,10.3162,10.3137,10.3519,10.3466,10.2799,10.2729,10.2378,10.1851,10.1676,10.1676,10.1676,10.1781,10.2062,10.2834,10.315,10.3712,10.4765,10.5046,10.5468,10.5819,10.6064,10.6135,10.624,10.631,10.6275,10.61,10.6135,10.6064,10.5959,10.5713,10.5784,10.61,10.5889,10.61,10.6135,10.5959,10.6064,10.6275,10.631,10.631,10.631,10.61,10.548,10.4781,10.4217,10.3759,10.2916,10.2698,10.3208,10.3509,10.3963,10.4441,10.4815,10.5449,10.6096,10.6517,10.6881,10.7279,10.7397,10.7252,10.7291,10.7068,10.6734,10.6399,10.5916,10.5359,10.4653,10.3984,10.3427,10.2907,11.3886,11.3576,11.3576,11.3576,11.3576,11.3576,11.3576,11.3576,11.3576,11.3576,11.3541,11.3265,11.2679,11.1713,11.0748,11.0368,11.023,10.9816,10.9678,10.9471,10.923,10.9023,10.8885,10.8644,10.854,10.8885,10.8644,10.854,10.8161,10.7816,10.7161,10.6781,10.6057,10.5505,10.5022,10.4677,10.4505,10.4229,10.3712,10.316,10.2884,10.2815,10.2815,10.2815,10.3787,10.4101,10.3973,10.4324,10.4028,10.3221,10.2905,10.2518,10.2062,10.2097,10.2378,10.2413,10.2834,10.3186,10.3537,10.3923,10.4695,10.5433,10.5819,10.5994,10.6275,10.631,10.631,10.631,10.631,10.631,10.631,10.631,10.631,10.631,10.631,10.631,10.631,10.631,10.6275,10.631,10.631,10.631,10.6205,10.5924,10.5889,10.5889,10.5503,10.4771,10.3822,10.2944,10.263,10.2245,10.2211,10.2526,10.2801,10.3107,10.3671,10.4156,10.4665,10.5271,10.601,10.6517,10.6881,10.7279,10.7283,10.736,10.7474,10.7365,10.6994,10.6585,10.6176,10.5545,10.4876,10.4022,10.3501,11.3576,11.3576,11.3576,11.3576,11.3576,11.3576,11.3576,11.3576,11.3576,11.3576,11.3541,11.3334,11.2817,11.2093,11.1265,11.0644,11.0541,11.0161,10.9954,10.9678,10.9402,10.9058,10.8885,10.854,10.854,10.9023,10.8644,10.8575,10.8609,10.8264,10.7712,10.7574,10.6195,10.5678,10.5471,10.5126,10.485,10.4781,10.4091,10.3677,10.3608,10.3574,10.3694,10.3986,10.4619,10.5145,10.4925,10.5129,10.4765,10.3537,10.3256,10.2905,10.2343,10.2518,10.294,10.3186,10.3747,10.4204,10.4414,10.4765,10.5538,10.6029,10.631,10.624,10.631,10.631,10.631,10.631,10.631,10.631,10.631,10.631,10.631,10.631,10.631,10.631,10.631,10.631,10.631,10.631,10.631,10.631,10.61,10.5573,10.5397,10.5433,10.4871,10.4098,10.3256,10.2413,10.2065,10.1819,10.1891,10.2105,10.2211,10.2526,10.3006,10.3409,10.3902,10.4665,10.5449,10.601,10.6434,10.68,10.7121,10.7357,10.7434,10.7511,10.7588,10.7105,10.6696,10.6436,10.5842,10.4876,10.3836,11.3576,11.3576,11.3576,11.3576,11.3576,11.3576,11.3576,11.3576,11.3576,11.3576,11.3507,11.2851,11.2196,11.1472,11.0886,11.0161,10.9333,10.9161,10.9299,10.9265,10.9023,10.9023,10.892,10.8851,10.8816,10.8989,10.8678,10.8713,10.8782,10.8092,10.7471,10.6781,10.6057,10.5747,10.554,10.5333,10.5195,10.5057,10.4539,10.4263,10.4263,10.4263,10.4384,10.4743,10.5084,10.5471,10.5819,10.5908,10.5503,10.4028,10.3923,10.3572,10.301,10.315,10.3502,10.3993,10.466,10.5046,10.5222,10.5292,10.5608,10.6064,10.631,10.631,10.631,10.631,10.631,10.631,10.631,10.631,10.631,10.631,10.631,10.631,10.631,10.631,10.631,10.631,10.631,10.631,10.631,10.631,10.624,10.5784,10.5468,10.5503,10.5117,10.4344,10.3502,10.2694,10.2062,10.1746,10.1711,10.1784,10.1819,10.2105,10.249,10.2904,10.3309,10.406,10.4907,10.5449,10.5924,10.6517,10.6881,10.7121,10.7394,10.7472,10.7588,10.7439,10.7142,10.6734,10.6065,10.5062,10.3947,11.3576,11.3576,11.3576,11.3576,11.3576,11.3576,11.3576,11.3576,11.3576,11.3576,11.3576,11.2783,11.2265,11.1817,11.123,11.0748,11.0368,10.992,10.9747,10.954,10.9333,10.9058,10.892,10.8713,10.854,10.8816,10.8678,10.8644,10.8885,10.785,10.7195,10.6574,10.5919,10.5712,10.554,10.5264,10.5057,10.4919,10.4677,10.447,10.447,10.447,10.4557,10.4882,10.5272,10.5506,10.5854,10.6083,10.5678,10.5011,10.473,10.4239,10.3817,10.3993,10.4344,10.473,10.5433,10.5748,10.5819,10.5854,10.6064,10.617,10.631,10.631,10.631,10.631,10.631,10.631,10.631,10.631,10.631,10.631,10.631,10.631,10.631,10.631,10.631,10.631,10.631,10.631,10.631,10.631,10.624,10.61,10.5819,10.5538,10.5117,10.459,10.3817,10.301,10.2378,10.1886,10.1781,10.1711,10.1711,10.1891,10.1998,10.2421,10.2801,10.3473,10.4252,10.4665,10.5126,10.5838,10.6517,10.6881,10.7121,10.7472,10.7474,10.7477,10.7217,10.6808,10.6065,10.5136,10.4133,11.3576,11.3576,11.3576,11.3576,11.3576,11.3576,11.3576,11.3576,11.3576,11.3576,11.3541,11.2783,11.2265,11.1955,11.1265,11.0679,11.0299,10.9954,10.9816,10.9575,10.9265,10.9058,10.8851,10.8678,10.8644,10.8816,10.8644,10.8609,10.892,10.7437,10.6885,10.6471,10.5815,10.5436,10.5505,10.5126,10.4781,10.4815,10.4574,10.4505,10.447,10.447,10.4677,10.5035,10.5272,10.5622,10.6004,10.6162,10.5924,10.5397,10.5081,10.4871,10.473,10.4836,10.5257,10.5608,10.5959,10.631,10.631,10.631,10.631,10.631,10.631,10.631,10.631,10.631,10.631,10.631,10.631,10.631,10.631,10.631,10.631,10.631,10.631,10.631,10.631,10.631,10.631,10.631,10.631,10.631,10.631,10.6205,10.61,10.5784,10.5327,10.4906,10.4344,10.3537,10.2729,10.2238,10.1922,10.1781,10.1676,10.1784,10.1891,10.2105,10.249,10.2801,10.3373,10.3902,10.4478,10.5271,10.5974,10.6517,10.6962,10.7279,10.7434,10.7588,10.7328,10.7068,10.5916,10.5025,10.4207,11.3576,11.3576,11.3576,11.3576,11.3576,11.3576,11.3576,11.3438,11.3403,11.3438,11.3334,11.261,11.1886,11.1265,11.0506,10.992,10.9506,10.9265,10.9196,10.9161,10.9127,10.9023,10.8989,10.892,10.8851,10.8954,10.8885,10.8851,10.8989,10.7643,10.6988,10.6298,10.5505,10.4919,10.554,10.5574,10.5574,10.5471,10.4746,10.4539,10.447,10.447,10.4797,10.5154,10.5389,10.5657,10.6083,10.6197,10.5994,10.5538,10.5397,10.5292,10.5292,10.5257,10.5608,10.6135,10.624,10.631,10.631,10.631,10.631,10.631,10.631,10.631,10.631,10.6275,10.617,10.6029,10.6135,10.6205,10.624,10.631,10.631,10.631,10.631,10.631,10.631,10.631,10.631,10.631,10.631,10.631,10.631,10.631,10.631,10.6029,10.5538,10.5117,10.473,10.4028,10.315,10.2483,10.2097,10.1816,10.1676,10.1676,10.1784,10.1998,10.2211,10.2386,10.2801,10.3309,10.3963,10.4722,10.5449,10.6181,10.6681,10.7121,10.7357,10.7588,10.7625,10.7217,10.6028,10.5025,10.4319,11.3576,11.3576,11.3576,11.3576,11.3576,11.3576,11.3334,11.2783,11.2369,11.2334,11.2472,11.1541,11.0886,11.0368,10.9851,10.9299,10.9092,10.9023,10.9023,10.9023,10.9023,10.9023,10.9023,10.9023,10.9023,10.9023,10.9023,10.9023,10.8989,10.785,10.7195,10.6505,10.5367,10.4712,10.4781,10.485,10.485,10.4815,10.4574,10.447,10.447,10.447,10.4832,10.5424,10.5424,10.5773,10.6197,10.631,10.6135,10.5889,10.5854,10.5854,10.5889,10.5854,10.6029,10.631,10.631,10.631,10.631,10.631,10.631,10.631,10.631,10.631,10.631,10.5819,10.5678,10.5643,10.5678,10.5643,10.5538,10.61,10.6275,10.631,10.631,10.631,10.631,10.631,10.631,10.631,10.631,10.631,10.631,10.631,10.631,10.631,10.5924,10.5468,10.5046,10.4344,10.3537,10.2799,10.2273,10.1886,10.1676,10.1676,10.1676,10.1784,10.1891,10.1998,10.2386,10.2904,10.3509,10.4156,10.509,10.5924,10.6517,10.7042,10.7357,10.7625,10.7625,10.7328,10.6325,10.5433,10.4727,11.3576,11.3576,11.3576,11.3576,11.3576,11.3576,11.3162,11.2403,11.192,11.1851,11.1748,11.0713,11.0196,10.9954,10.9437,10.9023,10.9023,10.9023,10.9023,10.9023,10.9023,10.9023,10.9023,10.9023,10.9023,10.9023,10.9023,10.9023,10.8989,10.8264,10.7299,10.6264,10.5367,10.4884,10.4677,10.4539,10.4539,10.4539,10.447,10.447,10.447,10.4712,10.4917,10.5272,10.5541,10.5889,10.6197,10.631,10.631,10.631,10.631,10.631,10.631,10.631,10.631,10.631,10.631,10.631,10.631,10.631,10.631,10.631,10.631,10.631,10.6205,10.5678,10.5362,10.5257,10.5187,10.5187,10.5327,10.5924,10.6275,10.631,10.631,10.631,10.631,10.631,10.631,10.631,10.631,10.631,10.631,10.631,10.631,10.631,10.6275,10.5819,10.5327,10.459,10.3853,10.308,10.2378,10.1922,10.1711,10.1676,10.1676,10.1676,10.1676,10.1784,10.1998,10.2421,10.3006,10.3706,10.4441,10.5271,10.6266,10.6844,10.7279,10.7549,10.7549,10.7103,10.6511,10.5805,10.5062,11.3576,11.3576,11.3576,11.3576,11.3576,11.3507,11.3058,11.2403,11.2231,11.1782,11.123,11.0403,10.9954,10.9885,10.9299,10.9058,10.9023,10.9023,10.9023,10.9023,10.9023,10.9023,10.9023,10.9023,10.9023,10.9023,10.9023,10.9023,10.892,10.8264,10.7161,10.6126,10.5643,10.5091,10.4677,10.447,10.447,10.447,10.447,10.447,10.447,10.4677,10.5035,10.5389,10.5657,10.6004,10.6232,10.631,10.631,10.631,10.631,10.631,10.631,10.631,10.631,10.631,10.631,10.631,10.631,10.631,10.631,10.631,10.6205,10.6275,10.6064,10.5538,10.5081,10.5046,10.5046,10.5117,10.5257,10.5784,10.631,10.631,10.631,10.631,10.631,10.631,10.631,10.631,10.631,10.631,10.631,10.631,10.631,10.631,10.624,10.5854,10.5362,10.4836,10.4063,10.3326,10.2624,10.1957,10.1781,10.1746,10.1676,10.1676,10.1676,10.1784,10.1891,10.1998,10.2594,10.3309,10.3902,10.4722,10.5888,10.6718,10.72,10.7394,10.7472,10.7363,10.6882,10.6102,10.5285,11.3576,11.3576,11.3576,11.3576,11.3507,11.2989,11.261,11.2265,11.0817,11.0092,11.0472,10.9678,10.9402,10.9299,10.9127,10.9023,10.9023,10.9023,10.9023,10.9023,10.9023,10.9023,10.9023,10.9023,10.9023,10.9023,10.9023,10.9023,10.8851,10.8264,10.7471,10.654,10.5815,10.5195,10.4746,10.447,10.4436,10.4436,10.4401,10.447,10.4591,10.4797,10.5035,10.5389,10.5773,10.6004,10.6197,10.631,10.631,10.631,10.631,10.631,10.631,10.631,10.631,10.631,10.631,10.631,10.631,10.631,10.6275,10.6135,10.5854,10.5924,10.5748,10.5257,10.4625,10.4625,10.466,10.466,10.5117,10.5678,10.617,10.631,10.631,10.631,10.631,10.631,10.631,10.631,10.631,10.631,10.631,10.631,10.631,10.631,10.6205,10.5854,10.5503,10.4976,10.4344,10.3572,10.308,10.2483,10.1957,10.1816,10.1746,10.1676,10.1676,10.1676,10.1784,10.1998,10.2421,10.3006,10.3769,10.4722,10.5838,10.6517,10.7121,10.7394,10.7434,10.74,10.7179,10.6399,10.573,11.2714,11.2679,11.2679,11.2679,11.2576,11.1886,11.1541,11.123,11.0023,10.9644,10.9644,10.923,10.9023,10.9058,10.9023,10.9023,10.9023,10.9023,10.9023,10.9023,10.9023,10.9023,10.9023,10.9023,10.9023,10.9023,10.9023,10.9023,10.8782,10.8195,10.7437,10.6229,10.5747,10.5195,10.4712,10.4436,10.4229,10.4229,10.4229,10.4401,10.4557,10.4762,10.5035,10.5354,10.5738,10.6004,10.6162,10.6275,10.631,10.631,10.631,10.631,10.631,10.631,10.631,10.631,10.631,10.631,10.631,10.631,10.617,10.5889,10.5468,10.5292,10.4871,10.4274,10.4028,10.3958,10.4028,10.4239,10.4941,10.5573,10.5959,10.631,10.631,10.631,10.631,10.631,10.631,10.631,10.631,10.631,10.631,10.631,10.631,10.631,10.631,10.6135,10.5784,10.5362,10.466,10.3888,10.3537,10.3115,10.2589,10.2027,10.1922,10.1851,10.1676,10.1676,10.1711,10.1926,10.2281,10.3041,10.3866,10.4759,10.5595,10.635,10.6962,10.72,10.7394,10.7474,10.7291,10.6734,10.6139,11.1334,11.1368,11.1299,11.1368,11.1127,11.0541,11.023,11.0058,10.9954,10.9644,10.9127,10.9023,10.9023,10.9023,10.9023,10.9023,10.9023,10.9023,10.9023,10.9023,10.9023,10.9023,10.9023,10.9023,10.8885,10.892,10.8816,10.8609,10.8506,10.7919,10.6919,10.5678,10.5643,10.516,10.4332,10.4194,10.3884,10.3367,10.3643,10.3919,10.4177,10.4555,10.4931,10.5285,10.5668,10.5969,10.6092,10.6205,10.6205,10.6135,10.6064,10.5959,10.5924,10.5889,10.5924,10.6064,10.5959,10.6064,10.6135,10.6205,10.5994,10.5643,10.5222,10.4871,10.4379,10.3677,10.3431,10.3923,10.4169,10.452,10.5152,10.5748,10.617,10.631,10.631,10.631,10.631,10.631,10.631,10.631,10.631,10.631,10.631,10.631,10.631,10.631,10.631,10.624,10.6064,10.5678,10.5117,10.4379,10.4169,10.3782,10.2975,10.2483,10.2238,10.2062,10.1851,10.1676,10.1676,10.1854,10.2067,10.3124,10.4288,10.4516,10.5197,10.6034,10.6837,10.7042,10.7316,10.7549,10.7328,10.6956,10.6548,11.1299,11.1299,11.1299,11.0989,11.0472,11.023,10.9782,10.9299,10.9299,10.9196,10.9058,10.9023,10.9023,10.9023,10.9023,10.9023,10.9023,10.9023,10.9023,10.9023,10.9023,10.892,10.8954,10.8885,10.8644,10.8299,10.8092,10.7885,10.7437,10.7023,10.6609,10.5678,10.5436,10.4815,10.3746,10.3643,10.3229,10.2539,10.2642,10.2815,10.2865,10.362,10.4168,10.4728,10.5215,10.5479,10.5566,10.5468,10.5081,10.4695,10.459,10.452,10.452,10.459,10.459,10.466,10.5187,10.5397,10.5608,10.5854,10.5924,10.5784,10.5397,10.4765,10.4098,10.3326,10.3256,10.3923,10.452,10.4906,10.5327,10.5889,10.631,10.631,10.631,10.631,10.631,10.631,10.631,10.631,10.631,10.631,10.631,10.631,10.631,10.631,10.631,10.631,10.631,10.6029,10.5713,10.5152,10.5011,10.452,10.3642,10.294,10.2729,10.2273,10.1957,10.1816,10.1781,10.2311,10.2949,10.3836,10.4639,10.4773,10.5229,10.6057,10.6664,10.6918,10.7316,10.7549,10.7625,10.7328,10.6956,11.0299,11.0299,11.0299,11.0058,10.9713,10.9644,10.9368,10.9058,10.9023,10.9023,10.9023,10.9023,10.9023,10.9023,10.9023,10.9023,10.9023,10.9023,10.9023,10.9023,10.8885,10.8747,10.8713,10.8506,10.7988,10.7574,10.7368,10.7023,10.6367,10.616,10.5884,10.516,10.4815,10.416,10.3194,10.2953,10.2435,10.1746,10.1711,10.1539,10.147,10.2361,10.3336,10.3846,10.4262,10.456,10.4794,10.466,10.4414,10.4133,10.4098,10.4098,10.4133,10.4133,10.4063,10.4169,10.4414,10.466,10.4871,10.5257,10.5643,10.5433,10.5503,10.4801,10.4169,10.3502,10.3256,10.3888,10.466,10.5117,10.5397,10.5854,10.6205,10.631,10.631,10.631,10.631,10.631,10.631,10.631,10.631,10.631,10.631,10.631,10.631,10.631,10.631,10.631,10.631,10.631,10.6029,10.5819,10.5608,10.5257,10.452,10.3782,10.3186,10.2694,10.2238,10.2554,10.287,10.326,10.3794,10.4365,10.4754,10.4896,10.5403,10.6101,10.6617,10.6918,10.7316,10.7625,10.7625,10.7625,10.7328,10.9058,10.9023,10.9058,10.9023,10.9023,10.9023,10.9023,10.9023,10.9023,10.9023,10.9023,10.9023,10.9023,10.9023,10.9023,10.9023,10.8954,10.8747,10.8816,10.8747,10.8609,10.8161,10.7885,10.7747,10.7264,10.6781,10.6436,10.6022,10.5471,10.5264,10.4815,10.4229,10.3677,10.3091,10.2849,10.2366,10.1677,10.1125,10.0814,10.0573,10.078,10.1228,10.2249,10.2723,10.3137,10.3399,10.3666,10.3853,10.3853,10.3496,10.3356,10.3396,10.3396,10.3326,10.3396,10.3466,10.3677,10.3817,10.4028,10.459,10.4625,10.4625,10.4941,10.4871,10.4274,10.4133,10.3888,10.4063,10.4836,10.5292,10.5573,10.5819,10.6135,10.631,10.631,10.631,10.631,10.631,10.631,10.631,10.631,10.631,10.631,10.631,10.631,10.631,10.631,10.631,10.631,10.631,10.6205,10.61,10.6029,10.5643,10.5117,10.4555,10.3817,10.3361,10.308,10.3502,10.3888,10.4174,10.4314,10.453,10.4862,10.5159,10.5465,10.6016,10.6462,10.7029,10.7316,10.7625,10.7625,10.7625,10.7625,10.9023,10.9023,10.9023,10.9023,10.9023,10.9023,10.9023,10.9023,10.8989,10.9023,10.8885,10.8989,10.9023,10.8989,10.9023,10.8954,10.8747,10.8437,10.8161,10.8092,10.7712,10.7264,10.6954,10.685,10.6416,10.583,10.5298,10.485,10.4436,10.4022,10.3712,10.347,10.278,10.216,10.1573,10.1194,10.0952,10.047,10.0263,10.009,10.0263,10.0793,10.144,10.2167,10.2779,10.291,10.307,10.2895,10.2364,10.2014,10.1944,10.2124,10.2269,10.2304,10.2339,10.2514,10.276,10.2935,10.3216,10.3853,10.3923,10.4555,10.4906,10.5152,10.5011,10.5433,10.5152,10.4836,10.5397,10.5643,10.5889,10.6064,10.631,10.631,10.631,10.631,10.631,10.631,10.631,10.631,10.631,10.631,10.631,10.631,10.631,10.631,10.631,10.631,10.631,10.631,10.631,10.631,10.631,10.5854,10.5292,10.5117,10.4555,10.4098,10.3888,10.4274,10.4625,10.4871,10.5123,10.5228,10.5429,10.5659,10.5969,10.6507,10.6841,10.7324,10.7427,10.7625,10.7662,10.7625,10.7625]},{"header":{"parameterUnit":"m.s-1","parameterCategory":1,"la1":31.0,"la2":29.5877,"lo1":-88.7671,"lo2":-86.6584,"dy":0.0162,"dx":0.0185,"nx":115,"ny":88,"refTime":"2024-02-27T06:00:00:Z","depth":0,"parameterNumber":3,"parameterNumberName":"V-component_of_WINDS"},"data":[0.0,0.0,0.0,0.0,0.0,0.0,0.0,0.0,0.0,0.0,0.0,0.0,0.0,0.0,0.0,0.0,0.0,0.0,0.0,0.0,0.0,0.0,0.0,0.0,0.0,0.0,0.0,0.0,0.0,0.0,0.0,0.0,0.0,0.0,0.0,0.0,0.0,0.0,0.0,0.0,0.0,0.0,0.0,0.0,0.0,0.0,0.0,0.0,0.0,0.0,0.0,0.0,0.0,0.0,0.0,0.0,0.0,0.0,0.0,0.0,0.0,0.0,0.0,0.0,0.0,0.0,0.0,0.0,0.0,0.0,0.0,0.0,0.0,0.0,0.0,0.0,0.0,0.0,0.0,0.0,0.0,0.0,0.0,0.0,0.0,0.0,0.0,0.0,0.0,0.0,0.0,0.0,0.0,0.0,0.0,0.0,0.0,0.0,0.0,0.0,0.0,0.0,0.0,0.0,0.0,0.0,0.0,0.0,0.0,0.0,0.0,0.0,0.0,0.0,0.0,0.0,0.0,0.0,0.0,0.0,0.0,0.0,0.0,0.0,0.0,0.0,0.0,0.0,0.0,0.0,0.0,0.0,0.0,0.0,0.0,0.0,0.0,0.0,0.0,0.0,0.0,0.0,0.0,0.0,0.0,0.0,0.0,0.0,0.0,0.0,0.0,0.0,0.0,0.0,0.0,0.0,0.0,0.0,0.0,0.0,0.0,0.0,0.0,0.0,0.0,0.0,0.0,0.0,0.0,0.0,0.0,0.0,0.0,0.0,0.0,0.0,0.0,0.0,0.0,0.0,0.0,0.0,0.0,0.0,0.0,0.0,0.0,0.0,0.0,0.0,0.0,0.0,0.0,0.0,0.0,0.0,0.0,0.0,0.0,0.0,0.0,0.0,0.0,0.0,0.0,0.0,0.0,0.0,0.0,0.0,0.0,0.0,0.0,0.0,0.0,0.0,0.0,0.0,0.0,0.0,0.0,0.0,0.0,0.0,0.0,0.0,0.0,0.0,0.0,0.0,0.0,0.0,0.0,0.0,0.0,0.0,0.0,0.0,0.0,0.0,0.0,0.0,0.0,0.0,0.0,0.0,0.0,0.0,0.0,0.0,0.0,0.0,0.0,0.0,0.0,0.0,0.0,0.0,0.0,0.0,0.0,0.0,0.0,0.0,0.0,0.0,0.0,0.0,0.0,0.0,0.0,0.0,0.0,0.0,0.0,0.0,0.0,0.0,0.0,0.0,0.0,0.0,0.0,0.0,0.0,0.0,0.0,0.0,0.0,0.0,0.0,0.0,0.0,0.0,0.0,0.0,0.0,0.0,0.0,0.0,0.0,0.0,0.0,0.0,0.0,0.0,0.0,0.0,0.0,0.0,0.0,0.0,0.0,0.0,0.0,0.0,0.0,0.0,0.0,0.0,0.0,0.0,0.0,0.0,0.0,0.0,0.0,0.0,0.0,0.0,0.0,0.0,0.0,0.0,0.0,0.0,0.0,0.0,0.0,0.0,0.0,0.0,0.0,0.0,0.0,0.0,0.0,0.0,0.0,0.0,0.0,0.0,0.0,0.0,0.0,0.0,0.0,0.0,0.0,0.0,0.0,0.0,0.0,0.0,0.0,0.0,0.0,0.0,0.0,0.0,0.0,0.0,0.0,0.0,0.0,0.0,0.0,0.0,0.0,0.0,0.0,0.0,0.0,0.0,0.0,0.0,0.0,0.0,0.0,0.0,0.0,0.0,0.0,0.0,0.0,0.0,0.0,0.0,0.0,0.0,0.0,0.0,0.0,0.0,0.0,0.0,0.0,0.0,0.0,0.0,0.0,0.0,0.0,0.0,0.0,0.0,0.0,0.0,0.0,0.0,0.0,0.0,0.0,0.0,0.0,0.0,0.0,0.0,0.0,0.0,0.0,0.0,0.0,0.0,0.0,0.0,0.0,0.0,0.0,0.0,0.0,0.0,0.0,0.0,0.0,0.0,0.0,0.0,0.0,0.0,0.0,0.0,0.0,0.0,0.0,0.0,0.0,0.0,0.0,0.0,0.0,0.0,0.0,0.0,0.0,0.0,0.0,0.0,0.0,0.0,0.0,0.0,0.0,0.0,0.0,0.0,0.0,0.0,0.0,0.0,0.0,0.0,0.0,0.0,0.0,0.0,0.0,0.0,0.0,0.0,0.0,0.0,0.0,0.0,0.0,0.0,0.0,0.0,0.0,0.0,0.0,0.0,0.0,0.0,0.0,0.0,0.0,0.0,0.0,0.0,0.0,0.0,0.0,0.0,0.0,0.0,0.0,0.0,0.0,0.0,0.0,0.0,0.0,0.0,0.0,0.0,0.0,0.0,0.0,0.0,0.0,0.0,0.0,0.0,0.0,0.0,0.0,0.0,0.0,0.0,0.0,0.0,0.0,0.0,0.0,0.0,0.0,0.0,0.0,0.0,0.0,0.0,0.0,0.0,0.0,0.0,0.0,0.0,0.0,0.0,0.0,0.0,0.0,0.0,0.0,0.0,0.0,0.0,0.0,0.0,0.0,0.0,0.0,0.0,0.0,0.0,0.0,0.0,0.0,0.0,0.0,0.0,0.0,0.0,0.0,0.0,0.0,0.0,0.0,0.0,0.0,0.0,0.0,0.0,0.0,0.0,0.0,0.0,0.0,0.0,0.0,0.0,0.0,0.0,0.0,0.0,0.0,0.0,0.0,0.0,0.0,0.0,0.0,0.0,0.0,0.0,0.0,0.0,0.0,0.0,0.0,0.0,0.0,0.0,0.0,0.0,0.0,0.0,0.0,0.0,0.0,0.0,0.0,0.0,0.0,0.0,0.0,0.0,0.0,0.0,0.0,0.0,0.0,0.0,0.0,0.0,0.0,0.0,0.0,0.0,0.0,0.0,0.0,0.0,0.0,0.0,0.0,0.0,0.0,0.0,0.0,0.0,0.0,0.0,0.0,0.0,0.0,0.0,0.0,0.0,0.0,0.0,0.0,0.0,0.0,0.0,0.0,0.0,0.0,0.0,0.0,0.0,0.0,0.0,0.0,0.0,0.0,0.0,0.0,0.0,0.0,0.0,0.0,0.0,0.0,0.0,0.0,0.0,0.0,0.0,0.0,0.0,0.0,0.0,0.0,0.0,0.0,0.0,0.0,0.0,0.0,0.0,0.0,0.0,0.0,0.0,0.0,0.0,0.0,0.0,0.0,0.0,0.0,0.0,0.0,0.0,0.0,0.0,0.0,0.0,0.0,0.0,0.0,0.0,0.0,0.0,0.0,0.0,0.0,0.0,0.0,0.0,0.0,0.0,0.0,0.0,0.0,0.0,0.0,0.0,0.0,0.0,0.0,0.0,0.0,0.0,0.0,0.0,0.0,0.0,0.0,0.0,0.0,0.0,0.0,0.0,0.0,0.0,0.0,0.0,0.0,0.0,0.0,0.0,0.0,0.0,0.0,0.0,0.0,0.0,0.0,0.0,0.0,0.0,0.0,0.0,0.0,0.0,0.0,0.0,0.0,0.0,0.0,0.0,0.0,0.0,0.0,0.0,0.0,0.0,0.0,0.0,0.0,0.0,0.0,0.0,0.0,0.0,0.0,0.0,0.0,0.0,0.0,0.0,0.0,0.0,0.0,0.0,0.0,0.0,0.0,0.0,0.0,0.0,0.0,0.0,0.0,0.0,0.0,0.0,0.0,0.0,0.0,0.0,0.0,0.0,0.0,0.0,0.0,0.0,0.0,0.0,0.0,0.0,0.0,0.0,0.0,0.0,0.0,0.0,0.0,0.0,0.0,0.0,0.0,0.0,0.0,0.0,0.0,0.0,0.0,0.0,0.0,0.0,0.0,0.0,0.0,0.0,0.0,0.0,0.0,0.0,0.0,0.0,0.0,0.0,0.0,0.0,0.0,0.0,0.0,0.0,0.0,0.0,0.0,0.0,0.0,0.0,0.0,0.0,0.0,0.0,0.0,0.0,0.0,0.0,0.0,0.0,0.0,0.0,0.0,0.0,0.0,0.0,0.0,0.0,0.0,0.0,0.0,0.0,0.0,0.0,0.0,0.0,0.0,0.0,0.0,0.0,0.0,0.0,0.0,0.0,0.0,0.0,0.0,0.0,0.0,0.0,0.0,0.0,0.0,0.0,0.0,0.0,0.0,0.0,0.0,0.0,0.0,0.0,0.0,0.0,0.0,0.0,0.0,0.0,0.0,0.0,0.0,0.0,0.0,0.0,0.0,0.0,0.0,0.0,0.0,0.0,0.0,0.0,0.0,0.0,0.0,0.0,0.0,0.0,1.9696,0.0,0.0,0.0,0.0,0.0,0.0,0.0,0.0,0.0,0.0,0.0,0.0,0.0,0.0,0.0,0.0,0.0,0.0,0.0,0.0,0.0,0.0,0.0,0.0,0.0,0.0,0.0,0.0,0.0,0.0,0.0,0.0,0.0,0.0,0.0,0.0,0.0,0.0,0.0,0.0,0.0,0.0,0.0,0.0,0.0,0.0,0.0,0.0,0.0,0.0,0.0,0.0,0.0,0.0,0.0,0.0,0.0,0.0,0.0,0.0,0.0,0.0,0.0,0.0,0.0,0.0,0.0,0.0,0.0,0.0,0.0,0.0,0.0,0.0,0.0,0.0,0.0,0.0,0.0,0.0,0.0,0.0,0.0,0.0,0.0,0.0,0.0,0.0,0.0,0.0,0.0,0.0,0.0,0.0,0.0,0.0,0.0,0.0,0.0,0.0,0.0,0.0,0.0,0.0,0.0,0.0,0.0,0.0,0.0,0.0,1.9456,1.9571,1.9449,1.9437,1.9687,0.0,0.0,0.0,0.0,0.0,0.0,0.0,0.0,0.0,0.0,0.0,0.0,0.0,0.0,0.0,0.0,0.0,0.0,0.0,0.0,0.0,0.0,0.0,0.0,0.0,0.0,0.0,0.0,0.0,0.0,0.0,0.0,0.0,0.0,0.0,0.0,0.0,0.0,0.0,0.0,0.0,0.0,0.0,0.0,0.0,0.0,0.0,0.0,0.0,0.0,0.0,0.0,0.0,0.0,0.0,0.0,0.0,0.0,0.0,0.0,0.0,0.0,0.0,0.0,0.0,0.0,0.0,0.0,0.0,0.0,0.0,0.0,0.0,0.0,0.0,0.0,0.0,0.0,0.0,0.0,0.0,0.0,0.0,0.0,0.0,0.0,0.0,0.0,0.0,0.0,0.0,0.0,0.0,0.0,0.0,0.0,0.0,0.0,0.0,0.0,0.0,0.0,0.0,0.0,0.0,0.0,0.0,0.0,0.0,0.0,0.0,0.0,1.9431,1.9422,1.9625,0.0,0.0,0.0,0.0,0.0,0.0,0.0,0.0,0.0,0.0,0.0,0.0,0.0,0.0,0.0,0.0,0.0,0.0,0.0,0.0,0.0,0.0,0.0,0.0,0.0,0.0,0.0,0.0,0.0,0.0,0.0,0.0,0.0,0.0,0.0,0.0,0.0,0.0,0.0,0.0,0.0,0.0,0.0,0.0,0.0,0.0,0.0,0.0,0.0,0.0,0.0,0.0,0.0,0.0,0.0,0.0,0.0,0.0,0.0,0.0,0.0,0.0,0.0,0.0,0.0,0.0,0.0,0.0,0.0,0.0,0.0,0.0,0.0,0.0,0.0,0.0,0.0,0.0,0.0,0.0,0.0,0.0,0.0,0.0,0.0,0.0,0.0,0.0,0.0,0.0,0.0,0.0,0.0,0.0,0.0,0.0,0.0,0.0,0.0,0.0,0.0,0.0,0.0,0.0,0.0,0.0,0.0,0.0,0.0,0.0,1.9555,1.9808,1.9784,0.0,1.9516,0.0,0.0,0.0,0.0,0.0,0.0,0.0,0.0,0.0,0.0,0.0,0.0,0.0,0.0,0.0,0.0,0.0,0.0,0.0,0.0,0.0,0.0,0.0,0.0,0.0,0.0,0.0,0.0,0.0,0.0,0.0,0.0,0.0,0.0,0.0,0.0,0.0,0.0,0.0,0.0,0.0,0.0,0.0,0.0,0.0,0.0,0.0,0.0,0.0,0.0,0.0,0.0,0.0,0.0,0.0,0.0,0.0,0.0,0.0,0.0,0.0,0.0,0.0,0.0,0.0,0.0,0.0,0.0,0.0,0.0,0.0,0.0,0.0,0.0,0.0,0.0,0.0,0.0,0.0,0.0,0.0,0.0,0.0,0.0,0.0,0.0,0.0,0.0,0.0,0.0,0.0,0.0,0.0,0.0,0.0,0.0,0.0,0.0,0.0,0.0,0.0,0.0,0.0,0.0,0.0,0.0,0.0,0.0,0.0,0.0,1.9603,1.9881,1.9724,1.9507,0.0,0.0,0.0,0.0,0.0,0.0,0.0,0.0,0.0,0.0,0.0,0.0,0.0,0.0,0.0,0.0,0.0,0.0,0.0,0.0,0.0,0.0,0.0,0.0,0.0,0.0,0.0,0.0,0.0,0.0,0.0,0.0,0.0,0.0,0.0,0.0,0.0,0.0,0.0,0.0,0.0,0.0,0.0,0.0,0.0,0.0,0.0,0.0,0.0,0.0,0.0,0.0,0.0,0.0,0.0,0.0,0.0,0.0,0.0,0.0,0.0,0.0,0.0,0.0,0.0,0.0,0.0,0.0,0.0,0.0,0.0,0.0,0.0,0.0,0.0,0.0,0.0,0.0,0.0,0.0,0.0,0.0,0.0,0.0,0.0,0.0,0.0,0.0,0.0,0.0,0.0,0.0,0.0,0.0,0.0,0.0,0.0,0.0,0.0,0.0,0.0,0.0,0.0,0.0,0.0,0.0,0.0,0.0,0.0,0.0,1.9543,1.9748,2.0062,1.976,1.9458,1.9193,0.0,0.0,0.0,0.0,0.0,0.0,0.0,0.0,0.0,0.0,0.0,0.0,0.0,0.0,0.0,0.0,0.0,0.0,0.0,0.0,0.0,0.0,0.0,0.0,0.0,0.0,0.0,0.0,0.0,0.0,0.0,0.0,0.0,0.0,0.0,0.0,0.0,0.0,0.0,0.0,0.0,0.0,0.0,0.0,0.0,0.0,0.0,0.0,0.0,0.0,0.0,0.0,0.0,0.0,0.0,0.0,0.0,0.0,0.0,0.0,0.0,0.0,0.0,0.0,0.0,0.0,0.0,0.0,0.0,0.0,0.0,0.0,0.0,0.0,0.0,0.0,0.0,0.0,0.0,0.0,0.0,0.0,0.0,0.0,0.0,0.0,0.0,0.0,0.0,0.0,0.0,0.0,0.0,0.0,0.0,0.0,0.0,0.0,0.0,0.0,0.0,0.0,0.0,0.0,0.0,0.0,0.0,0.0,1.9446,1.9736,2.011,2.0581,2.0134,1.9736,0.0,0.0,0.0,0.0,0.0,0.0,0.0,0.0,0.0,0.0,0.0,0.0,0.0,0.0,0.0,0.0,0.0,0.0,0.0,0.0,0.0,0.0,0.0,0.0,0.0,0.0,0.0,0.0,0.0,0.0,0.0,0.0,0.0,0.0,0.0,0.0,0.0,0.0,0.0,0.0,0.0,0.0,0.0,0.0,0.0,0.0,0.0,0.0,0.0,0.0,0.0,0.0,0.0,0.0,0.0,0.0,0.0,0.0,0.0,0.0,0.0,0.0,0.0,0.0,0.0,0.0,0.0,0.0,0.0,0.0,0.0,0.0,0.0,0.0,0.0,0.0,0.0,0.0,0.0,0.0,0.0,0.0,0.0,0.0,0.0,0.0,0.0,0.0,0.0,0.0,0.0,0.0,0.0,0.0,0.0,0.0,0.0,0.0,0.0,0.0,0.0,0.0,0.0,0.0,0.0,0.0,0.0,0.0,0.0,1.9458,2.0074,2.04,2.0412,2.0074,1.9591,0.0,0.0,0.0,0.0,0.0,0.0,0.0,0.0,0.0,0.0,0.0,0.0,0.0,0.0,0.0,0.0,0.0,0.0,0.0,0.0,0.0,0.0,0.0,0.0,0.0,0.0,0.0,0.0,0.0,0.0,0.0,0.0,0.0,0.0,0.0,0.0,0.0,0.0,0.0,0.0,0.0,0.0,0.0,0.0,0.0,0.0,0.0,0.0,0.0,0.0,0.0,0.0,0.0,0.0,0.0,0.0,0.0,0.0,0.0,0.0,0.0,0.0,0.0,0.0,0.0,0.0,0.0,0.0,0.0,0.0,0.0,0.0,0.0,0.0,0.0,0.0,0.0,0.0,0.0,0.0,0.0,0.0,0.0,0.0,0.0,0.0,0.0,0.0,0.0,0.0,0.0,0.0,0.0,0.0,0.0,0.0,0.0,0.0,0.0,0.0,0.0,0.0,0.0,0.0,0.0,0.0,0.0,0.0,0.0,1.97,0.0,2.0702,2.0533,2.0195,1.9639,0.0,0.0,0.0,0.0,0.0,0.0,0.0,0.0,0.0,0.0,0.0,0.0,0.0,0.0,0.0,0.0,0.0,0.0,0.0,0.0,0.0,0.0,0.0,0.0,0.0,0.0,0.0,0.0,0.0,0.0,0.0,0.0,0.0,0.0,0.0,0.0,0.0,0.0,0.0,0.0,0.0,0.0,0.0,0.0,0.0,0.0,0.0,0.0,0.0,0.0,0.0,0.0,0.0,0.0,0.0,0.0,0.0,0.0,0.0,0.0,0.0,0.0,0.0,0.0,0.0,0.0,0.0,0.0,0.0,0.0,0.0,0.0,0.0,0.0,0.0,0.0,0.0,0.0,0.0,0.0,0.0,0.0,0.0,0.0,0.0,0.0,0.0,0.0,0.0,0.0,0.0,0.0,0.0,0.0,0.0,0.0,0.0,0.0,0.0,0.0,0.0,0.0,0.0,0.0,0.0,0.0,0.0,0.0,1.9218,2.0243,2.081,2.11,2.1052,2.0569,1.9905,0.0,0.0,0.0,0.0,0.0,0.0,0.0,0.0,0.0,0.0,0.0,0.0,0.0,0.0,0.0,0.0,0.0,0.0,0.0,0.0,0.0,0.0,0.0,0.0,0.0,0.0,0.0,0.0,0.0,0.0,0.0,0.0,0.0,0.0,0.0,0.0,0.0,0.0,0.0,0.0,0.0,0.0,0.0,0.0,0.0,0.0,0.0,0.0,0.0,0.0,0.0,0.0,0.0,0.0,0.0,0.0,0.0,0.0,0.0,0.0,0.0,0.0,0.0,0.0,0.0,0.0,0.0,0.0,0.0,0.0,0.0,0.0,0.0,0.0,0.0,0.0,0.0,0.0,0.0,0.0,0.0,0.0,0.0,0.0,0.0,0.0,0.0,0.0,0.0,0.0,0.0,0.0,0.0,0.0,0.0,0.0,0.0,0.0,0.0,0.0,0.0,0.0,0.0,0.0,0.0,0.0,0.0,0.0,0.0,2.1076,2.1788,2.1981,2.1619,2.11,2.0267,0.0,0.0,0.0,0.0,0.0,0.0,0.0,0.0,0.0,0.0,0.0,0.0,0.0,0.0,0.0,0.0,0.0,0.0,0.0,0.0,0.0,0.0,0.0,0.0,0.0,0.0,0.0,0.0,0.0,0.0,0.0,0.0,0.0,0.0,0.0,0.0,0.0,0.0,0.0,0.0,0.0,0.0,0.0,0.0,0.0,0.0,0.0,0.0,0.0,0.0,0.0,0.0,0.0,0.0,0.0,0.0,0.0,0.0,0.0,0.0,0.0,0.0,0.0,0.0,0.0,0.0,0.0,0.0,0.0,0.0,0.0,0.0,0.0,0.0,0.0,0.0,0.0,0.0,0.0,0.0,0.0,0.0,0.0,0.0,0.0,0.0,0.0,0.0,0.0,0.0,0.0,0.0,0.0,0.0,0.0,0.0,0.0,0.0,0.0,0.0,0.0,0.0,0.0,0.0,0.0,0.0,0.0,0.0,0.0,2.3333,2.349,2.3393,2.3068,2.2343,2.1281,1.9869,0.0,0.0,0.0,0.0,0.0,0.0,0.0,0.0,0.0,0.0,0.0,0.0,0.0,0.0,0.0,0.0,0.0,0.0,0.0,0.0,0.0,0.0,0.0,0.0,0.0,0.0,0.0,0.0,0.0,0.0,0.0,0.0,0.0,0.0,0.0,0.0,0.0,0.0,0.0,0.0,0.0,0.0,0.0,0.0,0.0,0.0,0.0,0.0,0.0,0.0,0.0,0.0,0.0,0.0,0.0,0.0,0.0,0.0,0.0,0.0,0.0,0.0,0.0,0.0,0.0,0.0,0.0,0.0,0.0,0.0,0.0,0.0,0.0,0.0,0.0,0.0,0.0,0.0,0.0,0.0,0.0,0.0,0.0,0.0,0.0,0.0,0.0,0.0,0.0,0.0,0.0,0.0,0.0,0.0,0.0,0.0,0.0,0.0,0.0,0.0,0.0,0.0,0.0,0.0,0.0,0.0,0.0,0.0,2.6749,2.5892,2.5385,2.5204,2.4178,2.2838,0.0,0.0,0.0,0.0,0.0,0.0,0.0,0.0,0.0,0.0,0.0,0.0,0.0,0.0,0.0,0.0,0.0,0.0,0.0,0.0,0.0,0.0,0.0,0.0,0.0,0.0,0.0,0.0,0.0,0.0,0.0,0.0,0.0,0.0,0.0,0.0,0.0,0.0,0.0,0.0,0.0,0.0,0.0,0.0,0.0,0.0,0.0,0.0,0.0,0.0,0.0,0.0,0.0,0.0,0.0,0.0,0.0,0.0,0.0,0.0,0.0,0.0,0.0,0.0,0.0,0.0,0.0,0.0,0.0,0.0,0.0,0.0,0.0,0.0,0.0,0.0,0.0,0.0,0.0,0.0,0.0,0.0,0.0,0.0,0.0,0.0,0.0,0.0,0.0,0.0,0.0,0.0,0.0,0.0,0.0,0.0,0.0,0.0,0.0,0.0,0.0,0.0,0.0,0.0,0.0,0.0,0.0,0.0,0.0,2.856,2.9562,2.9383,2.8002,2.6696,2.496,0.0,0.0,0.0,0.0,0.0,0.0,0.0,0.0,0.0,0.0,0.0,0.0,0.0,0.0,0.0,0.0,0.0,0.0,0.0,0.0,0.0,0.0,0.0,0.0,0.0,0.0,0.0,0.0,0.0,0.0,0.0,0.0,0.0,0.0,0.0,0.0,0.0,0.0,0.0,0.0,0.0,0.0,0.0,0.0,0.0,0.0,0.0,0.0,0.0,0.0,0.0,0.0,0.0,0.0,0.0,0.0,0.0,0.0,0.0,0.0,0.0,0.0,0.0,0.0,0.0,0.0,0.0,0.0,0.0,0.0,0.0,0.0,0.0,0.0,0.0,0.0,0.0,0.0,0.0,0.0,0.0,0.0,0.0,0.0,0.0,0.0,0.0,0.0,0.0,0.0,0.0,0.0,0.0,0.0,0.0,0.0,0.0,0.0,0.0,0.0,0.0,0.0,0.0,0.0,0.0,0.0,0.0,0.0,2.7413,3.0515,3.2145,3.2735,3.2169,2.9375,2.7147,0.0,0.0,0.0,0.0,0.0,0.0,0.0,0.0,0.0,0.0,0.0,0.0,0.0,0.0,0.0,0.0,0.0,0.0,0.0,0.0,0.0,0.0,0.0,0.0,0.0,0.0,0.0,0.0,0.0,0.0,0.0,0.0,0.0,0.0,0.0,0.0,0.0,0.0,0.0,0.0,0.0,0.0,0.0,0.0,0.0,0.0,0.0,0.0,0.0,0.0,0.0,0.0,0.0,0.0,0.0,0.0,0.0,0.0,0.0,0.0,0.0,0.0,0.0,0.0,0.0,0.0,0.0,0.0,0.0,0.0,0.0,0.0,0.0,0.0,0.0,0.0,0.0,0.0,0.0,0.0,0.0,0.0,0.0,0.0,0.0,0.0,0.0,0.0,0.0,0.0,0.0,0.0,0.0,0.0,0.0,0.0,0.0,0.0,0.0,0.0,0.0,0.0,0.0,0.0,0.0,0.0,0.0,0.0,2.8898,3.229,3.3919,3.5194,3.6255,3.2237,2.908,0.0,0.0,0.0,0.0,0.0,0.0,0.0,0.0,0.0,0.0,0.0,0.0,0.0,0.0,0.0,0.0,0.0,0.0,0.0,0.0,0.0,0.0,0.0,0.0,0.0,0.0,0.0,0.0,0.0,0.0,0.0,0.0,0.0,0.0,0.0,0.0,0.0,0.0,0.0,0.0,0.0,0.0,0.0,0.0,0.0,0.0,0.0,0.0,0.0,0.0,0.0,0.0,0.0,0.0,0.0,0.0,0.0,0.0,0.0,0.0,0.0,0.0,0.0,0.0,0.0,0.0,0.0,0.0,0.0,0.0,0.0,0.0,0.0,0.0,0.0,0.0,0.0,0.0,0.0,0.0,0.0,0.0,0.0,0.0,0.0,0.0,0.0,0.0,0.0,0.0,0.0,0.0,0.0,0.0,0.0,0.0,0.0,0.0,0.0,0.0,0.0,0.0,0.0,0.0,0.0,0.0,0.0,0.0,3.0165,3.3364,3.5006,3.6547,3.7494,3.436,3.1476,0.0,0.0,0.0,0.0,0.0,0.0,0.0,0.0,0.0,0.0,0.0,0.0,0.0,0.0,0.0,0.0,0.0,0.0,0.0,0.0,0.0,0.0,0.0,0.0,0.0,0.0,0.0,0.0,0.0,0.0,0.0,0.0,0.0,0.0,0.0,0.0,0.0,0.0,0.0,0.0,0.0,0.0,0.0,0.0,0.0,0.0,0.0,0.0,1.7708,0.0,0.0,0.0,0.0,0.0,0.0,0.0,0.0,0.0,0.0,0.0,0.0,0.0,0.0,0.0,0.0,0.0,0.0,0.0,0.0,0.0,0.0,0.0,0.0,0.0,0.0,0.0,0.0,0.0,0.0,0.0,0.0,0.0,0.0,0.0,0.0,0.0,0.0,0.0,0.0,0.0,0.0,0.0,0.0,0.0,0.0,0.0,0.0,0.0,0.0,0.0,0.0,0.0,0.0,0.0,0.0,0.0,0.0,0.0,3.1372,3.4257,3.5911,3.7102,3.7986,3.5585,3.3121,0.0,0.0,0.0,0.0,0.0,0.0,0.0,0.0,0.0,0.0,0.0,0.0,0.0,0.0,0.0,0.0,0.0,0.0,0.0,0.0,0.0,0.0,0.0,0.0,0.0,0.0,0.0,0.0,0.0,0.0,0.0,0.0,0.0,0.0,0.0,0.0,0.0,0.0,0.0,0.0,0.0,0.0,0.0,0.0,0.0,0.0,0.0,0.0,0.0,0.0,0.0,0.0,0.0,0.0,0.0,0.0,0.0,0.0,0.0,0.0,0.0,0.0,0.0,0.0,0.0,0.0,0.0,0.0,0.0,0.0,0.0,0.0,0.0,0.0,0.0,0.0,0.0,0.0,0.0,0.0,0.0,0.0,0.0,0.0,0.0,0.0,0.0,0.0,0.0,0.0,0.0,0.0,0.0,0.0,0.0,0.0,0.0,0.0,0.0,0.0,0.0,0.0,0.0,0.0,0.0,0.0,0.0,3.0033,3.2664,3.5241,3.682,3.8089,3.8445,3.655,3.4257,3.1784,0.0,0.0,0.0,0.0,0.0,0.0,0.0,0.0,0.0,0.0,0.0,0.0,0.0,0.0,0.0,0.0,0.0,0.0,0.0,0.0,0.0,0.0,0.0,0.0,0.0,0.0,0.0,0.0,0.0,0.0,0.0,0.0,0.0,0.0,0.0,0.0,0.0,0.0,1.8312,1.9929,0.0,0.0,0.0,0.0,0.0,0.0,0.0,0.0,2.0158,0.0,0.0,0.0,0.0,0.0,0.0,0.0,0.0,0.0,0.0,0.0,0.0,0.0,0.0,0.0,0.0,0.0,0.0,0.0,0.0,0.0,0.0,0.0,0.0,0.0,0.0,0.0,0.0,0.0,0.0,0.0,0.0,0.0,0.0,0.0,0.0,0.0,0.0,0.0,0.0,0.0,0.0,0.0,0.0,0.0,0.0,0.0,0.0,0.0,0.0,0.0,0.0,0.0,0.0,0.0,0.0,2.9132,3.1984,3.4726,3.7228,3.8492,3.8979,3.8877,3.6946,3.4489,3.1784,0.0,0.0,0.0,0.0,0.0,0.0,0.0,0.0,0.0,0.0,0.0,0.0,0.0,0.0,0.0,0.0,0.0,0.0,0.0,0.0,0.0,0.0,0.0,0.0,0.0,0.0,0.0,0.0,0.0,0.0,0.0,0.0,0.0,0.0,0.0,0.0,0.0,0.0,0.0,2.1897,2.2657,0.0,0.0,0.0,0.0,0.0,0.0,0.0,0.0,2.1185,0.0,0.0,0.0,0.0,0.0,0.0,0.0,0.0,0.0,0.0,0.0,0.0,0.0,0.0,0.0,0.0,0.0,0.0,0.0,0.0,0.0,0.0,0.0,0.0,0.0,0.0,0.0,0.0,0.0,0.0,0.0,0.0,0.0,0.0,0.0,0.0,0.0,0.0,0.0,0.0,0.0,0.0,0.0,0.0,0.0,0.0,0.0,0.0,0.0,0.0,0.0,0.0,0.0,0.0,0.0,2.9624,3.2776,3.5431,3.7606,3.8776,3.9124,3.8831,3.6888,3.4426,0.0,0.0,0.0,0.0,0.0,0.0,0.0,0.0,0.0,0.0,0.0,0.0,0.0,0.0,0.0,0.0,0.0,0.0,0.0,0.0,0.0,0.0,0.0,0.0,0.0,0.0,0.0,0.0,0.0,0.0,0.0,0.0,0.0,0.0,0.0,0.0,0.0,0.0,0.0,0.0,2.3104,2.3961,2.4251,0.0,0.0,0.0,0.0,0.0,0.0,2.3007,2.2742,0.0,0.0,0.0,0.0,0.0,0.0,0.0,0.0,0.0,0.0,0.0,0.0,0.0,0.0,0.0,0.0,0.0,0.0,0.0,0.0,0.0,0.0,0.0,0.0,0.0,0.0,0.0,0.0,0.0,0.0,0.0,0.0,0.0,0.0,0.0,0.0,0.0,0.0,0.0,0.0,0.0,0.0,0.0,0.0,0.0,0.0,0.0,0.0,0.0,0.0,0.0,0.0,0.0,0.0,0.0,3.0277,3.3667,3.624,3.8172,3.9176,3.9138,3.8703,3.6458,3.3967,0.0,0.0,0.0,0.0,0.0,0.0,0.0,0.0,0.0,0.0,0.0,0.0,0.0,0.0,0.0,0.0,0.0,0.0,0.0,0.0,0.0,0.0,0.0,0.0,0.0,0.0,0.0,0.0,0.0,0.0,0.0,0.0,0.0,0.0,0.0,0.0,0.0,0.0,0.0,0.0,0.0,2.5108,2.5747,2.547,0.0,0.0,0.0,0.0,2.4758,2.4709,0.0,0.0,0.0,0.0,0.0,0.0,0.0,0.0,0.0,0.0,0.0,0.0,0.0,0.0,0.0,0.0,0.0,0.0,0.0,0.0,0.0,0.0,0.0,0.0,0.0,0.0,0.0,0.0,0.0,0.0,0.0,0.0,0.0,0.0,0.0,0.0,0.0,0.0,0.0,0.0,0.0,0.0,0.0,0.0,0.0,0.0,0.0,0.0,0.0,0.0,0.0,0.0,0.0,0.0,0.0,0.0,3.1891,3.5006,3.7662,3.9641,4.0119,3.9774,3.8605,3.6347,3.3681,0.0,0.0,0.0,0.0,0.0,0.0,0.0,0.0,0.0,0.0,0.0,0.0,0.0,0.0,0.0,0.0,0.0,0.0,0.0,0.0,0.0,0.0,0.0,0.0,0.0,0.0,0.0,0.0,0.0,0.0,0.0,0.0,0.0,0.0,0.0,0.0,0.0,0.0,0.0,0.0,0.0,2.6049,2.7051,2.7135,2.6906,0.0,0.0,2.6411,2.6665,2.6303,0.0,0.0,0.0,0.0,0.0,0.0,0.0,0.0,0.0,0.0,0.0,0.0,0.0,0.0,0.0,0.0,0.0,0.0,0.0,0.0,0.0,0.0,0.0,0.0,0.0,0.0,0.0,0.0,0.0,0.0,0.0,0.0,0.0,0.0,0.0,0.0,0.0,0.0,0.0,0.0,0.0,0.0,0.0,0.0,0.0,0.0,0.0,0.0,0.0,0.0,0.0,0.0,0.0,0.0,0.0,2.815,3.2038,3.5137,3.7622,3.9466,3.9827,3.9412,3.8223,3.6086,3.328,0.0,0.0,0.0,0.0,0.0,0.0,0.0,0.0,0.0,0.0,0.0,0.0,0.0,0.0,0.0,0.0,0.0,0.0,0.0,0.0,0.0,0.0,0.0,0.0,0.0,0.0,0.0,0.0,0.0,0.0,0.0,0.0,0.0,0.0,0.0,0.0,0.0,0.0,0.0,0.0,0.0,0.0,2.8113,2.8584,0.0,0.0,0.0,2.8475,2.8572,0.0,0.0,0.0,0.0,0.0,0.0,0.0,0.0,0.0,0.0,0.0,0.0,0.0,0.0,0.0,0.0,0.0,0.0,0.0,0.0,0.0,0.0,0.0,0.0,0.0,0.0,0.0,0.0,0.0,0.0,0.0,0.0,0.0,0.0,0.0,0.0,0.0,0.0,0.0,0.0,0.0,0.0,0.0,0.0,0.0,0.0,0.0,0.0,0.0,0.0,0.0,0.0,0.0,0.0,0.0,0.0,0.0,3.2171,3.5044,3.7368,3.9092,3.9306,3.8838,3.7716,3.5645,0.0,0.0,0.0,0.0,0.0,0.0,0.0,0.0,0.0,0.0,0.0,0.0,0.0,0.0,0.0,0.0,0.0,0.0,0.0,0.0,0.0,0.0,0.0,0.0,0.0,0.0,0.0,1.4135,0.0,0.0,0.0,0.0,0.0,0.0,0.0,0.0,0.0,0.0,0.0,0.0,0.0,0.0,2.722,2.9139,2.9924,3.0322,0.0,0.0,3.0189,3.0202,2.9634,2.8669,0.0,0.0,0.0,0.0,0.0,0.0,0.0,0.0,0.0,0.0,0.0,0.0,0.0,0.0,0.0,0.0,0.0,0.0,0.0,0.0,0.0,0.0,0.0,0.0,0.0,0.0,0.0,0.0,0.0,0.0,0.0,0.0,0.0,0.0,0.0,0.0,0.0,0.0,0.0,0.0,0.0,0.0,0.0,0.0,0.0,0.0,0.0,0.0,0.0,0.0,0.0,0.0,0.0,0.0,0.0,3.2438,3.5137,3.7355,3.9078,3.8905,3.8344,3.7408,3.5164,3.2545,0.0,0.0,0.0,0.0,0.0,0.0,0.0,0.0,0.0,0.0,0.0,0.0,0.0,0.0,0.0,0.0,0.0,0.0,0.0,0.0,0.0,0.0,0.0,0.0,0.0,0.0,0.0,0.0,0.0,0.0,0.0,0.0,0.0,0.0,0.0,0.0,0.0,0.0,0.0,0.0,0.0,2.8101,3.0214,3.1179,3.1759,0.0,0.0,3.1288,3.1276,3.0419,2.92,2.763,0.0,0.0,0.0,0.0,0.0,0.0,0.0,0.0,0.0,0.0,0.0,0.0,0.0,0.0,0.0,0.0,0.0,0.0,0.0,0.0,0.0,0.0,0.0,0.0,0.0,0.0,0.0,0.0,0.0,0.0,0.0,0.0,0.0,0.0,0.0,0.0,0.0,0.0,0.0,0.0,0.0,0.0,0.0,0.0,0.0,0.0,0.0,0.0,0.0,0.0,0.0,0.0,0.0,2.8493,3.2225,3.4897,3.7008,3.8517,3.8491,3.801,3.7128,3.5191,3.2772,0.0,0.0,0.0,0.0,0.0,0.0,0.0,0.0,0.0,0.0,0.0,0.0,0.0,0.0,0.0,0.0,0.0,0.0,0.0,0.0,0.0,0.0,0.0,0.0,0.0,0.0,0.0,0.0,1.7346,1.7696,1.737,0.0,0.0,0.0,0.0,0.0,0.0,0.0,0.0,0.0,0.0,2.8439,3.0552,3.1674,0.0,0.0,3.2362,3.2073,3.1916,3.0986,2.9755,2.8162,2.6049,0.0,0.0,0.0,0.0,0.0,0.0,0.0,0.0,0.0,0.0,0.0,0.0,0.0,0.0,0.0,0.0,0.0,0.0,0.0,0.0,0.0,0.0,0.0,0.0,0.0,0.0,0.0,0.0,0.0,0.0,0.0,0.0,0.0,0.0,0.0,0.0,0.0,0.0,0.0,0.0,0.0,0.0,0.0,0.0,0.0,0.0,0.0,0.0,0.0,0.0,0.0,0.0,2.8947,3.2448,3.5139,3.7001,3.8452,3.817,3.7782,3.7061,3.5284,3.3093,0.0,0.0,0.0,0.0,0.0,0.0,0.0,0.0,0.0,0.0,0.0,0.0,0.0,0.0,0.0,0.0,0.0,0.0,0.0,0.0,0.0,0.0,0.0,0.0,0.0,0.0,0.0,0.0,1.7877,1.7986,1.7527,0.0,0.0,0.0,0.0,0.0,0.0,0.0,0.0,0.0,0.0,2.9091,3.0974,3.2085,3.2773,3.2954,3.2761,3.2471,3.2133,3.1252,3.0093,2.8572,0.0,0.0,0.0,0.0,0.0,0.0,0.0,0.0,0.0,0.0,0.0,0.0,0.0,0.0,0.0,0.0,0.0,0.0,0.0,0.0,0.0,0.0,0.0,0.0,0.0,0.0,0.0,0.0,0.0,0.0,1.9876,0.0,0.0,0.0,0.0,0.0,0.0,0.0,0.0,0.0,0.0,0.0,0.0,0.0,0.0,0.0,0.0,0.0,0.0,0.0,0.0,0.0,0.0,2.9944,3.3583,3.5762,3.7661,3.9111,3.821,3.7689,3.7328,3.5391,3.3467,3.1597,0.0,0.0,0.0,0.0,0.0,0.0,0.0,0.0,0.0,0.0,0.0,0.0,0.0,0.0,0.0,0.0,0.0,0.0,0.0,0.0,0.0,0.0,0.0,0.0,0.0,0.0,1.8167,1.8034,1.7781,0.0,0.0,0.0,0.0,0.0,0.0,0.0,0.0,0.0,0.0,2.8234,3.0238,3.159,3.2459,3.2954,3.2978,3.2748,3.2398,3.1891,3.1131,3.0153,0.0,0.0,0.0,0.0,0.0,0.0,0.0,0.0,0.0,0.0,0.0,0.0,0.0,0.0,0.0,0.0,0.0,0.0,0.0,0.0,0.0,0.0,0.0,0.0,0.0,0.0,0.0,2.6168,2.6434,0.0,0.0,0.0,0.0,0.0,0.0,0.0,0.0,0.0,0.0,0.0,3.3296,3.3447,0.0,0.0,0.0,0.0,0.0,0.0,0.0,0.0,0.0,0.0,0.0,0.0,3.0831,3.395,3.6782,3.8538,3.9795,3.9318,3.8577,3.8053,3.6407,3.3814,3.0314,0.0,0.0,0.0,0.0,0.0,0.0,0.0,0.0,0.0,0.0,0.0,0.0,0.0,0.0,0.0,0.0,0.0,0.0,0.0,0.0,0.0,0.0,0.0,0.0,0.0,1.807,0.0,0.0,0.0,0.0,0.0,0.0,0.0,0.0,0.0,0.0,0.0,2.4685,2.6979,2.8898,3.0491,3.165,3.2326,3.2724,0.0,0.0,0.0,0.0,0.0,0.0,0.0,0.0,0.0,0.0,0.0,0.0,0.0,0.0,2.2062,2.05,2.0145,2.0081,2.0091,0.0,0.0,0.0,0.0,0.0,0.0,0.0,0.0,0.0,0.0,0.0,0.0,0.0,0.0,0.0,0.0,2.9456,0.0,0.0,0.0,0.0,0.0,0.0,0.0,0.0,3.5589,3.706,3.8285,3.8425,3.8233,0.0,3.6852,3.3984,0.0,0.0,0.0,0.0,0.0,0.0,0.0,0.0,3.275,3.5618,3.8236,4.0154,4.0888,4.0448,3.9743,3.9085,3.6972,3.4163,3.0488,2.7865,2.5388,0.0,0.0,0.0,0.0,0.0,0.0,0.0,0.0,0.0,0.0,0.0,0.0,0.0,0.0,0.0,0.0,0.0,0.0,0.0,0.0,0.0,0.0,0.0,1.8843,0.0,0.0,0.0,0.0,0.0,0.0,0.0,0.0,0.0,2.2392,2.419,2.6218,2.8234,2.9731,3.0914,3.1698,0.0,0.0,0.0,0.0,0.0,0.0,0.0,3.0733,2.9839,2.9081,2.8171,2.6976,2.6199,2.5626,2.5475,0.0,0.0,2.2912,2.2503,2.2535,2.2611,2.2815,2.2923,2.2783,2.3246,2.3623,0.0,0.0,0.0,0.0,0.0,0.0,0.0,0.0,3.4802,3.4802,0.0,3.5277,0.0,0.0,0.0,0.0,0.0,3.2659,0.0,0.0,3.968,4.1408,4.2833,4.326,4.3064,4.2316,4.1533,4.0345,3.8557,3.2619,0.0,0.0,0.0,0.0,0.0,0.0,3.5604,3.8426,4.0547,4.2122,4.2738,4.2021,4.1159,4.0387,3.7317,3.4558,3.2185,3.0,2.7617,2.5417,2.2671,0.0,0.0,0.0,0.0,0.0,0.0,0.0,0.0,0.0,0.0,0.0,0.0,0.0,0.0,0.0,0.0,0.0,0.0,0.0,0.0,1.9314,0.0,0.0,0.0,0.0,0.0,0.0,0.0,0.0,0.0,0.0,2.4432,2.5989,2.7775,2.9586,0.0,0.0,0.0,0.0,3.2217,3.2242,3.2229,3.2145,3.1891,3.1831,3.165,3.1131,0.0,0.0,2.7891,2.7633,2.737,2.7381,2.7972,2.7969,2.5517,2.5115,2.5137,2.5184,2.5399,2.5583,2.5604,2.5862,2.6164,4.4453,0.0,0.0,0.0,0.0,3.8805,3.985,4.0969,4.0873,4.0541,4.0271,3.9207,0.0,0.0,0.0,0.0,0.0,0.0,3.9341,4.1796,4.3524,4.5015,4.627,4.667,4.6598,4.6088,4.5579,4.4521,4.2892,3.9974,3.6234,3.1821,0.0,0.0,0.0,0.0,3.8415,4.1032,4.3013,4.4221,4.5147,4.3931,4.2296,3.9849,3.8354,3.6603,3.4585,3.2736,3.0576,2.8128,2.5499,0.0,0.0,0.0,0.0,0.0,0.0,0.0,0.0,0.0,0.0,0.0,0.0,0.0,0.0,0.0,0.0,0.0,0.0,0.0,2.0134,2.0726,2.0726,0.0,0.0,0.0,0.0,0.0,0.0,0.0,0.0,0.0,2.7498,2.8258,2.92,0.0,0.0,3.1783,3.2048,3.2314,3.2543,3.2736,0.0,0.0,0.0,3.2483,3.2314,3.2157,3.1363,3.0378,2.9382,2.9227,2.906,2.905,2.9557,2.9855,2.9117,2.8555,2.82,2.798,2.8005,2.7895,2.7359,2.7671,2.7865,4.9863,4.5773,4.3188,4.2252,4.2527,4.3169,4.405,4.5003,4.5317,4.5095,4.4306,4.2939,4.112,3.941,3.8199,0.0,0.0,0.0,4.3151,4.5223,4.6819,4.8121,4.9111,4.9551,4.9514,4.9111,4.8579,4.7649,4.6543,4.4943,4.2456,3.8754,0.0,0.0,3.7025,3.9236,4.1525,4.3957,4.5516,4.6622,4.7083,4.5404,4.3146,4.0589,3.9187,3.7638,3.6102,3.4308,3.2246,2.9677,2.7564,2.4819,0.0,0.0,0.0,0.0,0.0,0.0,0.0,0.0,0.0,0.0,0.0,1.5692,1.6308,0.0,0.0,0.0,1.9229,2.0424,2.1583,2.1933,0.0,0.0,0.0,0.0,0.0,0.0,0.0,2.5168,2.6749,2.8258,2.9622,3.031,3.0829,3.1264,3.1783,3.2217,3.2471,0.0,3.2881,3.3243,3.3304,3.3304,3.3304,3.3255,3.3219,3.2996,3.223,3.1466,3.0692,3.0269,3.0051,3.0051,3.0508,3.0975,3.1203,3.1122,3.0745,3.0148,3.0052,2.9888,2.9316,2.9303,2.9157,5.4172,5.2485,4.8726,4.7039,4.6892,4.7314,4.7919,4.8579,4.8682,4.8281,4.7846,4.6164,4.4819,4.3719,4.2619,0.0,4.3316,4.4911,4.6452,4.7992,4.9514,5.0633,5.1367,5.1733,5.1733,5.133,5.0615,5.0065,4.9569,4.8084,4.713,4.6617,4.1864,4.001,4.1065,4.2708,4.4586,4.6793,4.8053,4.8919,4.8923,4.639,4.4189,4.2204,4.0378,3.8485,3.6954,3.5277,3.3293,3.0927,2.895,2.6386,2.3052,0.0,0.0,0.0,0.0,0.0,0.0,0.0,0.0,0.0,0.0,0.0,0.0,0.0,0.0,0.0,2.0979,0.0,2.2766,2.3068,0.0,0.0,0.0,2.3043,2.3333,2.4516,2.5808,2.7123,0.0,0.0,3.0962,0.0,3.2471,3.1988,3.2374,3.2773,3.3014,3.3074,3.3268,3.3775,3.3859,3.3859,3.3907,3.4064,3.3943,3.346,3.2851,3.2158,3.1452,3.1,3.0768,3.0535,3.1,3.1684,3.2169,3.2563,3.3012,3.2264,3.175,3.127,3.1226,3.0747,3.042,5.5915,5.5163,5.3567,5.1843,5.0211,5.0615,5.1073,5.1477,5.111,5.078,5.0358,4.8983,4.7589,4.6232,4.5957,4.6085,4.6617,4.7901,4.9038,5.001,5.0706,5.1293,5.1788,5.1898,5.188,5.177,5.1605,5.1293,5.0853,4.99,4.9184,4.8708,4.69,4.5768,4.522,4.5976,4.7382,4.9007,4.9566,4.9704,4.9214,4.7545,4.5767,4.3523,4.2054,4.056,3.8814,3.6907,3.4881,3.2689,3.0154,2.7444,2.4591,2.2411,0.0,0.0,0.0,0.0,0.0,0.0,0.0,0.0,0.0,1.731,1.8505,0.0,2.0195,0.0,2.2705,2.3804,2.413,2.4589,0.0,0.0,2.4939,2.5566,2.6037,2.6894,2.7968,2.9308,3.0141,3.095,3.1807,3.2652,3.3147,3.3026,3.3292,3.3533,3.3593,3.3775,3.4016,3.4306,3.4378,3.4463,3.4619,3.4728,3.4459,3.3583,3.3467,3.3138,3.2198,3.1727,3.1492,3.1267,3.1492,3.1963,3.2187,3.3138,3.3584,3.3502,3.2979,3.2482,3.2011,3.1634,3.142,5.7235,5.6667,5.6208,5.5016,5.3457,5.3146,5.3127,5.3292,5.2907,5.2614,5.232,5.111,4.9881,4.8744,4.8708,4.8928,4.9368,5.0376,5.1183,5.1807,5.2394,5.2779,5.2999,5.2815,5.2742,5.2724,5.2375,5.2082,5.1825,5.1238,5.0725,5.0303,4.9845,4.9203,4.8414,4.8489,4.9144,5.0526,5.0738,5.0455,4.9655,4.8123,4.6338,4.4532,4.2641,4.0787,3.9162,3.7089,3.4827,3.2746,3.0529,2.823,2.583,2.3841,2.1771,0.0,0.0,0.0,0.0,0.0,0.0,0.0,0.0,0.0,0.0,0.0,2.1824,2.2995,2.4323,2.518,2.5325,2.6037,2.6339,2.5977,2.6737,2.7449,2.7872,2.8729,2.9646,3.0624,3.1312,3.1964,3.264,3.3304,3.3787,3.3883,3.4137,3.4269,3.4173,3.4269,3.445,3.4704,3.4752,3.4788,3.4945,3.497,3.4909,3.4321,3.4158,3.3782,3.2602,3.2366,3.1903,3.1429,3.1429,3.1903,3.2129,3.285,3.3523,3.3829,3.3768,3.3519,3.2805,3.2367,3.1875,5.8152,5.7455,5.74,5.696,5.6226,5.5053,5.4539,5.4466,5.4062,5.3861,5.3751,5.265,5.177,5.111,5.111,5.1293,5.166,5.2412,5.2944,5.3292,5.4007,5.4338,5.4319,5.3916,5.3751,5.3714,5.2962,5.2595,5.2577,5.221,5.1807,5.1403,5.1348,5.111,5.0706,5.001,5.0193,5.1293,5.166,5.1284,5.0099,4.8291,4.667,4.523,4.2673,4.0594,3.8998,3.6622,3.4315,3.2233,3.0794,2.8964,2.6813,2.5327,2.3629,0.0,2.0609,0.0,0.0,0.0,0.0,0.0,0.0,0.0,0.0,2.2536,2.3611,2.4927,2.588,2.6447,2.652,2.7425,2.7836,2.7425,2.8258,2.8994,2.9308,3.0177,3.0974,3.1529,3.2217,3.2833,3.334,3.3883,3.4281,3.4499,3.4728,3.4813,3.4668,3.4619,3.4704,3.4945,3.497,3.4945,3.497,3.497,3.4957,3.4957,3.4488,3.3782,3.3074,3.2602,3.214,3.144,3.1203,3.1429,3.1903,3.258,3.3195,3.3467,3.3868,3.3895,3.3401,3.2744,3.2284,5.8299,5.784,5.751,5.729,5.707,5.619,5.5621,5.5291,5.4869,5.4521,5.4172,5.3641,5.3311,5.3182,5.3164,5.3219,5.3311,5.3787,5.4026,5.4117,5.4264,5.4338,5.4301,5.3934,5.3751,5.3714,5.3237,5.2999,5.2999,5.2595,5.221,5.1807,5.1477,5.111,5.0743,0.0,0.0,0.0,5.1385,5.1202,5.0498,4.8922,4.7164,4.5647,4.3121,0.0,3.9339,3.6869,3.5083,3.3838,3.1699,0.0,0.0,0.0,0.0,0.0,0.0,0.0,0.0,0.0,0.0,0.0,2.4705,2.4251,2.3225,2.4395,2.5784,2.7063,2.7389,2.7691,2.8137,2.8729,2.9067,2.9006,2.9719,3.0419,3.089,3.1324,3.1855,3.2592,3.2821,3.3111,3.3642,3.3992,3.4281,3.4559,3.4801,3.4933,3.4897,3.4873,3.4909,3.4957,3.497,3.497,3.497,3.497,3.497,3.497,3.4957,3.4253,3.3322,3.3086,3.2377,3.1429,3.1192,3.1192,3.1429,3.222,3.2778,3.2954,3.3507,3.3871,3.3632,3.3416,3.3212,5.8831,0.0,5.806,5.7749,0.0,5.6942,5.641,5.5823,5.5401,5.4998,5.4613,5.4411,5.4209,5.4026,5.4044,5.4044,5.4044,5.4448,5.4631,5.4631,5.4833,5.4943,5.4924,5.4319,5.4044,5.4007,5.3402,5.3109,5.3109,5.2907,5.2522,5.1935,5.1733,5.1312,5.0743,5.0725,5.0817,5.1018,5.1018,5.0725,5.0101,4.8727,4.7147,4.5724,0.0,0.0,0.0,0.0,0.0,0.0,0.0,0.0,0.0,0.0,0.0,2.6518,2.6187,2.6013,2.5847,2.559,2.5892,2.6834,2.7182,2.6701,2.5494,2.652,2.7486,2.8149,2.8681,2.9055,2.92,2.9803,3.0189,3.0226,3.0793,3.136,3.1747,3.2145,3.2531,3.2917,3.3219,3.3545,3.3931,3.4209,3.4475,3.4728,3.4873,3.497,3.497,3.497,3.497,3.497,3.497,3.497,3.497,3.497,3.497,3.497,3.497,3.45,3.3322,3.3074,3.2613,3.1429,3.1192,3.1192,3.1645,3.2176,3.2675,3.299,3.3377,3.3738,3.3618,3.3473,3.3376,5.9344,5.8702,5.8629,5.8207,5.7583,5.7437,5.6905,5.6135,0.0,0.0,0.0,5.5034,5.4851,5.4558,5.4539,5.4558,5.4576,5.4888,5.5034,5.5053,5.5383,5.5548,5.5511,5.4723,5.4338,5.4301,5.3494,5.3109,5.3109,5.3109,5.2705,5.2009,5.1935,5.1532,5.078,5.0725,5.0725,5.0725,5.0725,5.0321,4.9514,4.8469,4.7332,4.5932,4.361,4.1567,4.0193,3.7909,3.628,3.5306,3.47,3.3816,3.2461,3.2267,3.115,2.9322,2.9234,2.9095,2.8347,2.8143,2.8176,2.8856,2.8824,2.8717,2.7968,2.8475,2.8898,2.9019,2.9803,3.0214,3.0093,3.0708,3.1167,3.1203,3.165,3.2048,3.2326,3.27,3.299,3.3147,3.3521,3.3919,3.4209,3.4426,3.4668,3.4897,3.4957,3.497,3.497,3.497,3.497,3.497,3.497,3.497,3.497,3.497,3.497,3.497,3.497,3.4488,3.3546,3.3074,3.2602,3.1903,3.1429,3.1667,3.2118,3.26,3.2827,3.307,3.3475,3.3654,3.3437,3.3376,3.3364,5.9509,5.9069,5.8739,5.8537,5.8372,5.7675,5.6923,5.6135,5.5731,5.5511,5.5456,5.5456,5.5438,5.5365,5.5383,5.5365,5.5383,5.5438,5.5456,0.0,5.553,5.5548,5.5493,5.4704,5.4338,5.4264,5.3512,5.3109,5.3109,5.3109,5.2705,5.2027,5.1935,5.1532,5.078,5.0725,5.0725,5.0725,5.0725,5.0321,4.9514,4.9001,4.796,4.635,4.4213,4.2626,4.1751,3.9328,3.804,3.7799,3.6633,3.5572,3.4719,3.4395,3.3676,3.2368,3.2834,3.2727,3.1941,3.1919,3.1772,3.1051,3.0876,3.0431,2.9876,2.9707,2.9924,3.0564,3.0612,3.0733,3.1119,3.1481,3.1783,3.2,3.229,3.2579,3.2821,3.293,3.3171,3.3593,3.3738,3.3992,3.4414,3.4547,3.4692,3.4897,3.497,3.497,3.497,3.497,3.497,3.497,3.497,3.497,3.497,3.497,3.497,3.497,3.497,3.4735,3.4017,3.3546,3.3086,3.285,3.2366,3.2366,3.2816,3.2931,3.3129,3.3219,3.3333,3.3449,3.3376,3.3364,3.3364,6.0078,5.9472,5.9087,5.8776,5.85,5.7712,5.7033,5.6465,5.6061,5.575,5.5566,5.5548,5.5548,5.5548,5.5548,5.5548,5.5548,5.5548,5.5548,5.5548,5.5548,5.5548,5.5493,5.4943,5.4539,5.4301,5.3751,5.3347,5.3127,5.3109,5.2815,5.2265,5.1825,5.1403,5.1055,5.0835,5.0725,5.0725,5.0505,5.0211,4.9845,4.9001,4.8194,4.7034,4.4903,4.3324,4.2583,4.0593,3.9388,3.9168,3.8645,3.792,3.6849,3.6632,3.6095,3.5054,3.5316,3.5149,3.4511,3.3932,3.3171,3.2426,3.2115,3.1891,3.1928,3.1194,3.0877,3.1384,3.1445,3.1626,3.2,3.2157,3.2338,3.2604,3.2736,3.2905,3.3135,3.3195,3.3352,3.3726,3.3919,3.4149,3.4523,3.4692,3.4813,3.4957,3.497,3.497,3.497,3.497,3.497,3.497,3.497,3.497,3.497,3.497,3.497,3.497,3.497,3.4723,3.4253,3.3782,3.3546,3.3074,3.2838,3.2782,3.3384,3.3292,3.3254,3.3487,3.344,3.34,3.3364,3.3364,3.3364,6.0573,5.9894,5.9491,5.9032,5.85,5.7804,5.7272,5.685,5.6373,5.5988,5.5695,5.5585,5.5548,5.5548,5.5548,5.5548,5.5548,5.5548,5.5548,5.5548,5.5548,5.5548,5.5511,5.5126,5.4759,5.4429,5.4062,5.3659,5.3292,5.3256,5.2999,5.2504,5.1807,5.1403,5.1312,5.1,5.0817,5.0706,5.0431,5.023,5.0101,4.9093,4.8377,4.7901,4.5622,4.4158,4.3838,4.2099,4.096,4.0686,4.0498,3.9987,3.8955,3.9053,3.8617,3.7639,3.7786,3.7568,3.6802,3.5577,3.4616,3.3862,3.3511,3.3437,3.3559,3.2669,3.196,3.1964,3.2145,3.2374,3.2604,3.2664,3.2785,3.3026,3.3062,3.3147,3.334,3.3424,3.3569,3.3847,3.4113,3.4378,3.4619,3.4837,3.4957,3.4957,3.497,3.497,3.497,3.497,3.497,3.497,3.497,3.497,3.497,3.497,3.497,3.497,3.497,3.4723,3.4253,3.4253,3.4017,3.3546,3.3253,3.3396,3.3665,3.3602,3.3583,3.3608,3.3569,3.3376,3.3364,3.3364,3.3364,6.0738,6.0298,5.9876,5.9271,5.8555,5.8097,5.7675,5.7235,5.652,5.6153,5.6061,5.5713,5.5566,5.5548,5.5548,5.5548,5.5548,5.5548,5.5548,5.5548,5.5548,5.5548,5.5511,5.5126,5.4906,5.4814,5.4466,5.4062,5.3659,5.3641,5.3274,5.2559,5.2082,5.1697,5.1367,5.1275,5.1073,5.0725,5.0688,5.0486,5.0138,4.9643,4.9203,4.8818,4.6933,4.5878,4.57,4.38,4.2621,4.2536,4.1902,4.1374,4.0898,4.0996,4.1024,4.0345,4.0688,4.0561,3.9644,3.7855,3.6481,3.6135,3.5564,3.4911,3.458,3.4286,3.3571,3.298,3.2567,3.2676,3.2917,3.2954,3.3074,3.3304,3.3352,3.3352,3.3424,3.3606,3.3859,3.4113,3.4366,3.4632,3.4849,3.4945,3.497,3.497,3.497,3.497,3.497,3.497,3.497,3.497,3.497,3.497,3.497,3.497,3.497,3.497,3.497,3.497,3.4735,3.4488,3.4017,3.4476,3.4063,3.3921,3.4011,3.4197,3.362,3.3738,3.3545,3.3364,3.3364,3.3364,3.3364,6.0976,6.0371,5.9949,5.9307,5.8592,5.839,5.7969,5.7345,5.7033,5.6612,5.6171,5.5988,5.5786,5.5548,5.5548,5.5548,5.5548,5.5548,5.5548,5.5548,5.5548,5.5548,5.553,5.5383,5.5163,5.4924,5.4759,5.4356,5.3787,5.3494,5.3201,5.287,5.2485,5.2192,5.199,5.155,5.122,5.1073,5.0835,5.0633,5.0468,5.0083,4.968,4.9221,4.7672,4.6717,4.6073,4.4655,4.3814,4.3186,4.2673,4.2294,4.1941,4.1891,4.185,4.17,4.208,4.2004,4.147,4.0299,3.9443,3.9111,3.7749,3.7101,3.7235,3.6171,3.5583,3.5227,3.4208,3.3371,3.3406,3.3364,3.3509,3.3618,3.375,3.3847,3.3859,3.3944,3.4125,3.4378,3.4511,3.468,3.4897,3.497,3.497,3.497,3.497,3.497,3.497,3.497,3.497,3.497,3.497,3.497,3.497,3.497,3.497,3.497,3.497,3.497,3.497,3.4735,3.4723,3.497,3.4483,3.4267,3.4354,3.4076,3.3762,3.363,3.3509,3.3364,3.3364,3.3364,3.3364,6.1123,6.0408,6.0059,5.9527,5.8886,5.8794,5.8354,5.7712,5.7492,5.7033,5.6502,5.6263,5.6006,5.5731,5.5603,5.5548,5.5548,5.5548,5.5548,5.5548,5.5548,5.5548,5.5548,5.5548,5.5401,5.5126,5.5089,5.4686,5.3916,5.3347,5.3109,5.3054,5.2815,5.2632,5.2485,5.1898,5.1532,5.1293,5.1018,5.0835,5.0688,5.045,5.0101,4.9661,4.8379,4.7418,4.6445,4.548,4.4702,4.3734,4.3375,4.3095,4.2944,4.2724,4.2664,4.2907,4.3219,4.3321,4.317,4.2561,4.2108,4.156,4.037,3.979,3.9807,3.882,3.8019,3.7463,3.6104,3.4979,3.4245,3.4228,3.4086,3.405,3.4196,3.4076,3.4064,3.4125,3.4269,3.4523,3.4644,3.474,3.4909,3.497,3.497,3.497,3.497,3.497,3.497,3.497,3.497,3.497,3.497,3.497,3.497,3.497,3.497,3.497,3.497,3.497,3.497,3.497,3.497,3.4933,3.468,3.4438,3.4233,3.3968,3.3654,3.3461,3.3364,3.3364,3.3364,3.3364,3.3364,6.1123,6.0444,6.0371,6.0078,5.9674,5.9289,5.8904,5.8409,5.773,5.7345,5.7162,5.6538,5.6153,5.608,5.575,5.5566,5.5548,5.5548,5.5548,5.5548,5.5548,5.5548,5.5548,5.5548,5.553,5.5475,5.5456,5.5053,5.4264,5.3494,5.3109,5.3109,5.3072,5.2889,5.2595,5.2467,5.2082,5.1458,5.1293,5.111,5.078,5.0706,5.0486,5.0101,4.9253,4.8208,4.7226,4.6434,4.5448,4.4488,4.4145,4.3957,4.3974,4.3974,4.4145,4.434,4.4633,4.4834,4.4762,4.4303,4.396,4.3851,4.3286,4.2971,4.2422,4.2022,4.1173,3.9827,3.9138,3.7955,3.6167,3.5509,3.4978,3.4779,3.4289,3.3895,3.3871,3.4149,3.4306,3.4559,3.4788,3.4909,3.4957,3.497,3.497,3.497,3.497,3.497,3.497,3.497,3.497,3.497,3.497,3.497,3.497,3.497,3.497,3.497,3.497,3.497,3.497,3.497,3.497,3.4861,3.4523,3.4269,3.4113,3.3859,3.3545,3.3364,3.3364,3.3364,3.3364,3.3364,3.3364,6.1123,6.0408,6.0389,6.0151,5.9747,5.9344,5.8959,5.8555,5.8005,5.7602,5.7363,5.7052,5.6648,5.6153,5.6006,5.5786,5.5566,5.5548,5.5548,5.5548,5.5548,5.5548,5.5548,5.5548,5.5548,5.5548,5.5548,5.5126,5.4319,5.3512,5.3109,5.3109,5.3109,5.3035,5.2889,5.265,5.2357,5.2064,5.1605,5.1238,5.1073,5.0853,5.0651,5.0505,4.9914,4.8898,4.7704,4.7323,4.6653,4.5275,4.4899,4.471,4.4727,4.4933,4.5104,4.5293,4.5755,4.6164,4.6041,4.6035,4.6075,4.5993,4.5454,4.5136,4.4758,4.4169,4.3352,4.2617,4.2011,4.0875,3.9005,3.7063,3.5773,3.525,3.5119,3.4962,3.4779,3.4632,3.4728,3.4813,3.4921,3.4957,3.497,3.497,3.497,3.497,3.497,3.497,3.497,3.497,3.497,3.497,3.497,3.497,3.497,3.497,3.497,3.497,3.497,3.497,3.497,3.497,3.497,3.4897,3.4523,3.4161,3.4028,3.3738,3.3424,3.3364,3.3364,3.3364,3.3364,3.3364,3.3364,6.1013,6.0444,6.0389,6.0151,5.9747,5.9362,5.8959,5.8574,5.8152,5.7822,5.7583,5.7437,5.6997,5.6391,5.6226,5.5933,5.5585,5.5548,5.5548,5.5548,5.5548,5.5548,5.5548,5.5548,5.5548,5.553,5.5401,5.4979,5.4338,5.3641,5.3256,5.3127,5.3109,5.3109,5.3054,5.2834,5.2669,5.243,5.1862,5.1458,5.1293,5.0927,5.0725,5.0688,5.0468,4.9502,4.8095,4.8077,4.7471,4.608,4.5601,4.5481,4.5498,4.5704,4.5841,4.5909,4.6423,4.6851,4.7022,4.7144,4.7387,4.764,4.7222,4.7066,4.7174,4.6317,4.5774,4.482,4.4186,4.3048,4.1188,3.9195,3.7436,3.6243,3.5892,3.5538,3.5071,3.4825,3.4861,3.4933,3.4957,3.497,3.497,3.497,3.497,3.497,3.497,3.497,3.497,3.497,3.497,3.497,3.497,3.497,3.497,3.497,3.497,3.497,3.497,3.497,3.497,3.497,3.4945,3.4861,3.4607,3.4221,3.3883,3.3593,3.3461,3.3388,3.3364,3.3364,3.3364,3.3364,3.3364,6.0774,6.0426,6.0389,6.0169,5.9747,5.9344,5.8959,5.8555,5.8152,5.7932,5.7859,5.7565,5.7162,5.6722,5.6355,5.597,5.5603,5.5548,5.5548,5.5548,5.5548,5.5548,5.5548,5.5548,5.5548,5.553,5.5144,5.4741,5.4374,5.3916,5.3512,5.3201,5.3127,5.3109,5.3109,5.3054,5.2907,5.2559,5.2119,5.1715,5.133,5.0945,5.0725,5.0725,5.0688,5.009,4.8692,4.8467,4.7858,4.6493,4.6217,4.6234,4.6149,4.62,4.6234,4.632,4.6628,4.6988,4.7365,4.7793,4.8158,4.8585,4.9043,4.8756,4.8567,4.8412,4.7776,4.6462,4.5561,4.4413,4.2835,4.189,3.9941,3.6948,3.628,3.5598,3.5096,3.4607,3.468,3.5143,3.5204,3.4957,3.4957,3.497,3.497,3.497,3.497,3.497,3.497,3.497,3.497,3.497,3.497,3.497,3.497,3.497,3.497,3.497,3.497,3.497,3.497,3.497,3.497,3.4885,3.4523,3.4137,3.369,3.3424,3.3424,3.3364,3.3364,3.3364,3.3364,3.3364,3.3364,6.1013,6.0426,6.0389,6.0151,5.9747,5.9344,5.8959,5.8537,5.8134,5.7969,5.795,5.784,5.74,5.685,5.6593,5.619,5.5585,5.5548,5.5548,5.5548,5.5548,5.5548,5.5548,5.5548,5.5548,5.5475,5.5126,5.4869,5.4631,5.4081,5.3659,5.3531,5.3256,5.3127,5.3109,5.3109,5.3035,5.287,5.2284,5.1862,5.1678,5.1073,5.0725,5.0725,5.0725,5.0235,4.9502,4.9048,4.8227,4.7253,4.6819,4.6491,4.6337,4.6474,4.6731,4.7005,4.7365,4.7741,4.8118,4.8478,4.8786,4.9077,4.9282,4.9454,4.9352,4.9386,4.8941,4.8049,4.7568,4.6671,4.4866,4.4186,4.2304,3.8326,3.7863,3.7155,3.6212,3.5992,3.6042,3.6104,3.5907,3.5673,3.5427,3.5439,3.5204,3.5204,3.497,3.497,3.497,3.497,3.497,3.497,3.497,3.497,3.497,3.497,3.497,3.497,3.497,3.497,3.497,3.497,3.497,3.4776,3.4414,3.4028,3.3581,3.3364,3.3364,3.3364,3.3364,3.3364,3.3364,3.3364,3.3364,6.1123,6.0426,6.0389,6.0059,5.9564,5.9289,5.8849,5.8354,5.8079,5.7969,5.7969,5.7969,5.7602,5.7088,5.6978,5.652,5.5823,5.5786,5.5695,5.5566,5.5548,5.5548,5.5548,5.5548,5.5548,5.5511,5.5273,5.5071,5.4888,5.4429,5.4044,5.3732,5.3476,5.3256,5.3127,5.3109,5.3109,5.2999,5.2339,5.1935,5.177,5.1147,5.0725,5.0725,5.0725,5.0498,5.0081,4.9454,4.8701,4.7879,4.7198,4.6885,4.6697,4.6885,4.7176,4.7536,4.781,4.8135,4.8632,4.8889,4.9145,4.9282,4.9488,4.9591,4.9625,4.9693,4.959,4.9144,4.9055,4.838,4.6461,4.596,4.4308,4.1432,4.0051,3.8923,3.7762,3.7529,3.7296,3.7296,3.683,3.6596,3.6141,3.5907,3.5661,3.5673,3.5439,3.5439,3.5192,3.5204,3.5204,3.497,3.497,3.497,3.497,3.497,3.497,3.497,3.497,3.497,3.497,3.4957,3.4945,3.4619,3.4269,3.3968,3.3545,3.3412,3.3364,3.3364,3.3364,3.3364,3.3364,3.3364,3.3364,6.1123,6.0463,6.0408,5.9968,5.9307,5.9216,5.8776,5.8115,5.7969,5.7969,5.7969,5.7969,5.773,5.7437,5.7308,5.6887,5.63,5.6116,5.5933,5.5676,5.5585,5.5548,5.5548,5.5548,5.5548,5.5548,5.5511,5.5328,5.5034,5.4851,5.4558,5.3952,5.3769,5.3549,5.3256,5.3146,5.3109,5.2999,5.2339,5.1935,5.188,5.1128,5.0725,5.0725,5.0725,5.0725,5.0517,4.9645,4.8807,4.8193,4.7525,4.7296,4.733,4.7365,4.7502,4.7895,4.7964,4.8409,4.8906,4.9145,4.9265,4.9522,4.9573,4.9591,4.9625,4.9899,4.988,4.9448,4.9752,4.9155,4.795,4.7625,4.6573,4.5155,4.2577,4.0526,3.9372,3.9141,3.9154,3.8446,3.7981,3.7762,3.7296,3.7063,3.683,3.6596,3.6363,3.6129,3.5895,3.5661,3.5192,3.5204,3.5204,3.5204,3.5204,3.497,3.497,3.497,3.497,3.497,3.497,3.4957,3.4801,3.4475,3.4209,3.3895,3.3618,3.3449,3.3364,3.3364,3.3364,3.3364,3.3364,3.3364,3.3364,6.1288,6.0811,6.0536,6.0096,5.9601,5.9326,5.8886,5.839,5.8079,5.7987,5.7969,5.7969,5.7749,5.74,5.7382,5.707,5.6648,5.6318,5.6135,5.597,5.5658,5.5566,5.5548,5.5548,5.5548,5.5548,5.5548,5.5493,5.5365,5.5089,5.4814,5.4613,5.4007,5.3714,5.3567,5.3256,5.3127,5.2999,5.2339,5.1935,5.1807,5.1165,5.0725,5.0725,5.0725,5.0725,5.0517,4.9663,4.8596,4.7788,4.7576,4.7365,4.7365,4.7382,4.7639,4.8186,4.8358,4.8666,4.9265,4.9454,4.9505,4.9573,4.9591,4.9591,4.9625,4.9967,5.0156,5.0016,5.0272,5.0131,4.9131,4.8805,4.7946,4.6527,4.4624,4.3018,4.2577,4.2348,4.1905,4.1675,4.0526,3.9834,3.9372,3.8923,3.824,3.8007,3.7555,3.7348,3.7165,3.6413,3.6204,3.592,3.5673,3.5439,3.5204,3.497,3.497,3.497,3.497,3.497,3.497,3.497,3.468,3.4342,3.4245,3.3992,3.3642,3.3376,3.3364,3.3364,3.3364,3.3364,3.3364,3.3364,3.3364,6.1343,6.0958,6.0573,6.0151,5.9766,5.9527,5.9106,5.861,5.8335,5.8115,5.8005,5.7969,5.784,5.7639,5.762,5.74,5.7015,5.6777,5.6575,5.6336,5.6006,5.5731,5.5603,5.5548,5.5548,5.5548,5.5548,5.5548,5.5511,5.5291,5.5108,5.4814,5.4301,5.3916,5.3696,5.3329,5.3109,5.2999,5.2485,5.2119,5.1898,5.1312,5.0908,5.078,5.0725,5.0517,5.0081,4.9226,4.8614,4.7576,4.7365,4.7365,4.7365,4.7365,4.7724,4.8409,4.8478,4.8803,4.9419,4.9591,4.9591,4.9591,4.9591,4.9591,4.9676,4.9967,5.019,5.0224,5.0515,5.0272,4.9791,4.9588,4.8937,4.8065,4.7104,4.598,4.5077,4.464,4.4413,4.3959,4.3276,4.2348,4.2134,4.1216,4.0596,4.0217,3.9822,3.9438,3.9052,3.801,3.7217,3.697,3.6166,3.5895,3.5427,3.5192,3.497,3.497,3.497,3.497,3.497,3.4945,3.4668,3.439,3.4269,3.4064,3.3678,3.34,3.3364,3.3364,3.3364,3.3364,3.3364,3.3364,3.3364,6.1361,6.1013,6.0591,6.0188,5.9876,5.9784,5.9381,5.8812,5.8592,5.8354,5.8097,5.7987,5.795,5.7969,5.7895,5.7749,5.7437,5.729,5.7033,5.6722,5.6373,5.608,5.5823,5.5603,5.5566,5.5548,5.5548,5.5548,5.553,5.5511,5.5346,5.5016,5.4613,5.4191,5.3879,5.3439,5.3182,5.3054,5.2687,5.2339,5.2045,5.1623,5.1275,5.1055,5.1,5.028,4.9579,4.9105,4.8684,4.7365,4.7365,4.7365,4.7365,4.7365,4.7741,4.8306,4.8512,4.8803,4.9437,4.9591,4.9591,4.9591,4.9591,4.9591,4.9676,5.0002,5.031,5.031,5.0618,5.0687,5.031,4.9899,4.9437,4.9147,4.9369,4.8479,4.6896,4.6221,4.5996,4.5545,4.5319,4.5093,4.4671,4.402,4.3684,4.3062,4.2411,4.2019,4.1334,4.0289,3.9286,3.8322,3.7476,3.6363,3.5895,3.5427,3.5192,3.497,3.497,3.497,3.497,3.4897,3.468,3.4475,3.4306,3.4028,3.3642,3.3461,3.3388,3.3364,3.3364,3.3364,3.3364,3.3364,3.3364,6.1526,6.1398,6.0701,6.0353,6.0224,5.9913,5.9674,5.9454,5.8552,5.8297,5.839,5.8115,5.7987,5.7969,5.7969,5.7895,5.7767,5.7528,5.7162,5.6777,5.6685,5.6593,5.6336,5.5915,5.5585,5.5585,5.5566,5.5548,5.5548,5.5548,5.5511,5.5365,5.4943,5.4594,5.4191,5.3769,5.3421,5.3109,5.2742,5.2522,5.2339,5.2009,5.1733,5.1605,5.1605,5.0824,4.9761,4.9495,4.8719,4.7874,4.7399,4.745,4.7416,4.7416,4.7793,4.8323,4.8529,4.8837,4.9419,4.9591,4.9591,4.9591,4.9591,4.9591,4.9659,5.0207,5.0532,5.0721,5.1183,5.1149,5.0584,4.9967,4.9693,4.9625,4.9591,4.9386,4.8941,4.8255,4.8032,4.7825,4.7153,4.6543,4.6831,4.6182,4.5883,4.5688,4.5318,4.4653,4.3633,4.26,4.132,4.0082,3.8658,3.7529,3.6596,3.6129,3.5439,3.5204,3.5204,3.497,3.497,3.4933,3.4752,3.4547,3.433,3.4004,3.3666,3.3461,3.3376,3.3364,3.3376,3.3364,3.3364,3.3364,3.3364,6.1563,6.149,6.0738,6.0389,6.0353,6.0169,5.9949,5.9729,5.9344,5.8922,5.8592,5.8335,5.8152,5.7969,5.7969,5.7969,5.7932,5.7767,5.7437,5.7125,5.7033,5.6942,5.6722,5.6336,5.6043,5.586,5.5621,5.5566,5.5548,5.5548,5.5548,5.5511,5.5126,5.4833,5.4521,5.4062,5.3659,5.3402,5.3017,5.2724,5.2504,5.2339,5.2082,5.1758,5.1704,5.0937,4.9921,4.969,4.8942,4.8161,4.7878,4.7793,4.7707,4.7793,4.8186,4.8615,4.8769,4.9008,4.9454,4.9591,4.9591,4.9608,4.9591,4.9728,4.9847,5.0293,5.0515,5.0738,5.0995,5.1063,5.0532,5.0207,4.9865,4.9625,4.9608,4.9676,4.9796,4.9488,4.9231,4.9127,4.8763,4.8722,4.8679,4.8129,4.8342,4.8143,4.7283,4.6835,4.5812,4.4744,4.305,4.17,4.0027,3.8691,3.7529,3.6596,3.5895,3.5439,3.5204,3.5204,3.497,3.4933,3.4873,3.4644,3.4402,3.41,3.3787,3.3581,3.34,3.3376,3.3376,3.3376,3.3364,3.3364,3.3364,6.1545,6.1435,6.0701,6.0389,6.0389,6.0389,6.0206,5.9913,6.0121,5.9661,5.8849,5.8924,5.8372,5.8115,5.7987,5.7969,5.7969,5.795,5.7694,5.7492,5.7455,5.7327,5.707,5.6868,5.6667,5.63,5.5896,5.5713,5.5676,5.5585,5.5548,5.5493,5.5236,5.4998,5.4759,5.4319,5.3934,5.3806,5.3421,5.3109,5.2815,5.2687,5.2467,5.2069,5.1585,5.1064,5.0329,4.9845,4.9162,4.8495,4.8546,4.8392,4.8272,4.8306,4.8649,4.9008,4.9008,4.9214,4.9488,4.9608,4.9625,4.9659,4.9693,4.9899,5.019,5.043,5.0635,5.0755,5.0943,5.0858,5.0413,5.031,5.0139,4.9916,4.9796,4.9933,5.0104,4.9967,5.0036,5.0173,5.0051,4.9978,5.0199,4.9929,5.0377,5.035,4.9459,4.85,4.769,4.6571,4.5041,4.3337,4.1863,3.9848,3.8678,3.7529,3.6596,3.6129,3.5673,3.5439,3.5204,3.4945,3.4885,3.4716,3.4463,3.4197,3.3968,3.375,3.3593,3.3473,3.3388,3.3376,3.3364,3.3364,3.3364,6.1398,6.105,6.0591,6.0389,6.0389,6.0389,6.0353,6.0243,5.9949,5.9729,5.9491,5.8904,5.8592,5.839,5.8079,5.7987,5.7987,5.795,5.7914,5.7822,5.7822,5.7712,5.762,5.7382,5.7217,5.6997,5.6483,5.6116,5.597,5.575,5.564,5.5566,5.5456,5.5273,5.4998,5.4741,5.4466,5.4209,5.3842,5.3567,5.3402,5.3164,5.2999,5.2889,5.2255,5.1675,5.0772,5.0032,4.9457,4.8563,4.8803,4.8906,4.882,4.8649,4.8769,4.9008,4.9128,4.93,4.9591,4.9642,4.9796,4.9984,5.0087,5.0258,5.0601,5.0892,5.1046,5.1149,5.12,5.1166,5.1132,5.0806,5.0635,5.0515,5.0464,5.0498,5.0567,5.0567,5.0532,5.0704,5.0721,5.0772,5.1029,5.1005,5.1142,5.1064,5.0901,4.9774,4.8816,4.7913,4.6672,4.5195,4.35,4.1518,3.9821,3.8446,3.7516,3.7063,3.6363,3.5907,3.5673,3.5204,3.4885,3.4776,3.4644,3.4463,3.4209,3.3956,3.3823,3.3726,3.3569,3.3388,3.3412,3.3449,3.3376,6.116,6.0939,6.0554,6.0389,6.0389,6.0389,6.0389,6.0371,6.0188,5.9968,5.9711,5.9362,5.8941,5.861,5.839,5.8189,5.8005,5.7969,5.7969,5.7969,5.7969,5.7969,5.7969,5.7749,5.7712,5.7528,5.707,5.6648,5.6446,5.6061,5.5878,5.5805,5.5676,5.5438,5.5218,5.5016,5.4851,5.4576,5.4264,5.3952,5.3769,5.3512,5.3457,5.3256,5.2722,5.1987,5.1482,5.0511,4.9675,4.9197,4.9248,4.9334,4.9282,4.9197,4.9128,4.9282,4.9334,4.9505,4.9813,4.9916,5.0087,5.0395,5.0464,5.0652,5.0943,5.12,5.1389,5.1543,5.1577,5.1508,5.1303,5.1132,5.0943,5.0755,5.0755,5.0858,5.0961,5.1012,5.1098,5.1166,5.1132,5.1217,5.1474,5.1628,5.168,5.1765,5.1851,5.1064,4.9738,4.903,4.7835,4.6441,4.4763,4.3351,4.1661,4.0282,3.9141,3.8446,3.7296,3.683,3.6129,3.5673,3.5204,3.4909,3.4788,3.4632,3.445,3.4197,3.4088,3.3968,3.3775,3.3606,3.3557,3.3509,3.3424,6.0939,6.0848,6.0536,6.0389,6.0389,6.0389,6.0389,6.0389,6.0389,6.0206,5.9913,5.9766,5.9344,5.8794,5.8482,5.8262,5.7969,5.7969,5.7969,5.7969,5.7969,5.7969,5.7969,5.7969,5.7932,5.784,5.7639,5.7272,5.6868,5.6465,5.6263,5.608,5.5786,5.5603,5.5475,5.5236,5.5071,5.4924,5.4649,5.4264,5.3952,5.3861,5.3861,5.364,5.304,5.2351,5.2067,5.0914,5.0277,4.9796,4.9693,4.9676,4.9608,4.9591,4.9591,4.9591,4.9591,4.9813,5.0053,5.0173,5.0327,5.0789,5.0841,5.1046,5.1286,5.1474,5.156,5.18,5.1834,5.1731,5.1526,5.1423,5.1286,5.1115,5.1029,5.1063,5.1303,5.144,5.1508,5.1543,5.1508,5.156,5.1731,5.1765,5.1782,5.1782,5.1851,5.121,5.0148,4.9734,4.8717,4.7236,4.6028,4.4897,4.3489,4.2363,4.1202,4.0282,3.8909,3.7981,3.7063,3.6129,3.5661,3.5192,3.4873,3.4716,3.4571,3.4463,3.4342,3.4185,3.3968,3.3799,3.369,3.3533,3.34,6.0793,6.0463,6.0426,6.0389,6.0389,6.0389,6.0389,6.0389,6.0389,6.0389,6.0243,5.9931,5.9564,5.9069,5.839,5.8097,5.8024,5.8024,5.8042,5.806,5.7987,5.7969,5.7969,5.7969,5.795,5.7914,5.7859,5.7675,5.729,5.6887,5.652,5.6281,5.6116,5.5933,5.564,5.5456,5.5493,5.5383,5.5034,5.4649,5.4338,5.4264,5.4264,5.3837,5.3238,5.2563,5.2268,5.1331,5.0464,5.0139,5.0104,4.9933,4.9676,4.9591,4.9591,4.9591,4.9642,4.9779,5.0156,5.031,5.0584,5.1098,5.1235,5.144,5.1611,5.1731,5.1765,5.1817,5.1851,5.1834,5.1748,5.1765,5.1731,5.168,5.156,5.1594,5.1748,5.1645,5.1748,5.1765,5.168,5.1731,5.1834,5.1851,5.1851,5.1851,5.1748,5.0877,5.0259,4.9988,4.9769,4.8264,4.7344,4.6221,4.5545,4.4398,4.3261,4.2348,4.0742,3.9141,3.7981,3.7063,3.5895,3.5414,3.5107,3.4861,3.4788,3.468,3.4571,3.4414,3.4233,3.4004,3.3787,3.3606,3.3437,6.0554,6.0389,6.0389,6.0389,6.0389,6.0389,6.0389,6.0389,6.0389,6.0389,6.0371,6.0224,5.9913,5.9399,5.8886,5.8684,5.861,5.839,5.8317,5.8207,5.8079,5.7969,5.7895,5.7767,5.7712,5.7895,5.7767,5.7712,5.751,5.7327,5.6978,5.6777,5.6391,5.6098,5.5841,5.5658,5.5566,5.542,5.5144,5.4851,5.4704,5.4668,5.4668,5.4668,5.374,5.3042,5.2691,5.173,5.0738,5.0344,5.019,5.0002,4.9779,4.9796,4.9933,4.995,5.0156,5.0327,5.0498,5.0687,5.1063,5.1423,5.1611,5.1697,5.1834,5.1851,5.1851,5.1851,5.1851,5.1851,5.1851,5.1851,5.1851,5.1851,5.1851,5.1851,5.1851,5.1851,5.1834,5.1851,5.1851,5.1851,5.18,5.1663,5.1645,5.1645,5.1457,5.0818,5.0357,4.9931,4.9503,4.9042,4.8479,4.7809,4.712,4.6446,4.5077,4.3944,4.282,4.1202,3.9372,3.7981,3.7063,3.5895,3.5636,3.5402,3.518,3.4885,3.4764,3.4632,3.4499,3.4294,3.4076,3.3799,3.363,6.0389,6.0389,6.0389,6.0389,6.0389,6.0389,6.0389,6.0389,6.0389,6.0389,6.0371,6.0261,5.9986,5.9601,5.9161,5.8831,5.8776,5.8574,5.8464,5.8317,5.817,5.7987,5.7895,5.7712,5.7712,5.7969,5.7767,5.773,5.7749,5.7565,5.7272,5.7198,5.6465,5.619,5.608,5.5896,5.575,5.5713,5.5346,5.5126,5.5089,5.5071,5.4845,5.471,5.4172,5.3574,5.2886,5.2129,5.1098,5.0498,5.0361,5.019,4.9916,5.0002,5.0207,5.0327,5.0601,5.0824,5.0926,5.1098,5.1474,5.1714,5.1851,5.1817,5.1851,5.1851,5.1851,5.1851,5.1851,5.1851,5.1851,5.1851,5.1851,5.1851,5.1851,5.1851,5.1851,5.1851,5.1851,5.1851,5.1851,5.1851,5.1748,5.1491,5.1406,5.1423,5.1149,5.0772,5.0361,4.995,4.9505,4.9386,4.9147,4.8701,4.8479,4.7809,4.6671,4.5771,4.464,4.282,4.0742,3.9372,3.8214,3.7296,3.6363,3.5661,3.5427,3.5192,3.4957,3.4801,3.4668,3.4583,3.439,3.4076,3.3738,6.0389,6.0389,6.0389,6.0389,6.0389,6.0389,6.0389,6.0389,6.0389,6.0389,6.0353,6.0004,5.9656,5.9271,5.8959,5.8574,5.8134,5.8042,5.8115,5.8097,5.7969,5.7969,5.7914,5.7877,5.7859,5.795,5.7785,5.7804,5.784,5.7473,5.7143,5.6777,5.6391,5.6226,5.6116,5.6006,5.5933,5.586,5.5585,5.5438,5.5438,5.5438,5.521,5.4526,5.4122,5.3451,5.2759,5.2228,5.1457,5.0738,5.0687,5.0515,5.0241,5.031,5.0481,5.0721,5.1046,5.1235,5.132,5.1354,5.1508,5.1731,5.1851,5.1851,5.1851,5.1851,5.1851,5.1851,5.1851,5.1851,5.1851,5.1851,5.1851,5.1851,5.1851,5.1851,5.1851,5.1851,5.1851,5.1851,5.1851,5.1851,5.1817,5.1594,5.144,5.1457,5.1269,5.0892,5.0481,5.0087,4.9779,4.9625,4.9608,4.9369,4.9386,4.8701,4.7792,4.6896,4.5996,4.4171,4.2119,4.0742,3.9603,3.7981,3.7063,3.6363,3.5673,3.5439,3.4957,3.4909,3.4813,3.468,3.4463,3.4137,3.3775,6.0389,6.0389,6.0389,6.0389,6.0389,6.0389,6.0389,6.0389,6.0389,6.0389,6.0389,5.9968,5.9692,5.9454,5.9142,5.8886,5.8684,5.8445,5.8354,5.8244,5.8134,5.7987,5.7914,5.7804,5.7712,5.7859,5.7785,5.7767,5.7895,5.7345,5.6997,5.6667,5.6318,5.6208,5.6116,5.597,5.586,5.5786,5.5658,5.5548,5.5548,5.5548,5.5302,5.4598,5.3928,5.3468,5.2777,5.2314,5.1543,5.1217,5.108,5.0841,5.0635,5.0721,5.0892,5.108,5.1423,5.1577,5.1611,5.1628,5.1731,5.1782,5.1851,5.1851,5.1851,5.1851,5.1851,5.1851,5.1851,5.1851,5.1851,5.1851,5.1851,5.1851,5.1851,5.1851,5.1851,5.1851,5.1851,5.1851,5.1851,5.1851,5.1817,5.1748,5.1611,5.1474,5.1269,5.1012,5.0635,5.0241,4.9933,4.9693,4.9642,4.9608,4.9608,4.9147,4.8924,4.8032,4.712,4.5529,4.3716,4.282,4.1675,3.9834,3.7981,3.7063,3.6363,3.5439,3.518,3.4921,3.4837,3.4704,3.4463,3.4161,3.3835,6.0389,6.0389,6.0389,6.0389,6.0389,6.0389,6.0389,6.0389,6.0389,6.0389,6.0371,5.9968,5.9692,5.9527,5.9161,5.8849,5.8647,5.8464,5.839,5.8262,5.8097,5.7987,5.7877,5.7785,5.7767,5.7859,5.7767,5.7749,5.7914,5.7125,5.6832,5.6612,5.6263,5.6061,5.6098,5.5896,5.5713,5.5731,5.5603,5.5566,5.5548,5.5548,5.5073,5.4387,5.3928,5.3238,5.2563,5.2066,5.1663,5.1406,5.1252,5.1149,5.108,5.1132,5.1337,5.1508,5.168,5.1851,5.1851,5.1851,5.1851,5.1851,5.1851,5.1851,5.1851,5.1851,5.1851,5.1851,5.1851,5.1851,5.1851,5.1851,5.1851,5.1851,5.1851,5.1851,5.1851,5.1851,5.1851,5.1851,5.1851,5.1851,5.1851,5.18,5.1748,5.1594,5.1371,5.1166,5.0892,5.0498,5.0104,4.9865,4.971,4.9642,4.9591,4.9369,4.9147,4.8701,4.7792,4.712,4.5755,4.464,4.3276,4.1202,3.9359,3.7981,3.683,3.5895,3.5427,3.4957,3.4873,3.4788,3.4414,3.4125,3.3859,6.0389,6.0389,6.0389,6.0389,6.0389,6.0389,6.0389,6.0316,6.0298,6.0316,6.0261,5.9876,5.9491,5.9161,5.8757,5.8445,5.8225,5.8097,5.806,5.8042,5.8024,5.7969,5.795,5.7914,5.7877,5.7932,5.7895,5.7877,5.795,5.7235,5.6887,5.652,5.6098,5.5786,5.6116,5.6135,5.6135,5.608,5.5695,5.5585,5.5548,5.5548,5.4845,5.4158,5.3698,5.3256,5.2314,5.2083,5.1697,5.1474,5.1406,5.1354,5.1354,5.1337,5.1508,5.1765,5.1817,5.1851,5.1851,5.1851,5.1851,5.1851,5.1851,5.1851,5.1851,5.1834,5.1782,5.1714,5.1765,5.18,5.1817,5.1851,5.1851,5.1851,5.1851,5.1851,5.1851,5.1851,5.1851,5.1851,5.1851,5.1851,5.1851,5.1851,5.1851,5.1714,5.1474,5.1269,5.108,5.0738,5.031,4.9984,4.9796,4.9659,4.9591,4.9591,4.9369,4.8924,4.8479,4.8016,4.712,4.5996,4.4398,4.2577,4.0742,3.8909,3.7516,3.6363,3.5661,3.4957,3.497,3.4837,3.445,3.4125,3.3895,6.0389,6.0389,6.0389,6.0389,6.0389,6.0389,6.0261,5.9968,5.9747,5.9729,5.9802,5.9307,5.8959,5.8684,5.8409,5.8115,5.8005,5.7969,5.7969,5.7969,5.7969,5.7969,5.7969,5.7969,5.7969,5.7969,5.7969,5.7969,5.795,5.7345,5.6997,5.663,5.6025,5.5676,5.5713,5.575,5.575,5.5731,5.5603,5.5548,5.5548,5.5548,5.4863,5.3716,5.3716,5.3025,5.2083,5.1851,5.1765,5.1645,5.1628,5.1628,5.1645,5.1628,5.1714,5.1851,5.1851,5.1851,5.1851,5.1851,5.1851,5.1851,5.1851,5.1851,5.1851,5.1611,5.1543,5.1526,5.1543,5.1526,5.1474,5.1748,5.1834,5.1851,5.1851,5.1851,5.1851,5.1851,5.1851,5.1851,5.1851,5.1851,5.1851,5.1851,5.1851,5.1851,5.1663,5.144,5.1235,5.0892,5.0498,5.0139,4.9882,4.9693,4.9591,4.9591,4.9591,4.9369,4.9147,4.8924,4.8016,4.6896,4.5545,4.3944,4.1661,3.9603,3.7981,3.6596,3.5661,3.497,3.497,3.4873,3.4547,3.4257,3.4028,6.0389,6.0389,6.0389,6.0389,6.0389,6.0389,6.0169,5.9766,5.9509,5.9472,5.9417,5.8867,5.8592,5.8464,5.8189,5.7969,5.7969,5.7969,5.7969,5.7969,5.7969,5.7969,5.7969,5.7969,5.7969,5.7969,5.7969,5.7969,5.795,5.7565,5.7052,5.6502,5.6025,5.5768,5.5658,5.5585,5.5585,5.5585,5.5548,5.5548,5.5548,5.5092,5.4616,5.3928,5.3486,5.2794,5.2083,5.1851,5.1851,5.1851,5.1851,5.1851,5.1851,5.1851,5.1851,5.1851,5.1851,5.1851,5.1851,5.1851,5.1851,5.1851,5.1851,5.1851,5.18,5.1543,5.1389,5.1337,5.1303,5.1303,5.1371,5.1663,5.1834,5.1851,5.1851,5.1851,5.1851,5.1851,5.1851,5.1851,5.1851,5.1851,5.1851,5.1851,5.1851,5.1851,5.1834,5.1611,5.1371,5.1012,5.0652,5.0276,4.9933,4.971,4.9608,4.9591,4.9591,4.9591,4.9591,4.9369,4.8924,4.8032,4.6671,4.5093,4.3261,4.1202,3.8678,3.705,3.5895,3.5204,3.5204,3.5058,3.4607,3.4378,3.4137,6.0389,6.0389,6.0389,6.0389,6.0389,6.0353,6.0114,5.9766,5.9674,5.9436,5.9142,5.8702,5.8464,5.8427,5.8115,5.7987,5.7969,5.7969,5.7969,5.7969,5.7969,5.7969,5.7969,5.7969,5.7969,5.7969,5.7969,5.7969,5.7914,5.7565,5.6978,5.6428,5.6171,5.5878,5.5658,5.5548,5.5548,5.5548,5.5548,5.5548,5.5548,5.5073,5.4387,5.3698,5.3256,5.2563,5.21,5.1851,5.1851,5.1851,5.1851,5.1851,5.1851,5.1851,5.1851,5.1851,5.1851,5.1851,5.1851,5.1851,5.1851,5.1851,5.18,5.1834,5.1731,5.1474,5.1252,5.1235,5.1235,5.1269,5.1337,5.1594,5.1851,5.1851,5.1851,5.1851,5.1851,5.1851,5.1851,5.1851,5.1851,5.1851,5.1851,5.1851,5.1851,5.1851,5.1817,5.1628,5.1389,5.1132,5.0755,5.0395,5.0053,4.9728,4.9642,4.9625,4.9591,4.9591,4.9591,4.9369,4.9147,4.8924,4.7568,4.5996,4.464,4.2577,3.959,3.7529,3.6129,3.5673,3.5439,3.5143,3.4728,3.4475,3.4209,6.0389,6.0389,6.0389,6.0389,6.0353,6.0078,5.9876,5.9692,5.8922,5.8537,5.8739,5.8317,5.817,5.8115,5.8024,5.7969,5.7969,5.7969,5.7969,5.7969,5.7969,5.7969,5.7969,5.7969,5.7969,5.7969,5.7969,5.7969,5.7877,5.7565,5.7143,5.6648,5.6263,5.5933,5.5695,5.5548,5.553,5.553,5.5511,5.5548,5.532,5.4845,5.4387,5.3698,5.3025,5.2563,5.2083,5.1851,5.1851,5.1851,5.1851,5.1851,5.1851,5.1851,5.1851,5.1851,5.1851,5.1851,5.1851,5.1851,5.1834,5.1765,5.1628,5.1663,5.1577,5.1337,5.1029,5.1029,5.1046,5.1046,5.1269,5.1543,5.1782,5.1851,5.1851,5.1851,5.1851,5.1851,5.1851,5.1851,5.1851,5.1851,5.1851,5.1851,5.1851,5.1851,5.18,5.1628,5.1457,5.12,5.0892,5.0515,5.0276,4.9984,4.9728,4.9659,4.9625,4.9591,4.9591,4.9591,4.9369,4.8924,4.8032,4.6671,4.4851,4.2577,3.9834,3.7981,3.6363,3.5673,3.5427,3.5156,3.4825,3.4571,3.4354,5.9931,5.9913,5.9913,5.9913,5.9857,5.9491,5.9307,5.9142,5.85,5.8299,5.8299,5.8079,5.7969,5.7987,5.7969,5.7969,5.7969,5.7969,5.7969,5.7969,5.7969,5.7969,5.7969,5.7969,5.7969,5.7969,5.7969,5.7969,5.784,5.7528,5.7125,5.6483,5.6226,5.5933,5.5676,5.553,5.542,5.542,5.542,5.5511,5.5302,5.4827,5.4387,5.3681,5.3008,5.2563,5.2066,5.1834,5.1851,5.1851,5.1851,5.1851,5.1851,5.1851,5.1851,5.1851,5.1851,5.1851,5.1851,5.1851,5.1782,5.1645,5.144,5.1354,5.1149,5.0858,5.0738,5.0704,5.0738,5.0841,5.1183,5.1491,5.168,5.1851,5.1851,5.1851,5.1851,5.1851,5.1851,5.1851,5.1851,5.1851,5.1851,5.1851,5.1851,5.1851,5.1851,5.1765,5.1594,5.1389,5.1046,5.0669,5.0498,5.0293,5.0036,4.9762,4.971,4.9676,4.9591,4.9591,4.9608,4.9163,4.8512,4.6687,4.4624,4.2591,4.0799,3.8446,3.683,3.6129,3.5673,3.518,3.4861,3.468,3.4487,5.9197,5.9216,5.9179,5.9216,5.9087,5.8776,5.861,5.8519,5.8464,5.8299,5.8024,5.7969,5.7969,5.7969,5.7969,5.7969,5.7969,5.7969,5.7969,5.7969,5.7969,5.7969,5.7969,5.7969,5.7895,5.7914,5.7859,5.7749,5.7694,5.7382,5.685,5.619,5.6171,5.5915,5.5475,5.5401,5.5236,5.4961,5.5108,5.5254,5.5101,5.4718,5.4333,5.3645,5.2973,5.2546,5.2031,5.18,5.18,5.1765,5.1731,5.168,5.1663,5.1645,5.1663,5.1731,5.168,5.1731,5.1765,5.18,5.1697,5.1526,5.132,5.1149,5.0909,5.0567,5.0447,5.0687,5.0806,5.0978,5.1286,5.1577,5.1782,5.1851,5.1851,5.1851,5.1851,5.1851,5.1851,5.1851,5.1851,5.1851,5.1851,5.1851,5.1851,5.1851,5.1851,5.1817,5.1731,5.1543,5.1269,5.0909,5.0806,5.0618,5.0224,4.9984,4.9865,4.9779,4.9676,4.9591,4.9591,4.9403,4.9231,4.7541,4.5616,4.4096,4.2236,3.9644,3.7309,3.6596,3.5907,3.5204,3.4873,3.4752,3.4619,5.9179,5.9179,5.9179,5.9014,5.8739,5.861,5.8372,5.8115,5.8115,5.806,5.7987,5.7969,5.7969,5.7969,5.7969,5.7969,5.7969,5.7969,5.7969,5.7969,5.7969,5.7914,5.7932,5.7895,5.7767,5.7583,5.7473,5.7363,5.7125,5.6905,5.6685,5.619,5.6061,5.5731,5.5163,5.5108,5.4888,5.4521,5.4576,5.4668,5.4407,5.4229,5.3938,5.3361,5.2745,5.2303,5.1773,5.144,5.1252,5.1063,5.1012,5.0978,5.0978,5.1012,5.1012,5.1046,5.1303,5.1406,5.1508,5.1628,5.1663,5.1594,5.1406,5.1098,5.0772,5.0395,5.0361,5.0687,5.0978,5.1166,5.1371,5.1645,5.1851,5.1851,5.1851,5.1851,5.1851,5.1851,5.1851,5.1851,5.1851,5.1851,5.1851,5.1851,5.1851,5.1851,5.1851,5.1851,5.1851,5.1714,5.156,5.1286,5.1217,5.0978,5.055,5.0207,5.0104,4.9882,4.9728,4.9659,4.9642,4.9624,4.938,4.8419,4.7136,4.5285,4.2783,3.9917,3.8034,3.7076,3.5907,3.5204,3.497,3.4873,3.4752,5.8647,5.8647,5.8647,5.8519,5.8335,5.8299,5.8152,5.7987,5.7969,5.7969,5.7969,5.7969,5.7969,5.7969,5.7969,5.7969,5.7969,5.7969,5.7969,5.7969,5.7895,5.7822,5.7804,5.7694,5.7418,5.7198,5.7088,5.6905,5.6557,5.6446,5.63,5.5915,5.5731,5.5383,5.4869,5.4741,5.4466,5.4099,5.4081,5.3989,5.3952,5.3855,5.3507,5.3198,5.2552,5.2132,5.1395,5.1046,5.0926,5.0789,5.0772,5.0772,5.0789,5.0789,5.0755,5.0806,5.0926,5.1046,5.1149,5.1337,5.1526,5.1423,5.1457,5.1115,5.0806,5.0481,5.0361,5.0669,5.1046,5.1269,5.1406,5.1628,5.18,5.1851,5.1851,5.1851,5.1851,5.1851,5.1851,5.1851,5.1851,5.1851,5.1851,5.1851,5.1851,5.1851,5.1851,5.1851,5.1851,5.1851,5.1714,5.1611,5.1508,5.1337,5.0978,5.0618,5.0327,5.0087,4.9865,5.0019,5.0173,5.0085,4.9786,4.9222,4.8015,4.5883,4.339,4.0463,3.828,3.7076,3.5907,3.497,3.497,3.497,3.4873,5.7987,5.7969,5.7987,5.7969,5.7969,5.7969,5.7969,5.7969,5.7969,5.7969,5.7969,5.7969,5.7969,5.7969,5.7969,5.7969,5.7932,5.7822,5.7859,5.7822,5.7749,5.751,5.7363,5.729,5.7033,5.6777,5.6593,5.6373,5.608,5.597,5.5731,5.542,5.5126,5.4814,5.4686,5.4429,5.4062,5.3769,5.3604,5.3476,5.3586,5.3824,5.3227,5.2906,5.2268,5.1835,5.1122,5.0652,5.0652,5.0758,5.069,5.043,5.043,5.0395,5.043,5.0464,5.0567,5.0635,5.0738,5.1012,5.1029,5.1029,5.1183,5.1149,5.0858,5.0789,5.0669,5.0755,5.1132,5.1354,5.1491,5.1611,5.1765,5.1851,5.1851,5.1851,5.1851,5.1851,5.1851,5.1851,5.1851,5.1851,5.1851,5.1851,5.1851,5.1851,5.1851,5.1851,5.1851,5.1851,5.18,5.1748,5.1714,5.1526,5.1269,5.0995,5.0635,5.0413,5.0276,5.0481,5.0669,5.0528,5.0596,5.0419,4.8898,4.6545,4.3955,4.1227,3.9276,3.7114,3.5907,3.497,3.497,3.497,3.497,5.7969,5.7969,5.7969,5.7969,5.7969,5.7969,5.7969,5.7969,5.795,5.7969,5.7895,5.795,5.7969,5.795,5.7969,5.7932,5.7822,5.7657,5.751,5.7473,5.7272,5.7033,5.6868,5.6813,5.6881,5.6567,5.5988,5.575,5.553,5.5309,5.5144,5.5016,5.4649,5.4319,5.4007,5.3806,5.3677,5.3421,5.3311,5.3219,5.3311,5.3311,5.3088,5.262,5.2368,5.159,5.0829,5.0742,5.0758,5.0585,5.055,5.0362,5.0156,5.0174,5.0191,5.0277,5.0397,5.0483,5.0621,5.0652,5.0687,5.0995,5.1166,5.1286,5.1217,5.1423,5.1286,5.1132,5.1406,5.1526,5.1645,5.1731,5.1851,5.1851,5.1851,5.1851,5.1851,5.1851,5.1851,5.1851,5.1851,5.1851,5.1851,5.1851,5.1851,5.1851,5.1851,5.1851,5.1851,5.1851,5.1851,5.1851,5.1851,5.1628,5.1354,5.1269,5.0995,5.0772,5.0669,5.0858,5.1029,5.1149,5.0988,5.1039,4.9162,4.6767,4.4165,4.1686,3.9151,3.7217,3.5945,3.497,3.4982,3.497,3.497]}]]